<?xml version='1.0' encoding='UTF-8'?>
<gpx version="1.1" creator="https://www.komoot.de" xmlns="http://www.topografix.com/GPX/1/1" xmlns:xsi="http://www.w3.org/2001/XMLSchema-instance" xsi:schemaLocation="http://www.topografix.com/GPX/1/1 http://www.topografix.com/GPX/1/1/gpx.xsd">
  <metadata>
    <name>Potsdam Falkenhof</name>
    <author>
      <link href="https://www.komoot.de">
        <text>komoot</text>
        <type>text/html</type>
      </link>
    </author>
  </metadata>
  <wpt lat="52.492415" lon="13.182039">
    <name>Havelufer (nördlich Gatow)</name>
    <sym>Flag, Blue</sym>
  </wpt>
  <wpt lat="52.457107" lon="13.159209">
    <name>Gutspark Neukladow</name>
    <sym>Flag, Blue</sym>
  </wpt>
  <wpt lat="52.453675" lon="13.151345">
    <name>Imchenallee</name>
    <sym>Shopping Center</sym>
  </wpt>
  <wpt lat="52.454090" lon="13.082260">
    <name>Waldweg Krampnitzer Weg</name>
    <sym>Flag, Blue</sym>
  </wpt>
  <wpt lat="52.398858" lon="13.145206">
    <name>Neue Brücke über den Teltowkanal</name>
    <sym>Bridge</sym>
  </wpt>
  <wpt lat="52.441809" lon="13.199922">
    <name>Alternative Route zum Kronprinzessinnenweg (Grunewald)</name>
    <sym>Flag, Blue</sym>
  </wpt>
  <wpt lat="52.470747" lon="13.230540">
    <name>Hüttenweg im Grunewald</name>
    <sym>Flag, Blue</sym>
  </wpt>
  <trk>
    <name>Potsdam Falkenhof</name>
    <type>touring_bicycle</type>
    <trkseg>
      <trkpt lat="52.508067" lon="13.258607">
        <ele>60.184511</ele>
        <time>2026-08-26T08:14:50.032Z</time>
      </trkpt>
      <trkpt lat="52.508112" lon="13.258475">
        <ele>60.184511</ele>
        <time>2026-08-26T08:14:51.758Z</time>
      </trkpt>
      <trkpt lat="52.508103" lon="13.258268">
        <ele>60.184511</ele>
        <time>2026-08-26T08:14:54.143Z</time>
      </trkpt>
      <trkpt lat="52.508175" lon="13.258116">
        <ele>60.184511</ele>
        <time>2026-08-26T08:14:56.377Z</time>
      </trkpt>
      <trkpt lat="52.508183" lon="13.258100">
        <ele>60.184511</ele>
        <time>2026-08-26T08:14:56.631Z</time>
      </trkpt>
      <trkpt lat="52.508224" lon="13.258153">
        <ele>60.184511</ele>
        <time>2026-08-26T08:14:57.602Z</time>
      </trkpt>
      <trkpt lat="52.508323" lon="13.258279">
        <ele>60.184511</ele>
        <time>2026-08-26T08:14:59.993Z</time>
      </trkpt>
      <trkpt lat="52.508337" lon="13.258296">
        <ele>60.184511</ele>
        <time>2026-08-26T08:15:00.322Z</time>
      </trkpt>
      <trkpt lat="52.508371" lon="13.258335">
        <ele>60.184511</ele>
        <time>2026-08-26T08:15:01.095Z</time>
      </trkpt>
      <trkpt lat="52.508418" lon="13.258386">
        <ele>60.184511</ele>
        <time>2026-08-26T08:15:02.160Z</time>
      </trkpt>
      <trkpt lat="52.508519" lon="13.258367">
        <ele>60.184511</ele>
        <time>2026-08-26T08:15:04.090Z</time>
      </trkpt>
      <trkpt lat="52.508680" lon="13.258346">
        <ele>60.184716</ele>
        <time>2026-08-26T08:15:07.205Z</time>
      </trkpt>
      <trkpt lat="52.508708" lon="13.258342">
        <ele>60.185949</ele>
        <time>2026-08-26T08:15:07.742Z</time>
      </trkpt>
      <trkpt lat="52.508723" lon="13.258340">
        <ele>60.186609</ele>
        <time>2026-08-26T08:15:08.042Z</time>
      </trkpt>
      <trkpt lat="52.508748" lon="13.258337">
        <ele>60.187709</ele>
        <time>2026-08-26T08:15:08.520Z</time>
      </trkpt>
      <trkpt lat="52.508697" lon="13.257468">
        <ele>60.211018</ele>
        <time>2026-08-26T08:15:18.776Z</time>
      </trkpt>
      <trkpt lat="52.508693" lon="13.257386">
        <ele>60.213214</ele>
        <time>2026-08-26T08:15:19.980Z</time>
      </trkpt>
      <trkpt lat="52.508676" lon="13.257277">
        <ele>60.216218</ele>
        <time>2026-08-26T08:15:21.659Z</time>
      </trkpt>
      <trkpt lat="52.508671" lon="13.257256">
        <ele>60.216820</ele>
        <time>2026-08-26T08:15:21.924Z</time>
      </trkpt>
      <trkpt lat="52.508588" lon="13.256948">
        <ele>60.225814</ele>
        <time>2026-08-26T08:15:25.767Z</time>
      </trkpt>
      <trkpt lat="52.508573" lon="13.256690">
        <ele>60.232734</ele>
        <time>2026-08-26T08:15:28.725Z</time>
      </trkpt>
      <trkpt lat="52.508550" lon="13.256318">
        <ele>60.242717</ele>
        <time>2026-08-26T08:15:32.979Z</time>
      </trkpt>
      <trkpt lat="52.508503" lon="13.255535">
        <ele>60.246630</ele>
        <time>2026-08-26T08:15:41.182Z</time>
      </trkpt>
      <trkpt lat="52.508475" lon="13.255068">
        <ele>59.572615</ele>
        <time>2026-08-26T08:15:45.568Z</time>
      </trkpt>
      <trkpt lat="52.508472" lon="13.255016">
        <ele>59.497590</ele>
        <time>2026-08-26T08:15:46.029Z</time>
      </trkpt>
      <trkpt lat="52.508424" lon="13.254221">
        <ele>58.350098</ele>
        <time>2026-08-26T08:15:52.829Z</time>
      </trkpt>
      <trkpt lat="52.508458" lon="13.254140">
        <ele>58.208770</ele>
        <time>2026-08-26T08:15:53.642Z</time>
      </trkpt>
      <trkpt lat="52.508276" lon="13.251086">
        <ele>53.993997</ele>
        <time>2026-08-26T08:16:17.959Z</time>
      </trkpt>
      <trkpt lat="52.508190" lon="13.249633">
        <ele>52.152024</ele>
        <time>2026-08-26T08:16:31.092Z</time>
      </trkpt>
      <trkpt lat="52.508184" lon="13.249556">
        <ele>52.166120</ele>
        <time>2026-08-26T08:16:31.915Z</time>
      </trkpt>
      <trkpt lat="52.508125" lon="13.248568">
        <ele>52.346389</ele>
        <time>2026-08-26T08:16:43.258Z</time>
      </trkpt>
      <trkpt lat="52.508072" lon="13.247711">
        <ele>52.502810</ele>
        <time>2026-08-26T08:16:53.434Z</time>
      </trkpt>
      <trkpt lat="52.508016" lon="13.246777">
        <ele>52.673233</ele>
        <time>2026-08-26T08:17:04.919Z</time>
      </trkpt>
      <trkpt lat="52.507942" lon="13.245575">
        <ele>53.613619</ele>
        <time>2026-08-26T08:17:20.179Z</time>
      </trkpt>
      <trkpt lat="52.507889" lon="13.244701">
        <ele>54.313489</ele>
        <time>2026-08-26T08:17:31.691Z</time>
      </trkpt>
      <trkpt lat="52.507737" lon="13.242174">
        <ele>57.225112</ele>
        <time>2026-08-26T08:18:09.025Z</time>
      </trkpt>
      <trkpt lat="52.507724" lon="13.241945">
        <ele>57.533369</ele>
        <time>2026-08-26T08:18:12.617Z</time>
      </trkpt>
      <trkpt lat="52.507713" lon="13.241799">
        <ele>57.730543</ele>
        <time>2026-08-26T08:18:14.906Z</time>
      </trkpt>
      <trkpt lat="52.507705" lon="13.241655">
        <ele>57.924346</ele>
        <time>2026-08-26T08:18:17.152Z</time>
      </trkpt>
      <trkpt lat="52.507630" lon="13.240394">
        <ele>59.617351</ele>
        <time>2026-08-26T08:18:37.108Z</time>
      </trkpt>
      <trkpt lat="52.507594" lon="13.239822">
        <ele>60.381762</ele>
        <time>2026-08-26T08:18:46.093Z</time>
      </trkpt>
      <trkpt lat="52.507549" lon="13.239105">
        <ele>61.339922</ele>
        <time>2026-08-26T08:18:57.166Z</time>
      </trkpt>
      <trkpt lat="52.507309" lon="13.235356">
        <ele>65.497738</ele>
        <time>2026-08-26T08:19:51.493Z</time>
      </trkpt>
      <trkpt lat="52.507303" lon="13.235261">
        <ele>65.593095</ele>
        <time>2026-08-26T08:19:52.737Z</time>
      </trkpt>
      <trkpt lat="52.507216" lon="13.234619">
        <ele>65.910185</ele>
        <time>2026-08-26T08:20:01.162Z</time>
      </trkpt>
      <trkpt lat="52.507177" lon="13.233963">
        <ele>65.973918</ele>
        <time>2026-08-26T08:20:09.049Z</time>
      </trkpt>
      <trkpt lat="52.507054" lon="13.231831">
        <ele>66.091352</ele>
        <time>2026-08-26T08:20:31.237Z</time>
      </trkpt>
      <trkpt lat="52.506993" lon="13.230836">
        <ele>65.784592</ele>
        <time>2026-08-26T08:20:41.008Z</time>
      </trkpt>
      <trkpt lat="52.506962" lon="13.230347">
        <ele>65.633780</ele>
        <time>2026-08-26T08:20:45.728Z</time>
      </trkpt>
      <trkpt lat="52.506938" lon="13.229955">
        <ele>65.512927</ele>
        <time>2026-08-26T08:20:49.561Z</time>
      </trkpt>
      <trkpt lat="52.506926" lon="13.229525">
        <ele>65.380886</ele>
        <time>2026-08-26T08:20:53.909Z</time>
      </trkpt>
      <trkpt lat="52.506945" lon="13.229438">
        <ele>65.352533</ele>
        <time>2026-08-26T08:20:54.869Z</time>
      </trkpt>
      <trkpt lat="52.507048" lon="13.229228">
        <ele>65.269804</ele>
        <time>2026-08-26T08:20:57.703Z</time>
      </trkpt>
      <trkpt lat="52.507072" lon="13.229077">
        <ele>65.216713</ele>
        <time>2026-08-26T08:20:59.375Z</time>
      </trkpt>
      <trkpt lat="52.507040" lon="13.228520">
        <ele>65.016314</ele>
        <time>2026-08-26T08:21:05.399Z</time>
      </trkpt>
      <trkpt lat="52.507031" lon="13.228369">
        <ele>64.961968</ele>
        <time>2026-08-26T08:21:07.045Z</time>
      </trkpt>
      <trkpt lat="52.507022" lon="13.228196">
        <ele>64.899775</ele>
        <time>2026-08-26T08:21:08.874Z</time>
      </trkpt>
      <trkpt lat="52.507004" lon="13.227845">
        <ele>64.773605</ele>
        <time>2026-08-26T08:21:12.544Z</time>
      </trkpt>
      <trkpt lat="52.507026" lon="13.227631">
        <ele>64.695866</ele>
        <time>2026-08-26T08:21:14.809Z</time>
      </trkpt>
      <trkpt lat="52.507226" lon="13.226656">
        <ele>64.327330</ele>
        <time>2026-08-26T08:21:25.320Z</time>
      </trkpt>
      <trkpt lat="52.508620" lon="13.219738">
        <ele>54.721493</ele>
        <time>2026-08-26T08:22:27.263Z</time>
      </trkpt>
      <trkpt lat="52.508629" lon="13.219695">
        <ele>54.629260</ele>
        <time>2026-08-26T08:22:27.603Z</time>
      </trkpt>
      <trkpt lat="52.508741" lon="13.219144">
        <ele>53.450955</ele>
        <time>2026-08-26T08:22:32.104Z</time>
      </trkpt>
      <trkpt lat="52.508898" lon="13.218358">
        <ele>51.773009</ele>
        <time>2026-08-26T08:22:38.522Z</time>
      </trkpt>
      <trkpt lat="52.508936" lon="13.218170">
        <ele>51.371202</ele>
        <time>2026-08-26T08:22:40.025Z</time>
      </trkpt>
      <trkpt lat="52.508941" lon="13.218142">
        <ele>51.312014</ele>
        <time>2026-08-26T08:22:40.250Z</time>
      </trkpt>
      <trkpt lat="52.509199" lon="13.216772">
        <ele>47.110494</ele>
        <time>2026-08-26T08:22:50.871Z</time>
      </trkpt>
      <trkpt lat="52.509207" lon="13.216657">
        <ele>46.747409</ele>
        <time>2026-08-26T08:22:51.715Z</time>
      </trkpt>
      <trkpt lat="52.509289" lon="13.215907">
        <ele>44.357124</ele>
        <time>2026-08-26T08:22:59.263Z</time>
      </trkpt>
      <trkpt lat="52.509346" lon="13.215684">
        <ele>43.598427</ele>
        <time>2026-08-26T08:23:01.621Z</time>
      </trkpt>
      <trkpt lat="52.509633" lon="13.214262">
        <ele>40.366764</ele>
        <time>2026-08-26T08:23:12.454Z</time>
      </trkpt>
      <trkpt lat="52.509663" lon="13.214113">
        <ele>40.152426</ele>
        <time>2026-08-26T08:23:14.102Z</time>
      </trkpt>
      <trkpt lat="52.510627" lon="13.209430">
        <ele>36.579717</ele>
        <time>2026-08-26T08:24:20.081Z</time>
      </trkpt>
      <trkpt lat="52.510755" lon="13.208832">
        <ele>36.341211</ele>
        <time>2026-08-26T08:24:28.981Z</time>
      </trkpt>
      <trkpt lat="52.510770" lon="13.208674">
        <ele>36.281045</ele>
        <time>2026-08-26T08:24:31.207Z</time>
      </trkpt>
      <trkpt lat="52.511329" lon="13.205899">
        <ele>35.217872</ele>
        <time>2026-08-26T08:25:09.299Z</time>
      </trkpt>
      <trkpt lat="52.511335" lon="13.205872">
        <ele>35.208406</ele>
        <time>2026-08-26T08:25:09.580Z</time>
      </trkpt>
      <trkpt lat="52.511636" lon="13.204371">
        <ele>34.687955</ele>
        <time>2026-08-26T08:25:24.638Z</time>
      </trkpt>
      <trkpt lat="52.511645" lon="13.204325">
        <ele>34.672042</ele>
        <time>2026-08-26T08:25:25.112Z</time>
      </trkpt>
      <trkpt lat="52.512098" lon="13.202072">
        <ele>35.081484</ele>
        <time>2026-08-26T08:25:52.779Z</time>
      </trkpt>
      <trkpt lat="52.512259" lon="13.201278">
        <ele>35.343100</ele>
        <time>2026-08-26T08:26:03.616Z</time>
      </trkpt>
      <trkpt lat="52.512304" lon="13.201144">
        <ele>35.390941</ele>
        <time>2026-08-26T08:26:05.531Z</time>
      </trkpt>
      <trkpt lat="52.512318" lon="13.201091">
        <ele>35.409002</ele>
        <time>2026-08-26T08:26:06.259Z</time>
      </trkpt>
      <trkpt lat="52.512399" lon="13.200705">
        <ele>35.440806</ele>
        <time>2026-08-26T08:26:12.692Z</time>
      </trkpt>
      <trkpt lat="52.512427" lon="13.200418">
        <ele>35.453373</ele>
        <time>2026-08-26T08:26:17.202Z</time>
      </trkpt>
      <trkpt lat="52.512996" lon="13.197629">
        <ele>35.581104</ele>
        <time>2026-08-26T08:26:58.069Z</time>
      </trkpt>
      <trkpt lat="52.513061" lon="13.197356">
        <ele>35.594037</ele>
        <time>2026-08-26T08:27:02.014Z</time>
      </trkpt>
      <trkpt lat="52.513146" lon="13.197014">
        <ele>35.610335</ele>
        <time>2026-08-26T08:27:07.229Z</time>
      </trkpt>
      <trkpt lat="52.513159" lon="13.196955">
        <ele>35.613103</ele>
        <time>2026-08-26T08:27:07.921Z</time>
      </trkpt>
      <trkpt lat="52.513192" lon="13.196804">
        <ele>35.620182</ele>
        <time>2026-08-26T08:27:09.713Z</time>
      </trkpt>
      <trkpt lat="52.513236" lon="13.196588">
        <ele>35.630231</ele>
        <time>2026-08-26T08:27:12.294Z</time>
      </trkpt>
      <trkpt lat="52.513162" lon="13.196548">
        <ele>35.635878</ele>
        <time>2026-08-26T08:27:13.792Z</time>
      </trkpt>
      <trkpt lat="52.513065" lon="13.196496">
        <ele>35.643275</ele>
        <time>2026-08-26T08:27:15.716Z</time>
      </trkpt>
      <trkpt lat="52.513004" lon="13.196462">
        <ele>35.647944</ele>
        <time>2026-08-26T08:27:16.965Z</time>
      </trkpt>
      <trkpt lat="52.512954" lon="13.196797">
        <ele>35.663162</ele>
        <time>2026-08-26T08:27:22.154Z</time>
      </trkpt>
      <trkpt lat="52.512926" lon="13.196968">
        <ele>35.670974</ele>
        <time>2026-08-26T08:27:24.242Z</time>
      </trkpt>
      <trkpt lat="52.512890" lon="13.196998">
        <ele>35.673900</ele>
        <time>2026-08-26T08:27:25.040Z</time>
      </trkpt>
      <trkpt lat="52.512703" lon="13.197158">
        <ele>35.642661</ele>
        <time>2026-08-26T08:27:29.297Z</time>
      </trkpt>
      <trkpt lat="52.512554" lon="13.197262">
        <ele>35.556850</ele>
        <time>2026-08-26T08:27:32.412Z</time>
      </trkpt>
      <trkpt lat="52.512283" lon="13.197484">
        <ele>35.396337</ele>
        <time>2026-08-26T08:27:37.880Z</time>
      </trkpt>
      <trkpt lat="52.511797" lon="13.197871">
        <ele>35.110063</ele>
        <time>2026-08-26T08:27:46.787Z</time>
      </trkpt>
      <trkpt lat="52.511758" lon="13.197908">
        <ele>35.086191</ele>
        <time>2026-08-26T08:27:47.629Z</time>
      </trkpt>
      <trkpt lat="52.511738" lon="13.197740">
        <ele>35.030967</ele>
        <time>2026-08-26T08:27:49.312Z</time>
      </trkpt>
      <trkpt lat="52.511758" lon="13.197126">
        <ele>34.832605</ele>
        <time>2026-08-26T08:27:55.381Z</time>
      </trkpt>
      <trkpt lat="52.511774" lon="13.196630">
        <ele>34.624867</ele>
        <time>2026-08-26T08:27:59.975Z</time>
      </trkpt>
      <trkpt lat="52.511802" lon="13.196485">
        <ele>34.535461</ele>
        <time>2026-08-26T08:28:01.344Z</time>
      </trkpt>
      <trkpt lat="52.512006" lon="13.195817">
        <ele>34.096211</ele>
        <time>2026-08-26T08:28:08.013Z</time>
      </trkpt>
      <trkpt lat="52.512053" lon="13.195662">
        <ele>33.994434</ele>
        <time>2026-08-26T08:28:09.613Z</time>
      </trkpt>
      <trkpt lat="52.512177" lon="13.195251">
        <ele>33.724831</ele>
        <time>2026-08-26T08:28:13.937Z</time>
      </trkpt>
      <trkpt lat="52.512213" lon="13.195133">
        <ele>33.647255</ele>
        <time>2026-08-26T08:28:15.213Z</time>
      </trkpt>
      <trkpt lat="52.512319" lon="13.194778">
        <ele>33.414859</ele>
        <time>2026-08-26T08:28:19.245Z</time>
      </trkpt>
      <trkpt lat="52.512363" lon="13.194639">
        <ele>33.322777</ele>
        <time>2026-08-26T08:28:20.933Z</time>
      </trkpt>
      <trkpt lat="52.512374" lon="13.194436">
        <ele>33.203000</ele>
        <time>2026-08-26T08:28:23.028Z</time>
      </trkpt>
      <trkpt lat="52.512449" lon="13.194375">
        <ele>33.122186</ele>
        <time>2026-08-26T08:28:24.506Z</time>
      </trkpt>
      <trkpt lat="52.512482" lon="13.194323">
        <ele>33.078032</ele>
        <time>2026-08-26T08:28:25.286Z</time>
      </trkpt>
      <trkpt lat="52.512563" lon="13.194031">
        <ele>32.925458</ele>
        <time>2026-08-26T08:28:28.533Z</time>
      </trkpt>
      <trkpt lat="52.512835" lon="13.193092">
        <ele>32.526390</ele>
        <time>2026-08-26T08:28:41.962Z</time>
      </trkpt>
      <trkpt lat="52.512759" lon="13.192986">
        <ele>32.463533</ele>
        <time>2026-08-26T08:28:48.933Z</time>
      </trkpt>
      <trkpt lat="52.512542" lon="13.192830">
        <ele>32.314182</ele>
        <time>2026-08-26T08:29:05.393Z</time>
      </trkpt>
      <trkpt lat="52.512442" lon="13.192690">
        <ele>32.231344</ele>
        <time>2026-08-26T08:29:14.502Z</time>
      </trkpt>
      <trkpt lat="52.512281" lon="13.192299">
        <ele>32.050183</ele>
        <time>2026-08-26T08:29:34.498Z</time>
      </trkpt>
      <trkpt lat="52.512217" lon="13.192199">
        <ele>31.994495</ele>
        <time>2026-08-26T08:29:40.612Z</time>
      </trkpt>
      <trkpt lat="52.512244" lon="13.192042">
        <ele>31.931888</ele>
        <time>2026-08-26T08:29:47.495Z</time>
      </trkpt>
      <trkpt lat="52.512190" lon="13.191640">
        <ele>31.769460</ele>
        <time>2026-08-26T08:30:04.919Z</time>
      </trkpt>
      <trkpt lat="52.512170" lon="13.191498">
        <ele>31.710606</ele>
        <time>2026-08-26T08:30:11.077Z</time>
      </trkpt>
      <trkpt lat="52.512101" lon="13.191038">
        <ele>31.519305</ele>
        <time>2026-08-26T08:30:31.106Z</time>
      </trkpt>
      <trkpt lat="52.511984" lon="13.190769">
        <ele>31.385797</ele>
        <time>2026-08-26T08:30:45.118Z</time>
      </trkpt>
      <trkpt lat="52.511942" lon="13.190784">
        <ele>31.357281</ele>
        <time>2026-08-26T08:30:48.129Z</time>
      </trkpt>
      <trkpt lat="52.511763" lon="13.190911">
        <ele>31.227919</ele>
        <time>2026-08-26T08:31:01.657Z</time>
      </trkpt>
      <trkpt lat="52.511626" lon="13.190407">
        <ele>31.005031</ele>
        <time>2026-08-26T08:31:06.895Z</time>
      </trkpt>
      <trkpt lat="52.511468" lon="13.190032">
        <ele>30.820862</ele>
        <time>2026-08-26T08:31:11.223Z</time>
      </trkpt>
      <trkpt lat="52.511287" lon="13.189668">
        <ele>30.729735</ele>
        <time>2026-08-26T08:31:15.972Z</time>
      </trkpt>
      <trkpt lat="52.510932" lon="13.189091">
        <ele>31.340995</ele>
        <time>2026-08-26T08:31:26.335Z</time>
      </trkpt>
      <trkpt lat="52.510751" lon="13.188791">
        <ele>31.655713</ele>
        <time>2026-08-26T08:31:32.231Z</time>
      </trkpt>
      <trkpt lat="52.510702" lon="13.188630">
        <ele>31.789823</ele>
        <time>2026-08-26T08:31:34.813Z</time>
      </trkpt>
      <trkpt lat="52.510700" lon="13.188489">
        <ele>31.894900</ele>
        <time>2026-08-26T08:31:36.815Z</time>
      </trkpt>
      <trkpt lat="52.510507" lon="13.188450">
        <ele>32.132937</ele>
        <time>2026-08-26T08:31:41.404Z</time>
      </trkpt>
      <trkpt lat="52.510276" lon="13.188402">
        <ele>32.417964</ele>
        <time>2026-08-26T08:31:46.902Z</time>
      </trkpt>
      <trkpt lat="52.510049" lon="13.188350">
        <ele>32.698529</ele>
        <time>2026-08-26T08:31:52.431Z</time>
      </trkpt>
      <trkpt lat="52.509412" lon="13.188233">
        <ele>33.613497</ele>
        <time>2026-08-26T08:32:07.035Z</time>
      </trkpt>
      <trkpt lat="52.508037" lon="13.188107">
        <ele>35.713261</ele>
        <time>2026-08-26T08:32:37.100Z</time>
      </trkpt>
      <trkpt lat="52.507892" lon="13.188144">
        <ele>36.033763</ele>
        <time>2026-08-26T08:32:40.485Z</time>
      </trkpt>
      <trkpt lat="52.507619" lon="13.188118">
        <ele>36.631044</ele>
        <time>2026-08-26T08:32:47.183Z</time>
      </trkpt>
      <trkpt lat="52.507159" lon="13.188056">
        <ele>37.639140</ele>
        <time>2026-08-26T08:32:59.546Z</time>
      </trkpt>
      <trkpt lat="52.506977" lon="13.187982">
        <ele>38.048652</ele>
        <time>2026-08-26T08:33:04.839Z</time>
      </trkpt>
      <trkpt lat="52.506774" lon="13.187952">
        <ele>38.493830</ele>
        <time>2026-08-26T08:33:10.557Z</time>
      </trkpt>
      <trkpt lat="52.506222" lon="13.187712">
        <ele>39.318824</ele>
        <time>2026-08-26T08:33:24.693Z</time>
      </trkpt>
      <trkpt lat="52.505911" lon="13.187651">
        <ele>38.960321</ele>
        <time>2026-08-26T08:33:31.267Z</time>
      </trkpt>
      <trkpt lat="52.505754" lon="13.187686">
        <ele>38.778970</ele>
        <time>2026-08-26T08:33:34.142Z</time>
      </trkpt>
      <trkpt lat="52.505431" lon="13.187846">
        <ele>38.392819</ele>
        <time>2026-08-26T08:33:39.271Z</time>
      </trkpt>
      <trkpt lat="52.505115" lon="13.188033">
        <ele>38.008371</ele>
        <time>2026-08-26T08:33:43.800Z</time>
      </trkpt>
      <trkpt lat="52.504842" lon="13.188263">
        <ele>37.657199</ele>
        <time>2026-08-26T08:33:47.766Z</time>
      </trkpt>
      <trkpt lat="52.504496" lon="13.188645">
        <ele>37.133265</ele>
        <time>2026-08-26T08:33:53.117Z</time>
      </trkpt>
      <trkpt lat="52.504436" lon="13.188699">
        <ele>37.038692</ele>
        <time>2026-08-26T08:33:54.008Z</time>
      </trkpt>
      <trkpt lat="52.504301" lon="13.188746">
        <ele>36.847928</ele>
        <time>2026-08-26T08:33:55.837Z</time>
      </trkpt>
      <trkpt lat="52.504112" lon="13.188631">
        <ele>36.569317</ele>
        <time>2026-08-26T08:33:58.595Z</time>
      </trkpt>
      <trkpt lat="52.503962" lon="13.188475">
        <ele>36.323906</ele>
        <time>2026-08-26T08:34:01.103Z</time>
      </trkpt>
      <trkpt lat="52.503591" lon="13.187886">
        <ele>35.610702</ele>
        <time>2026-08-26T08:34:09.016Z</time>
      </trkpt>
      <trkpt lat="52.503312" lon="13.187406">
        <ele>35.052234</ele>
        <time>2026-08-26T08:34:16.524Z</time>
      </trkpt>
      <trkpt lat="52.502756" lon="13.186432">
        <ele>35.382707</ele>
        <time>2026-08-26T08:34:36.721Z</time>
      </trkpt>
      <trkpt lat="52.502127" lon="13.185746">
        <ele>35.871599</ele>
        <time>2026-08-26T08:34:57.073Z</time>
      </trkpt>
      <trkpt lat="52.501647" lon="13.185302">
        <ele>36.108047</ele>
        <time>2026-08-26T08:35:11.131Z</time>
      </trkpt>
      <trkpt lat="52.501547" lon="13.185246">
        <ele>36.119622</ele>
        <time>2026-08-26T08:35:13.131Z</time>
      </trkpt>
      <trkpt lat="52.501507" lon="13.185230">
        <ele>36.124133</ele>
        <time>2026-08-26T08:35:13.912Z</time>
      </trkpt>
      <trkpt lat="52.501184" lon="13.185123">
        <ele>36.160235</ele>
        <time>2026-08-26T08:35:19.965Z</time>
      </trkpt>
      <trkpt lat="52.501106" lon="13.185106">
        <ele>36.168856</ele>
        <time>2026-08-26T08:35:21.373Z</time>
      </trkpt>
      <trkpt lat="52.500810" lon="13.184966">
        <ele>36.202605</ele>
        <time>2026-08-26T08:35:26.584Z</time>
      </trkpt>
      <trkpt lat="52.499846" lon="13.184198">
        <ele>36.378255</ele>
        <time>2026-08-26T08:35:45.026Z</time>
      </trkpt>
      <trkpt lat="52.499805" lon="13.183879">
        <ele>36.432183</ele>
        <time>2026-08-26T08:35:49.443Z</time>
      </trkpt>
      <trkpt lat="52.499918" lon="13.182307">
        <ele>36.694011</ele>
        <time>2026-08-26T08:36:08.864Z</time>
      </trkpt>
      <trkpt lat="52.499832" lon="13.182150">
        <ele>36.728945</ele>
        <time>2026-08-26T08:36:11.182Z</time>
      </trkpt>
      <trkpt lat="52.499768" lon="13.182150">
        <ele>36.746335</ele>
        <time>2026-08-26T08:36:12.283Z</time>
      </trkpt>
      <trkpt lat="52.499497" lon="13.182523">
        <ele>36.519462</ele>
        <time>2026-08-26T08:36:18.035Z</time>
      </trkpt>
      <trkpt lat="52.499400" lon="13.182539">
        <ele>36.428873</ele>
        <time>2026-08-26T08:36:19.525Z</time>
      </trkpt>
      <trkpt lat="52.498796" lon="13.182472">
        <ele>35.866337</ele>
        <time>2026-08-26T08:36:28.267Z</time>
      </trkpt>
      <trkpt lat="52.498648" lon="13.182453">
        <ele>35.728391</ele>
        <time>2026-08-26T08:36:30.322Z</time>
      </trkpt>
      <trkpt lat="52.497799" lon="13.182452">
        <ele>35.072462</ele>
        <time>2026-08-26T08:36:43.800Z</time>
      </trkpt>
      <trkpt lat="52.497059" lon="13.182516">
        <ele>34.961631</ele>
        <time>2026-08-26T08:36:57.363Z</time>
      </trkpt>
      <trkpt lat="52.496892" lon="13.182596">
        <ele>34.935613</ele>
        <time>2026-08-26T08:37:00.600Z</time>
      </trkpt>
      <trkpt lat="52.496831" lon="13.182660">
        <ele>34.924787</ele>
        <time>2026-08-26T08:37:01.910Z</time>
      </trkpt>
      <trkpt lat="52.496626" lon="13.183090">
        <ele>34.875056</ele>
        <time>2026-08-26T08:37:07.847Z</time>
      </trkpt>
      <trkpt lat="52.496573" lon="13.183118">
        <ele>34.866729</ele>
        <time>2026-08-26T08:37:08.858Z</time>
      </trkpt>
      <trkpt lat="52.496109" lon="13.183131">
        <ele>34.776180</ele>
        <time>2026-08-26T08:37:16.570Z</time>
      </trkpt>
      <trkpt lat="52.495954" lon="13.183221">
        <ele>34.735161</ele>
        <time>2026-08-26T08:37:19.233Z</time>
      </trkpt>
      <trkpt lat="52.495799" lon="13.183578">
        <ele>34.668554</ele>
        <time>2026-08-26T08:37:23.625Z</time>
      </trkpt>
      <trkpt lat="52.495577" lon="13.183670">
        <ele>34.611428</ele>
        <time>2026-08-26T08:37:27.591Z</time>
      </trkpt>
      <trkpt lat="52.495323" lon="13.183709">
        <ele>34.547778</ele>
        <time>2026-08-26T08:37:32.004Z</time>
      </trkpt>
      <trkpt lat="52.494537" lon="13.183731">
        <ele>34.419824</ele>
        <time>2026-08-26T08:37:45.347Z</time>
      </trkpt>
      <trkpt lat="52.494284" lon="13.183556">
        <ele>34.514910</ele>
        <time>2026-08-26T08:37:50.266Z</time>
      </trkpt>
      <trkpt lat="52.494099" lon="13.183436">
        <ele>34.583805</ele>
        <time>2026-08-26T08:37:53.957Z</time>
      </trkpt>
      <trkpt lat="52.493884" lon="13.183351">
        <ele>34.660401</ele>
        <time>2026-08-26T08:37:58.024Z</time>
      </trkpt>
      <trkpt lat="52.493500" lon="13.183297">
        <ele>34.793895</ele>
        <time>2026-08-26T08:38:05.098Z</time>
      </trkpt>
      <trkpt lat="52.493142" lon="13.183326">
        <ele>34.918047</ele>
        <time>2026-08-26T08:38:12.327Z</time>
      </trkpt>
      <trkpt lat="52.492594" lon="13.183453">
        <ele>35.181484</ele>
        <time>2026-08-26T08:38:24.322Z</time>
      </trkpt>
      <trkpt lat="52.492420" lon="13.182039">
        <ele>35.690570</ele>
        <time>2026-08-26T08:38:41.369Z</time>
      </trkpt>
      <trkpt lat="52.492252" lon="13.182047">
        <ele>35.787983</ele>
        <time>2026-08-26T08:38:44.651Z</time>
      </trkpt>
      <trkpt lat="52.492039" lon="13.182059">
        <ele>35.911510</ele>
        <time>2026-08-26T08:38:48.934Z</time>
      </trkpt>
      <trkpt lat="52.491847" lon="13.182075">
        <ele>36.022936</ele>
        <time>2026-08-26T08:38:52.686Z</time>
      </trkpt>
      <trkpt lat="52.491547" lon="13.182092">
        <ele>36.100697</ele>
        <time>2026-08-26T08:38:58.156Z</time>
      </trkpt>
      <trkpt lat="52.491479" lon="13.181090">
        <ele>36.230130</ele>
        <time>2026-08-26T08:39:08.812Z</time>
      </trkpt>
      <trkpt lat="52.491414" lon="13.181102">
        <ele>36.243921</ele>
        <time>2026-08-26T08:39:10.412Z</time>
      </trkpt>
      <trkpt lat="52.491017" lon="13.180851">
        <ele>36.333615</ele>
        <time>2026-08-26T08:39:21.062Z</time>
      </trkpt>
      <trkpt lat="52.490290" lon="13.180392">
        <ele>36.414105</ele>
        <time>2026-08-26T08:39:40.062Z</time>
      </trkpt>
      <trkpt lat="52.490279" lon="13.180303">
        <ele>36.412376</ele>
        <time>2026-08-26T08:39:40.985Z</time>
      </trkpt>
      <trkpt lat="52.490174" lon="13.180306">
        <ele>36.409094</ele>
        <time>2026-08-26T08:39:42.766Z</time>
      </trkpt>
      <trkpt lat="52.490098" lon="13.180307">
        <ele>36.406718</ele>
        <time>2026-08-26T08:39:44.024Z</time>
      </trkpt>
      <trkpt lat="52.489885" lon="13.180312">
        <ele>36.400060</ele>
        <time>2026-08-26T08:39:47.572Z</time>
      </trkpt>
      <trkpt lat="52.489622" lon="13.180334">
        <ele>36.391829</ele>
        <time>2026-08-26T08:39:51.922Z</time>
      </trkpt>
      <trkpt lat="52.489601" lon="13.180339">
        <ele>36.391166</ele>
        <time>2026-08-26T08:39:52.294Z</time>
      </trkpt>
      <trkpt lat="52.489426" lon="13.180370">
        <ele>36.385664</ele>
        <time>2026-08-26T08:39:55.279Z</time>
      </trkpt>
      <trkpt lat="52.489207" lon="13.180463">
        <ele>36.378594</ele>
        <time>2026-08-26T08:39:59.195Z</time>
      </trkpt>
      <trkpt lat="52.489025" lon="13.180572">
        <ele>36.372539</ele>
        <time>2026-08-26T08:40:02.645Z</time>
      </trkpt>
      <trkpt lat="52.488827" lon="13.180692">
        <ele>36.464048</ele>
        <time>2026-08-26T08:40:06.503Z</time>
      </trkpt>
      <trkpt lat="52.488761" lon="13.180736">
        <ele>36.541142</ele>
        <time>2026-08-26T08:40:07.817Z</time>
      </trkpt>
      <trkpt lat="52.488262" lon="13.181088">
        <ele>37.128927</ele>
        <time>2026-08-26T08:40:18.685Z</time>
      </trkpt>
      <trkpt lat="52.487371" lon="13.181766">
        <ele>38.191755</ele>
        <time>2026-08-26T08:40:41.345Z</time>
      </trkpt>
      <trkpt lat="52.486954" lon="13.182085">
        <ele>38.530865</ele>
        <time>2026-08-26T08:40:51.457Z</time>
      </trkpt>
      <trkpt lat="52.486595" lon="13.182332">
        <ele>38.773417</ele>
        <time>2026-08-26T08:40:59.270Z</time>
      </trkpt>
      <trkpt lat="52.486587" lon="13.182275">
        <ele>38.795614</ele>
        <time>2026-08-26T08:41:01.782Z</time>
      </trkpt>
      <trkpt lat="52.486245" lon="13.182443">
        <ele>39.018062</ele>
        <time>2026-08-26T08:41:10.798Z</time>
      </trkpt>
      <trkpt lat="52.486112" lon="13.182512">
        <ele>39.104978</ele>
        <time>2026-08-26T08:41:14.319Z</time>
      </trkpt>
      <trkpt lat="52.486052" lon="13.182554">
        <ele>39.145622</ele>
        <time>2026-08-26T08:41:15.917Z</time>
      </trkpt>
      <trkpt lat="52.485768" lon="13.182733">
        <ele>39.335185</ele>
        <time>2026-08-26T08:41:23.347Z</time>
      </trkpt>
      <trkpt lat="52.485649" lon="13.182805">
        <ele>39.414213</ele>
        <time>2026-08-26T08:41:26.352Z</time>
      </trkpt>
      <trkpt lat="52.485184" lon="13.183114">
        <ele>39.139641</ele>
        <time>2026-08-26T08:41:37.575Z</time>
      </trkpt>
      <trkpt lat="52.485081" lon="13.183146">
        <ele>39.072978</ele>
        <time>2026-08-26T08:41:39.853Z</time>
      </trkpt>
      <trkpt lat="52.485100" lon="13.183238">
        <ele>39.035357</ele>
        <time>2026-08-26T08:41:41.147Z</time>
      </trkpt>
      <trkpt lat="52.484961" lon="13.183264">
        <ele>38.946390</ele>
        <time>2026-08-26T08:41:43.418Z</time>
      </trkpt>
      <trkpt lat="52.484479" lon="13.183313">
        <ele>38.639284</ele>
        <time>2026-08-26T08:41:51.214Z</time>
      </trkpt>
      <trkpt lat="52.484083" lon="13.183246">
        <ele>38.386121</ele>
        <time>2026-08-26T08:41:57.268Z</time>
      </trkpt>
      <trkpt lat="52.483700" lon="13.183091">
        <ele>38.154772</ele>
        <time>2026-08-26T08:42:03.166Z</time>
      </trkpt>
      <trkpt lat="52.483375" lon="13.182863">
        <ele>37.957918</ele>
        <time>2026-08-26T08:42:08.682Z</time>
      </trkpt>
      <trkpt lat="52.483144" lon="13.182670">
        <ele>37.813553</ele>
        <time>2026-08-26T08:42:12.865Z</time>
      </trkpt>
      <trkpt lat="52.483100" lon="13.182631">
        <ele>37.785702</ele>
        <time>2026-08-26T08:42:13.678Z</time>
      </trkpt>
      <trkpt lat="52.482808" lon="13.182392">
        <ele>37.603972</ele>
        <time>2026-08-26T08:42:19.043Z</time>
      </trkpt>
      <trkpt lat="52.482712" lon="13.182312">
        <ele>37.544008</ele>
        <time>2026-08-26T08:42:20.841Z</time>
      </trkpt>
      <trkpt lat="52.482430" lon="13.182079">
        <ele>37.368170</ele>
        <time>2026-08-26T08:42:26.279Z</time>
      </trkpt>
      <trkpt lat="52.482172" lon="13.181869">
        <ele>37.315709</ele>
        <time>2026-08-26T08:42:31.559Z</time>
      </trkpt>
      <trkpt lat="52.481968" lon="13.181702">
        <ele>37.354321</ele>
        <time>2026-08-26T08:42:35.938Z</time>
      </trkpt>
      <trkpt lat="52.481685" lon="13.181471">
        <ele>37.407854</ele>
        <time>2026-08-26T08:42:41.893Z</time>
      </trkpt>
      <trkpt lat="52.481377" lon="13.181216">
        <ele>37.466282</ele>
        <time>2026-08-26T08:42:48.137Z</time>
      </trkpt>
      <trkpt lat="52.481063" lon="13.180968">
        <ele>37.525303</ele>
        <time>2026-08-26T08:42:54.518Z</time>
      </trkpt>
      <trkpt lat="52.480526" lon="13.180528">
        <ele>37.516550</ele>
        <time>2026-08-26T08:43:05.591Z</time>
      </trkpt>
      <trkpt lat="52.480156" lon="13.180223">
        <ele>37.342825</ele>
        <time>2026-08-26T08:43:12.951Z</time>
      </trkpt>
      <trkpt lat="52.479875" lon="13.179998">
        <ele>37.211640</ele>
        <time>2026-08-26T08:43:18.187Z</time>
      </trkpt>
      <trkpt lat="52.479612" lon="13.179788">
        <ele>37.088923</ele>
        <time>2026-08-26T08:43:23.074Z</time>
      </trkpt>
      <trkpt lat="52.479171" lon="13.179416">
        <ele>36.880880</ele>
        <time>2026-08-26T08:43:31.022Z</time>
      </trkpt>
      <trkpt lat="52.478861" lon="13.179170">
        <ele>36.469817</ele>
        <time>2026-08-26T08:43:36.236Z</time>
      </trkpt>
      <trkpt lat="52.478824" lon="13.179293">
        <ele>36.344945</ele>
        <time>2026-08-26T08:43:37.966Z</time>
      </trkpt>
      <trkpt lat="52.478834" lon="13.181233">
        <ele>34.578996</ele>
        <time>2026-08-26T08:44:08.486Z</time>
      </trkpt>
      <trkpt lat="52.478840" lon="13.182467">
        <ele>33.486600</ele>
        <time>2026-08-26T08:44:27.524Z</time>
      </trkpt>
      <trkpt lat="52.478844" lon="13.183161">
        <ele>32.882869</ele>
        <time>2026-08-26T08:44:35.908Z</time>
      </trkpt>
      <trkpt lat="52.478802" lon="13.183223">
        <ele>32.802202</ele>
        <time>2026-08-26T08:44:37.036Z</time>
      </trkpt>
      <trkpt lat="52.478720" lon="13.183244">
        <ele>32.683668</ele>
        <time>2026-08-26T08:44:38.674Z</time>
      </trkpt>
      <trkpt lat="52.478543" lon="13.183240">
        <ele>32.430842</ele>
        <time>2026-08-26T08:44:41.399Z</time>
      </trkpt>
      <trkpt lat="52.478325" lon="13.183137">
        <ele>32.106845</ele>
        <time>2026-08-26T08:44:44.929Z</time>
      </trkpt>
      <trkpt lat="52.478190" lon="13.183116">
        <ele>31.913166</ele>
        <time>2026-08-26T08:44:46.956Z</time>
      </trkpt>
      <trkpt lat="52.477688" lon="13.183133">
        <ele>31.565012</ele>
        <time>2026-08-26T08:44:54.933Z</time>
      </trkpt>
      <trkpt lat="52.477322" lon="13.183144">
        <ele>31.540180</ele>
        <time>2026-08-26T08:45:01.300Z</time>
      </trkpt>
      <trkpt lat="52.477083" lon="13.183061">
        <ele>31.523609</ele>
        <time>2026-08-26T08:45:05.598Z</time>
      </trkpt>
      <trkpt lat="52.476956" lon="13.183058">
        <ele>31.514993</ele>
        <time>2026-08-26T08:45:07.839Z</time>
      </trkpt>
      <trkpt lat="52.476485" lon="13.183070">
        <ele>31.483040</ele>
        <time>2026-08-26T08:45:16.360Z</time>
      </trkpt>
      <trkpt lat="52.476099" lon="13.183126">
        <ele>31.523098</ele>
        <time>2026-08-26T08:45:23.895Z</time>
      </trkpt>
      <trkpt lat="52.475946" lon="13.183261">
        <ele>31.679525</ele>
        <time>2026-08-26T08:45:27.405Z</time>
      </trkpt>
      <trkpt lat="52.475793" lon="13.183601">
        <ele>31.911407</ele>
        <time>2026-08-26T08:45:32.672Z</time>
      </trkpt>
      <trkpt lat="52.475714" lon="13.183675">
        <ele>31.993318</ele>
        <time>2026-08-26T08:45:34.526Z</time>
      </trkpt>
      <trkpt lat="52.475676" lon="13.183669">
        <ele>32.027698</ele>
        <time>2026-08-26T08:45:35.310Z</time>
      </trkpt>
      <trkpt lat="52.475337" lon="13.183515">
        <ele>32.344466</ele>
        <time>2026-08-26T08:45:42.496Z</time>
      </trkpt>
      <trkpt lat="52.475231" lon="13.183431">
        <ele>32.450466</ele>
        <time>2026-08-26T08:45:44.909Z</time>
      </trkpt>
      <trkpt lat="52.475157" lon="13.183417">
        <ele>32.517550</ele>
        <time>2026-08-26T08:45:46.441Z</time>
      </trkpt>
      <trkpt lat="52.475029" lon="13.183392">
        <ele>32.633637</ele>
        <time>2026-08-26T08:45:49.097Z</time>
      </trkpt>
      <trkpt lat="52.474545" lon="13.183461">
        <ele>33.071157</ele>
        <time>2026-08-26T08:45:59.555Z</time>
      </trkpt>
      <trkpt lat="52.474036" lon="13.183678">
        <ele>33.544768</ele>
        <time>2026-08-26T08:46:11.561Z</time>
      </trkpt>
      <trkpt lat="52.473706" lon="13.183730">
        <ele>33.843332</ele>
        <time>2026-08-26T08:46:18.687Z</time>
      </trkpt>
      <trkpt lat="52.472948" lon="13.183676">
        <ele>34.526631</ele>
        <time>2026-08-26T08:46:33.907Z</time>
      </trkpt>
      <trkpt lat="52.472500" lon="13.183765">
        <ele>34.715435</ele>
        <time>2026-08-26T08:46:42.436Z</time>
      </trkpt>
      <trkpt lat="52.472372" lon="13.183740">
        <ele>34.722617</ele>
        <time>2026-08-26T08:46:44.760Z</time>
      </trkpt>
      <trkpt lat="52.472198" lon="13.183643">
        <ele>34.732856</ele>
        <time>2026-08-26T08:46:47.959Z</time>
      </trkpt>
      <trkpt lat="52.470917" lon="13.182531">
        <ele>34.811999</ele>
        <time>2026-08-26T08:47:13.314Z</time>
      </trkpt>
      <trkpt lat="52.470114" lon="13.181658">
        <ele>34.858685</ele>
        <time>2026-08-26T08:47:31.595Z</time>
      </trkpt>
      <trkpt lat="52.469885" lon="13.181302">
        <ele>34.873973</ele>
        <time>2026-08-26T08:47:37.116Z</time>
      </trkpt>
      <trkpt lat="52.469490" lon="13.180870">
        <ele>34.837892</ele>
        <time>2026-08-26T08:47:45.080Z</time>
      </trkpt>
      <trkpt lat="52.469147" lon="13.180689">
        <ele>34.733824</ele>
        <time>2026-08-26T08:47:50.900Z</time>
      </trkpt>
      <trkpt lat="52.468968" lon="13.180639">
        <ele>34.681377</ele>
        <time>2026-08-26T08:47:53.758Z</time>
      </trkpt>
      <trkpt lat="52.468130" lon="13.180571">
        <ele>34.439027</ele>
        <time>2026-08-26T08:48:07.469Z</time>
      </trkpt>
      <trkpt lat="52.467987" lon="13.180478">
        <ele>34.394599</ele>
        <time>2026-08-26T08:48:10.289Z</time>
      </trkpt>
      <trkpt lat="52.466900" lon="13.179364">
        <ele>34.890014</ele>
        <time>2026-08-26T08:48:36.218Z</time>
      </trkpt>
      <trkpt lat="52.466837" lon="13.179315">
        <ele>34.920471</ele>
        <time>2026-08-26T08:48:37.667Z</time>
      </trkpt>
      <trkpt lat="52.466769" lon="13.179295">
        <ele>34.950651</ele>
        <time>2026-08-26T08:48:39.002Z</time>
      </trkpt>
      <trkpt lat="52.466088" lon="13.179055">
        <ele>35.003761</ele>
        <time>2026-08-26T08:48:51.842Z</time>
      </trkpt>
      <trkpt lat="52.465792" lon="13.179020">
        <ele>34.808413</ele>
        <time>2026-08-26T08:48:56.765Z</time>
      </trkpt>
      <trkpt lat="52.465430" lon="13.179028">
        <ele>34.570104</ele>
        <time>2026-08-26T08:49:02.450Z</time>
      </trkpt>
      <trkpt lat="52.464966" lon="13.178824">
        <ele>34.253908</ele>
        <time>2026-08-26T08:49:09.769Z</time>
      </trkpt>
      <trkpt lat="52.464794" lon="13.178703">
        <ele>34.130728</ele>
        <time>2026-08-26T08:49:12.626Z</time>
      </trkpt>
      <trkpt lat="52.464394" lon="13.178438">
        <ele>33.865764</ele>
        <time>2026-08-26T08:49:19.365Z</time>
      </trkpt>
      <trkpt lat="52.464162" lon="13.178201">
        <ele>33.713416</ele>
        <time>2026-08-26T08:49:23.760Z</time>
      </trkpt>
      <trkpt lat="52.463644" lon="13.177032">
        <ele>33.222431</ele>
        <time>2026-08-26T08:49:38.179Z</time>
      </trkpt>
      <trkpt lat="52.463318" lon="13.176275">
        <ele>32.953261</ele>
        <time>2026-08-26T08:49:47.730Z</time>
      </trkpt>
      <trkpt lat="52.463283" lon="13.176163">
        <ele>32.942826</ele>
        <time>2026-08-26T08:49:49.025Z</time>
      </trkpt>
      <trkpt lat="52.463026" lon="13.175194">
        <ele>32.855214</ele>
        <time>2026-08-26T08:49:59.989Z</time>
      </trkpt>
      <trkpt lat="52.462554" lon="13.173250">
        <ele>32.868633</ele>
        <time>2026-08-26T08:50:22.530Z</time>
      </trkpt>
      <trkpt lat="52.462306" lon="13.171929">
        <ele>33.269431</ele>
        <time>2026-08-26T08:50:38.174Z</time>
      </trkpt>
      <trkpt lat="52.462251" lon="13.171636">
        <ele>33.358328</ele>
        <time>2026-08-26T08:50:41.914Z</time>
      </trkpt>
      <trkpt lat="52.462246" lon="13.171397">
        <ele>33.427668</ele>
        <time>2026-08-26T08:50:44.866Z</time>
      </trkpt>
      <trkpt lat="52.462202" lon="13.171205">
        <ele>33.487147</ele>
        <time>2026-08-26T08:50:47.418Z</time>
      </trkpt>
      <trkpt lat="52.461967" lon="13.170616">
        <ele>33.811577</ele>
        <time>2026-08-26T08:50:56.731Z</time>
      </trkpt>
      <trkpt lat="52.461877" lon="13.170317">
        <ele>34.012093</ele>
        <time>2026-08-26T08:51:01.327Z</time>
      </trkpt>
      <trkpt lat="52.461843" lon="13.170205">
        <ele>34.087329</ele>
        <time>2026-08-26T08:51:03.073Z</time>
      </trkpt>
      <trkpt lat="52.461763" lon="13.170010">
        <ele>34.228675</ele>
        <time>2026-08-26T08:51:06.291Z</time>
      </trkpt>
      <trkpt lat="52.461613" lon="13.169575">
        <ele>34.529203</ele>
        <time>2026-08-26T08:51:12.889Z</time>
      </trkpt>
      <trkpt lat="52.461533" lon="13.169257">
        <ele>34.736060</ele>
        <time>2026-08-26T08:51:17.402Z</time>
      </trkpt>
      <trkpt lat="52.461484" lon="13.168728">
        <ele>35.057780</ele>
        <time>2026-08-26T08:51:24.326Z</time>
      </trkpt>
      <trkpt lat="52.460954" lon="13.166105">
        <ele>35.426991</ele>
        <time>2026-08-26T08:51:55.411Z</time>
      </trkpt>
      <trkpt lat="52.460864" lon="13.165660">
        <ele>35.442028</ele>
        <time>2026-08-26T08:52:00.079Z</time>
      </trkpt>
      <trkpt lat="52.460614" lon="13.164630">
        <ele>35.232638</ele>
        <time>2026-08-26T08:52:11.158Z</time>
      </trkpt>
      <trkpt lat="52.460171" lon="13.163805">
        <ele>34.967324</ele>
        <time>2026-08-26T08:52:22.102Z</time>
      </trkpt>
      <trkpt lat="52.459922" lon="13.163424">
        <ele>34.832521</ele>
        <time>2026-08-26T08:52:27.452Z</time>
      </trkpt>
      <trkpt lat="52.459589" lon="13.163355">
        <ele>34.840319</ele>
        <time>2026-08-26T08:52:33.185Z</time>
      </trkpt>
      <trkpt lat="52.459428" lon="13.163137">
        <ele>35.071853</ele>
        <time>2026-08-26T08:52:37.053Z</time>
      </trkpt>
      <trkpt lat="52.459389" lon="13.163094">
        <ele>35.123972</ele>
        <time>2026-08-26T08:52:38.043Z</time>
      </trkpt>
      <trkpt lat="52.459337" lon="13.163048">
        <ele>35.189501</ele>
        <time>2026-08-26T08:52:39.961Z</time>
      </trkpt>
      <trkpt lat="52.459167" lon="13.162843">
        <ele>35.423513</ele>
        <time>2026-08-26T08:52:44.953Z</time>
      </trkpt>
      <trkpt lat="52.458927" lon="13.162201">
        <ele>35.932612</ele>
        <time>2026-08-26T08:52:55.713Z</time>
      </trkpt>
      <trkpt lat="52.458824" lon="13.162076">
        <ele>36.074714</ele>
        <time>2026-08-26T08:52:58.842Z</time>
      </trkpt>
      <trkpt lat="52.458732" lon="13.161899">
        <ele>36.231967</ele>
        <time>2026-08-26T08:53:02.351Z</time>
      </trkpt>
      <trkpt lat="52.458649" lon="13.161708">
        <ele>36.390537</ele>
        <time>2026-08-26T08:53:05.861Z</time>
      </trkpt>
      <trkpt lat="52.458325" lon="13.161261">
        <ele>36.832598</ele>
        <time>2026-08-26T08:53:17.007Z</time>
      </trkpt>
      <trkpt lat="52.458076" lon="13.161036">
        <ele>37.080358</ele>
        <time>2026-08-26T08:53:24.778Z</time>
      </trkpt>
      <trkpt lat="52.457773" lon="13.160626">
        <ele>37.422658</ele>
        <time>2026-08-26T08:53:34.836Z</time>
      </trkpt>
      <trkpt lat="52.457619" lon="13.160328">
        <ele>37.630189</ele>
        <time>2026-08-26T08:53:40.266Z</time>
      </trkpt>
      <trkpt lat="52.457512" lon="13.159608">
        <ele>38.023807</ele>
        <time>2026-08-26T08:53:49.627Z</time>
      </trkpt>
      <trkpt lat="52.457452" lon="13.159060">
        <ele>38.274042</ele>
        <time>2026-08-26T08:53:55.979Z</time>
      </trkpt>
      <trkpt lat="52.457386" lon="13.159179">
        <ele>38.164567</ele>
        <time>2026-08-26T08:53:57.763Z</time>
      </trkpt>
      <trkpt lat="52.457172" lon="13.159232">
        <ele>37.922928</ele>
        <time>2026-08-26T08:54:01.502Z</time>
      </trkpt>
      <trkpt lat="52.457161" lon="13.159235">
        <ele>37.910478</ele>
        <time>2026-08-26T08:54:01.679Z</time>
      </trkpt>
      <trkpt lat="52.457112" lon="13.159250">
        <ele>37.854825</ele>
        <time>2026-08-26T08:54:05.152Z</time>
      </trkpt>
      <trkpt lat="52.457161" lon="13.159235">
        <ele>37.799173</ele>
        <time>2026-08-26T08:54:08.624Z</time>
      </trkpt>
      <trkpt lat="52.457110" lon="13.159117">
        <ele>37.700748</ele>
        <time>2026-08-26T08:54:09.911Z</time>
      </trkpt>
      <trkpt lat="52.457124" lon="13.159038">
        <ele>37.644773</ele>
        <time>2026-08-26T08:54:10.695Z</time>
      </trkpt>
      <trkpt lat="52.457176" lon="13.158988">
        <ele>37.577483</ele>
        <time>2026-08-26T08:54:11.569Z</time>
      </trkpt>
      <trkpt lat="52.457256" lon="13.158979">
        <ele>37.487952</ele>
        <time>2026-08-26T08:54:12.772Z</time>
      </trkpt>
      <trkpt lat="52.456614" lon="13.157918">
        <ele>36.470664</ele>
        <time>2026-08-26T08:55:16.088Z</time>
      </trkpt>
      <trkpt lat="52.456406" lon="13.157584">
        <ele>36.337588</ele>
        <time>2026-08-26T08:55:36.331Z</time>
      </trkpt>
      <trkpt lat="52.456277" lon="13.157377">
        <ele>36.401499</ele>
        <time>2026-08-26T08:55:48.855Z</time>
      </trkpt>
      <trkpt lat="52.456031" lon="13.156800">
        <ele>36.553506</ele>
        <time>2026-08-26T08:56:18.686Z</time>
      </trkpt>
      <trkpt lat="52.455945" lon="13.156598">
        <ele>36.606697</ele>
        <time>2026-08-26T08:56:29.126Z</time>
      </trkpt>
      <trkpt lat="52.455770" lon="13.156187">
        <ele>36.714926</ele>
        <time>2026-08-26T08:56:50.380Z</time>
      </trkpt>
      <trkpt lat="52.455508" lon="13.155578">
        <ele>36.875845</ele>
        <time>2026-08-26T08:57:21.914Z</time>
      </trkpt>
      <trkpt lat="52.455098" lon="13.154616">
        <ele>37.140767</ele>
        <time>2026-08-26T08:57:34.718Z</time>
      </trkpt>
      <trkpt lat="52.454804" lon="13.153927">
        <ele>37.332749</ele>
        <time>2026-08-26T08:57:44.087Z</time>
      </trkpt>
      <trkpt lat="52.454565" lon="13.153393">
        <ele>37.483974</ele>
        <time>2026-08-26T08:57:51.903Z</time>
      </trkpt>
      <trkpt lat="52.454256" lon="13.152672">
        <ele>37.505364</ele>
        <time>2026-08-26T08:58:02.562Z</time>
      </trkpt>
      <trkpt lat="52.454186" lon="13.152508">
        <ele>37.452019</ele>
        <time>2026-08-26T08:58:05.074Z</time>
      </trkpt>
      <trkpt lat="52.453729" lon="13.151448">
        <ele>37.106082</ele>
        <time>2026-08-26T08:58:20.744Z</time>
      </trkpt>
      <trkpt lat="52.453682" lon="13.151337">
        <ele>37.070071</ele>
        <time>2026-08-26T08:58:22.063Z</time>
      </trkpt>
      <trkpt lat="52.453557" lon="13.151049">
        <ele>36.975869</ele>
        <time>2026-08-26T08:58:25.268Z</time>
      </trkpt>
      <trkpt lat="52.453225" lon="13.150278">
        <ele>36.211336</ele>
        <time>2026-08-26T08:58:33.171Z</time>
      </trkpt>
      <trkpt lat="52.453013" lon="13.149784">
        <ele>35.147873</ele>
        <time>2026-08-26T08:58:37.871Z</time>
      </trkpt>
      <trkpt lat="52.452953" lon="13.149649">
        <ele>34.853776</ele>
        <time>2026-08-26T08:58:39.154Z</time>
      </trkpt>
      <trkpt lat="52.452844" lon="13.149398">
        <ele>34.311289</ele>
        <time>2026-08-26T08:58:41.527Z</time>
      </trkpt>
      <trkpt lat="52.452743" lon="13.149164">
        <ele>33.806576</ele>
        <time>2026-08-26T08:58:43.743Z</time>
      </trkpt>
      <trkpt lat="52.452719" lon="13.149024">
        <ele>33.550593</ele>
        <time>2026-08-26T08:58:44.883Z</time>
      </trkpt>
      <trkpt lat="52.452595" lon="13.148840">
        <ele>33.067731</ele>
        <time>2026-08-26T08:58:47.020Z</time>
      </trkpt>
      <trkpt lat="52.452332" lon="13.148592">
        <ele>32.191631</ele>
        <time>2026-08-26T08:58:50.978Z</time>
      </trkpt>
      <trkpt lat="52.452262" lon="13.148527">
        <ele>31.959327</ele>
        <time>2026-08-26T08:58:52.061Z</time>
      </trkpt>
      <trkpt lat="52.451881" lon="13.148168">
        <ele>31.651064</ele>
        <time>2026-08-26T08:58:58.442Z</time>
      </trkpt>
      <trkpt lat="52.451558" lon="13.147862">
        <ele>31.685943</ele>
        <time>2026-08-26T08:59:04.779Z</time>
      </trkpt>
      <trkpt lat="52.451380" lon="13.147690">
        <ele>31.705260</ele>
        <time>2026-08-26T08:59:08.862Z</time>
      </trkpt>
      <trkpt lat="52.450900" lon="13.147216">
        <ele>31.757649</ele>
        <time>2026-08-26T08:59:20.910Z</time>
      </trkpt>
      <trkpt lat="52.450860" lon="13.147166">
        <ele>31.762351</ele>
        <time>2026-08-26T08:59:22.044Z</time>
      </trkpt>
      <trkpt lat="52.450635" lon="13.146941">
        <ele>31.786992</ele>
        <time>2026-08-26T08:59:30.946Z</time>
      </trkpt>
      <trkpt lat="52.450139" lon="13.146543">
        <ele>31.946830</ele>
        <time>2026-08-26T08:59:49.499Z</time>
      </trkpt>
      <trkpt lat="52.449342" lon="13.146065">
        <ele>32.199687</ele>
        <time>2026-08-26T09:00:15.020Z</time>
      </trkpt>
      <trkpt lat="52.448307" lon="13.145519">
        <ele>31.989287</ele>
        <time>2026-08-26T09:00:45.672Z</time>
      </trkpt>
      <trkpt lat="52.447159" lon="13.144648">
        <ele>31.403516</ele>
        <time>2026-08-26T09:01:21.063Z</time>
      </trkpt>
      <trkpt lat="52.446824" lon="13.144347">
        <ele>31.359917</ele>
        <time>2026-08-26T09:01:32.030Z</time>
      </trkpt>
      <trkpt lat="52.446681" lon="13.144079">
        <ele>31.335135</ele>
        <time>2026-08-26T09:01:38.355Z</time>
      </trkpt>
      <trkpt lat="52.446497" lon="13.143587">
        <ele>31.294974</ele>
        <time>2026-08-26T09:01:48.824Z</time>
      </trkpt>
      <trkpt lat="52.446369" lon="13.143036">
        <ele>31.253948</ele>
        <time>2026-08-26T09:01:59.770Z</time>
      </trkpt>
      <trkpt lat="52.446319" lon="13.142683">
        <ele>31.228734</ele>
        <time>2026-08-26T09:02:06.403Z</time>
      </trkpt>
      <trkpt lat="52.446319" lon="13.142014">
        <ele>31.156645</ele>
        <time>2026-08-26T09:02:18.451Z</time>
      </trkpt>
      <trkpt lat="52.446344" lon="13.141780">
        <ele>31.126556</ele>
        <time>2026-08-26T09:02:22.703Z</time>
      </trkpt>
      <trkpt lat="52.446340" lon="13.138008">
        <ele>31.079440</ele>
        <time>2026-08-26T09:03:28.885Z</time>
      </trkpt>
      <trkpt lat="52.446386" lon="13.137509">
        <ele>31.159819</ele>
        <time>2026-08-26T09:03:38.310Z</time>
      </trkpt>
      <trkpt lat="52.446787" lon="13.135641">
        <ele>32.212992</ele>
        <time>2026-08-26T09:04:18.005Z</time>
      </trkpt>
      <trkpt lat="52.447206" lon="13.135389">
        <ele>32.848879</ele>
        <time>2026-08-26T09:04:34.096Z</time>
      </trkpt>
      <trkpt lat="52.447112" lon="13.135085">
        <ele>33.144927</ele>
        <time>2026-08-26T09:04:38.793Z</time>
      </trkpt>
      <trkpt lat="52.447022" lon="13.134583">
        <ele>33.599371</ele>
        <time>2026-08-26T09:04:45.692Z</time>
      </trkpt>
      <trkpt lat="52.447001" lon="13.134470">
        <ele>33.701969</ele>
        <time>2026-08-26T09:04:47.254Z</time>
      </trkpt>
      <trkpt lat="52.446887" lon="13.134006">
        <ele>34.519134</ele>
        <time>2026-08-26T09:04:53.916Z</time>
      </trkpt>
      <trkpt lat="52.446845" lon="13.133885">
        <ele>34.815380</ele>
        <time>2026-08-26T09:04:55.811Z</time>
      </trkpt>
      <trkpt lat="52.446658" lon="13.133509">
        <ele>35.847842</ele>
        <time>2026-08-26T09:05:03.134Z</time>
      </trkpt>
      <trkpt lat="52.446569" lon="13.133324">
        <ele>36.349264</ele>
        <time>2026-08-26T09:05:07.244Z</time>
      </trkpt>
      <trkpt lat="52.446500" lon="13.133186">
        <ele>36.729011</ele>
        <time>2026-08-26T09:05:10.504Z</time>
      </trkpt>
      <trkpt lat="52.446486" lon="13.133159">
        <ele>36.804429</ele>
        <time>2026-08-26T09:05:11.138Z</time>
      </trkpt>
      <trkpt lat="52.446355" lon="13.132898">
        <ele>37.523757</ele>
        <time>2026-08-26T09:05:17.746Z</time>
      </trkpt>
      <trkpt lat="52.446344" lon="13.132856">
        <ele>37.621013</ele>
        <time>2026-08-26T09:05:18.669Z</time>
      </trkpt>
      <trkpt lat="52.446270" lon="13.132699">
        <ele>38.043258</ele>
        <time>2026-08-26T09:05:22.582Z</time>
      </trkpt>
      <trkpt lat="52.446087" lon="13.132351">
        <ele>39.021114</ele>
        <time>2026-08-26T09:05:31.315Z</time>
      </trkpt>
      <trkpt lat="52.445981" lon="13.132144">
        <ele>39.596314</ele>
        <time>2026-08-26T09:05:36.592Z</time>
      </trkpt>
      <trkpt lat="52.445815" lon="13.131806">
        <ele>40.548634</ele>
        <time>2026-08-26T09:05:45.454Z</time>
      </trkpt>
      <trkpt lat="52.445600" lon="13.131369">
        <ele>41.836758</ele>
        <time>2026-08-26T09:05:57.641Z</time>
      </trkpt>
      <trkpt lat="52.445555" lon="13.131265">
        <ele>42.129296</ele>
        <time>2026-08-26T09:06:00.303Z</time>
      </trkpt>
      <trkpt lat="52.445467" lon="13.130941">
        <ele>42.942890</ele>
        <time>2026-08-26T09:06:07.745Z</time>
      </trkpt>
      <trkpt lat="52.445362" lon="13.130447">
        <ele>44.142887</ele>
        <time>2026-08-26T09:06:17.785Z</time>
      </trkpt>
      <trkpt lat="52.445308" lon="13.130103">
        <ele>44.957662</ele>
        <time>2026-08-26T09:06:23.910Z</time>
      </trkpt>
      <trkpt lat="52.445276" lon="13.129960">
        <ele>45.307066</ele>
        <time>2026-08-26T09:06:26.487Z</time>
      </trkpt>
      <trkpt lat="52.445149" lon="13.129399">
        <ele>46.679712</ele>
        <time>2026-08-26T09:06:35.456Z</time>
      </trkpt>
      <trkpt lat="52.445111" lon="13.129215">
        <ele>46.950394</ele>
        <time>2026-08-26T09:06:38.046Z</time>
      </trkpt>
      <trkpt lat="52.445001" lon="13.128686">
        <ele>47.143946</ele>
        <time>2026-08-26T09:06:45.934Z</time>
      </trkpt>
      <trkpt lat="52.444799" lon="13.128239">
        <ele>47.336640</ele>
        <time>2026-08-26T09:06:53.072Z</time>
      </trkpt>
      <trkpt lat="52.444639" lon="13.127928">
        <ele>47.477570</ele>
        <time>2026-08-26T09:06:57.558Z</time>
      </trkpt>
      <trkpt lat="52.444619" lon="13.127890">
        <ele>47.494956</ele>
        <time>2026-08-26T09:06:58.188Z</time>
      </trkpt>
      <trkpt lat="52.444530" lon="13.127986">
        <ele>47.555469</ele>
        <time>2026-08-26T09:07:00.563Z</time>
      </trkpt>
      <trkpt lat="52.444619" lon="13.127890">
        <ele>47.615982</ele>
        <time>2026-08-26T09:07:03.045Z</time>
      </trkpt>
      <trkpt lat="52.444538" lon="13.127731">
        <ele>47.687741</ele>
        <time>2026-08-26T09:07:05.198Z</time>
      </trkpt>
      <trkpt lat="52.444343" lon="13.127353">
        <ele>47.859228</ele>
        <time>2026-08-26T09:07:10.285Z</time>
      </trkpt>
      <trkpt lat="52.444245" lon="13.127170">
        <ele>47.939384</ele>
        <time>2026-08-26T09:07:12.787Z</time>
      </trkpt>
      <trkpt lat="52.444182" lon="13.127181">
        <ele>47.913242</ele>
        <time>2026-08-26T09:07:13.757Z</time>
      </trkpt>
      <trkpt lat="52.443878" lon="13.126603">
        <ele>47.721228</ele>
        <time>2026-08-26T09:07:21.764Z</time>
      </trkpt>
      <trkpt lat="52.443851" lon="13.126484">
        <ele>47.689292</ele>
        <time>2026-08-26T09:07:23.141Z</time>
      </trkpt>
      <trkpt lat="52.443857" lon="13.126070">
        <ele>47.585135</ele>
        <time>2026-08-26T09:07:27.329Z</time>
      </trkpt>
      <trkpt lat="52.443857" lon="13.126027">
        <ele>47.574320</ele>
        <time>2026-08-26T09:07:27.788Z</time>
      </trkpt>
      <trkpt lat="52.443866" lon="13.125293">
        <ele>47.389671</ele>
        <time>2026-08-26T09:07:35.327Z</time>
      </trkpt>
      <trkpt lat="52.443917" lon="13.125034">
        <ele>47.321214</ele>
        <time>2026-08-26T09:07:38.136Z</time>
      </trkpt>
      <trkpt lat="52.444095" lon="13.124593">
        <ele>47.177077</ele>
        <time>2026-08-26T09:07:43.419Z</time>
      </trkpt>
      <trkpt lat="52.443981" lon="13.124490">
        <ele>47.068116</ele>
        <time>2026-08-26T09:07:45.473Z</time>
      </trkpt>
      <trkpt lat="52.443801" lon="13.124305">
        <ele>46.890283</ele>
        <time>2026-08-26T09:07:48.775Z</time>
      </trkpt>
      <trkpt lat="52.443605" lon="13.124053">
        <ele>46.681795</ele>
        <time>2026-08-26T09:07:52.576Z</time>
      </trkpt>
      <trkpt lat="52.443490" lon="13.123836">
        <ele>46.535051</ele>
        <time>2026-08-26T09:07:55.225Z</time>
      </trkpt>
      <trkpt lat="52.443416" lon="13.123654">
        <ele>46.423403</ele>
        <time>2026-08-26T09:07:57.211Z</time>
      </trkpt>
      <trkpt lat="52.443335" lon="13.123426">
        <ele>46.288727</ele>
        <time>2026-08-26T09:07:59.590Z</time>
      </trkpt>
      <trkpt lat="52.443324" lon="13.123388">
        <ele>46.267258</ele>
        <time>2026-08-26T09:07:59.969Z</time>
      </trkpt>
      <trkpt lat="52.442686" lon="13.121351">
        <ele>46.956439</ele>
        <time>2026-08-26T09:08:22.865Z</time>
      </trkpt>
      <trkpt lat="52.442672" lon="13.121300">
        <ele>47.017090</ele>
        <time>2026-08-26T09:08:23.605Z</time>
      </trkpt>
      <trkpt lat="52.442632" lon="13.121095">
        <ele>47.250493</ele>
        <time>2026-08-26T09:08:26.495Z</time>
      </trkpt>
      <trkpt lat="52.442616" lon="13.120694">
        <ele>47.686247</ele>
        <time>2026-08-26T09:08:32.519Z</time>
      </trkpt>
      <trkpt lat="52.442666" lon="13.120404">
        <ele>48.013046</ele>
        <time>2026-08-26T09:08:37.441Z</time>
      </trkpt>
      <trkpt lat="52.442858" lon="13.119692">
        <ele>48.857276</ele>
        <time>2026-08-26T09:08:51.520Z</time>
      </trkpt>
      <trkpt lat="52.442909" lon="13.119377">
        <ele>49.678680</ele>
        <time>2026-08-26T09:08:58.304Z</time>
      </trkpt>
      <trkpt lat="52.442907" lon="13.119054">
        <ele>50.544468</ele>
        <time>2026-08-26T09:09:05.363Z</time>
      </trkpt>
      <trkpt lat="52.442895" lon="13.118851">
        <ele>51.091126</ele>
        <time>2026-08-26T09:09:09.893Z</time>
      </trkpt>
      <trkpt lat="52.442847" lon="13.118464">
        <ele>52.149667</ele>
        <time>2026-08-26T09:09:18.688Z</time>
      </trkpt>
      <trkpt lat="52.442982" lon="13.118446">
        <ele>52.745247</ele>
        <time>2026-08-26T09:09:23.612Z</time>
      </trkpt>
      <trkpt lat="52.443466" lon="13.118512">
        <ele>54.880832</ele>
        <time>2026-08-26T09:09:40.461Z</time>
      </trkpt>
      <trkpt lat="52.443811" lon="13.118462">
        <ele>56.403774</ele>
        <time>2026-08-26T09:09:50.822Z</time>
      </trkpt>
      <trkpt lat="52.443957" lon="13.118289">
        <ele>56.618106</ele>
        <time>2026-08-26T09:09:55.626Z</time>
      </trkpt>
      <trkpt lat="52.444339" lon="13.117578">
        <ele>55.434230</ele>
        <time>2026-08-26T09:10:07.698Z</time>
      </trkpt>
      <trkpt lat="52.444967" lon="13.116239">
        <ele>53.323871</ele>
        <time>2026-08-26T09:10:20.718Z</time>
      </trkpt>
      <trkpt lat="52.445396" lon="13.115163">
        <ele>49.171203</ele>
        <time>2026-08-26T09:10:29.695Z</time>
      </trkpt>
      <trkpt lat="52.445679" lon="13.114489">
        <ele>46.286551</ele>
        <time>2026-08-26T09:10:35.407Z</time>
      </trkpt>
      <trkpt lat="52.446064" lon="13.114044">
        <ele>43.563274</ele>
        <time>2026-08-26T09:10:40.973Z</time>
      </trkpt>
      <trkpt lat="52.446906" lon="13.113073">
        <ele>40.614201</ele>
        <time>2026-08-26T09:11:05.429Z</time>
      </trkpt>
      <trkpt lat="52.447215" lon="13.112717">
        <ele>39.715359</ele>
        <time>2026-08-26T09:11:15.292Z</time>
      </trkpt>
      <trkpt lat="52.447922" lon="13.111849">
        <ele>38.121610</ele>
        <time>2026-08-26T09:11:38.926Z</time>
      </trkpt>
      <trkpt lat="52.449947" lon="13.109286">
        <ele>36.009348</ele>
        <time>2026-08-26T09:12:48.880Z</time>
      </trkpt>
      <trkpt lat="52.450730" lon="13.108256">
        <ele>35.195691</ele>
        <time>2026-08-26T09:13:17.272Z</time>
      </trkpt>
      <trkpt lat="52.450859" lon="13.107788">
        <ele>34.879207</ele>
        <time>2026-08-26T09:13:23.810Z</time>
      </trkpt>
      <trkpt lat="52.451138" lon="13.107493">
        <ele>34.543640</ele>
        <time>2026-08-26T09:13:32.713Z</time>
      </trkpt>
      <trkpt lat="52.451362" lon="13.107167">
        <ele>34.240928</ele>
        <time>2026-08-26T09:13:40.739Z</time>
      </trkpt>
      <trkpt lat="52.451383" lon="13.107100">
        <ele>34.194506</ele>
        <time>2026-08-26T09:13:41.937Z</time>
      </trkpt>
      <trkpt lat="52.451478" lon="13.106798">
        <ele>33.985103</ele>
        <time>2026-08-26T09:13:47.358Z</time>
      </trkpt>
      <trkpt lat="52.451635" lon="13.106526">
        <ele>33.754273</ele>
        <time>2026-08-26T09:13:53.402Z</time>
      </trkpt>
      <trkpt lat="52.451718" lon="13.106214">
        <ele>33.606446</ele>
        <time>2026-08-26T09:13:58.911Z</time>
      </trkpt>
      <trkpt lat="52.451892" lon="13.105968">
        <ele>33.473886</ele>
        <time>2026-08-26T09:14:04.982Z</time>
      </trkpt>
      <trkpt lat="52.452105" lon="13.105333">
        <ele>33.218937</ele>
        <time>2026-08-26T09:14:17.056Z</time>
      </trkpt>
      <trkpt lat="52.452413" lon="13.104148">
        <ele>32.765809</ele>
        <time>2026-08-26T09:14:39.903Z</time>
      </trkpt>
      <trkpt lat="52.452518" lon="13.102878">
        <ele>33.266109</ele>
        <time>2026-08-26T09:15:02.527Z</time>
      </trkpt>
      <trkpt lat="52.452529" lon="13.102119">
        <ele>33.755616</ele>
        <time>2026-08-26T09:15:16.848Z</time>
      </trkpt>
      <trkpt lat="52.452534" lon="13.101771">
        <ele>33.980053</ele>
        <time>2026-08-26T09:15:23.703Z</time>
      </trkpt>
      <trkpt lat="52.452937" lon="13.100592">
        <ele>35.517053</ele>
        <time>2026-08-26T09:15:50.640Z</time>
      </trkpt>
      <trkpt lat="52.452869" lon="13.100464">
        <ele>35.871042</ele>
        <time>2026-08-26T09:15:54.850Z</time>
      </trkpt>
      <trkpt lat="52.453658" lon="13.100801">
        <ele>38.659932</ele>
        <time>2026-08-26T09:16:23.688Z</time>
      </trkpt>
      <trkpt lat="52.453588" lon="13.099716">
        <ele>40.826040</ele>
        <time>2026-08-26T09:16:51.678Z</time>
      </trkpt>
      <trkpt lat="52.453576" lon="13.099268">
        <ele>41.316748</ele>
        <time>2026-08-26T09:16:59.817Z</time>
      </trkpt>
      <trkpt lat="52.453530" lon="13.097556">
        <ele>43.191969</ele>
        <time>2026-08-26T09:17:26.995Z</time>
      </trkpt>
      <trkpt lat="52.453479" lon="13.096353">
        <ele>43.432131</ele>
        <time>2026-08-26T09:17:42.494Z</time>
      </trkpt>
      <trkpt lat="52.453475" lon="13.094487">
        <ele>41.644088</ele>
        <time>2026-08-26T09:18:00.404Z</time>
      </trkpt>
      <trkpt lat="52.453475" lon="13.094109">
        <ele>41.281882</ele>
        <time>2026-08-26T09:18:03.879Z</time>
      </trkpt>
      <trkpt lat="52.453558" lon="13.093079">
        <ele>40.018647</ele>
        <time>2026-08-26T09:18:13.592Z</time>
      </trkpt>
      <trkpt lat="52.453511" lon="13.092301">
        <ele>39.025424</ele>
        <time>2026-08-26T09:18:21.131Z</time>
      </trkpt>
      <trkpt lat="52.453464" lon="13.091534">
        <ele>38.046105</ele>
        <time>2026-08-26T09:18:28.567Z</time>
      </trkpt>
      <trkpt lat="52.453484" lon="13.091053">
        <ele>37.433617</ele>
        <time>2026-08-26T09:18:33.277Z</time>
      </trkpt>
      <trkpt lat="52.453546" lon="13.089764">
        <ele>37.127141</ele>
        <time>2026-08-26T09:18:46.455Z</time>
      </trkpt>
      <trkpt lat="52.453608" lon="13.088380">
        <ele>36.867090</ele>
        <time>2026-08-26T09:19:02.680Z</time>
      </trkpt>
      <trkpt lat="52.453595" lon="13.087586">
        <ele>37.586933</ele>
        <time>2026-08-26T09:19:14.957Z</time>
      </trkpt>
      <trkpt lat="52.453809" lon="13.084784">
        <ele>42.277882</ele>
        <time>2026-08-26T09:20:07.161Z</time>
      </trkpt>
      <trkpt lat="52.453998" lon="13.082890">
        <ele>45.148020</ele>
        <time>2026-08-26T09:20:40.654Z</time>
      </trkpt>
      <trkpt lat="52.454068" lon="13.082253">
        <ele>46.115994</ele>
        <time>2026-08-26T09:20:50.464Z</time>
      </trkpt>
      <trkpt lat="52.454104" lon="13.081922">
        <ele>46.288142</ele>
        <time>2026-08-26T09:20:55.329Z</time>
      </trkpt>
      <trkpt lat="52.454454" lon="13.079700">
        <ele>47.084791</ele>
        <time>2026-08-26T09:21:24.792Z</time>
      </trkpt>
      <trkpt lat="52.454495" lon="13.079438">
        <ele>47.178686</ele>
        <time>2026-08-26T09:21:28.114Z</time>
      </trkpt>
      <trkpt lat="52.454726" lon="13.077968">
        <ele>47.336164</ele>
        <time>2026-08-26T09:21:46.603Z</time>
      </trkpt>
      <trkpt lat="52.455326" lon="13.074486">
        <ele>48.703717</ele>
        <time>2026-08-26T09:22:31.429Z</time>
      </trkpt>
      <trkpt lat="52.455429" lon="13.074040">
        <ele>48.985822</ele>
        <time>2026-08-26T09:22:39.168Z</time>
      </trkpt>
      <trkpt lat="52.455544" lon="13.073284">
        <ele>49.796130</ele>
        <time>2026-08-26T09:22:52.920Z</time>
      </trkpt>
      <trkpt lat="52.455471" lon="13.072546">
        <ele>50.905536</ele>
        <time>2026-08-26T09:23:06.799Z</time>
      </trkpt>
      <trkpt lat="52.455356" lon="13.071739">
        <ele>52.135302</ele>
        <time>2026-08-26T09:23:21.587Z</time>
      </trkpt>
      <trkpt lat="52.455215" lon="13.070890">
        <ele>53.441034</ele>
        <time>2026-08-26T09:23:35.697Z</time>
      </trkpt>
      <trkpt lat="52.455384" lon="13.070409">
        <ele>53.583862</ele>
        <time>2026-08-26T09:23:46.969Z</time>
      </trkpt>
      <trkpt lat="52.455484" lon="13.069631">
        <ele>53.564615</ele>
        <time>2026-08-26T09:24:02.032Z</time>
      </trkpt>
      <trkpt lat="52.455558" lon="13.068155">
        <ele>53.528767</ele>
        <time>2026-08-26T09:24:27.619Z</time>
      </trkpt>
      <trkpt lat="52.455532" lon="13.068004">
        <ele>53.524969</ele>
        <time>2026-08-26T09:24:30.141Z</time>
      </trkpt>
      <trkpt lat="52.455730" lon="13.066996">
        <ele>52.573881</ele>
        <time>2026-08-26T09:24:46.486Z</time>
      </trkpt>
      <trkpt lat="52.455782" lon="13.065991">
        <ele>51.608599</ele>
        <time>2026-08-26T09:25:01.905Z</time>
      </trkpt>
      <trkpt lat="52.455829" lon="13.065720">
        <ele>51.338943</ele>
        <time>2026-08-26T09:25:06.263Z</time>
      </trkpt>
      <trkpt lat="52.455903" lon="13.065679">
        <ele>51.216279</ele>
        <time>2026-08-26T09:25:08.336Z</time>
      </trkpt>
      <trkpt lat="52.455829" lon="13.065720">
        <ele>51.093615</ele>
        <time>2026-08-26T09:25:10.286Z</time>
      </trkpt>
      <trkpt lat="52.456174" lon="13.063734">
        <ele>48.995985</ele>
        <time>2026-08-26T09:25:44.725Z</time>
      </trkpt>
      <trkpt lat="52.456327" lon="13.063472">
        <ele>48.622067</ele>
        <time>2026-08-26T09:25:50.503Z</time>
      </trkpt>
      <trkpt lat="52.456442" lon="13.062897">
        <ele>47.998491</ele>
        <time>2026-08-26T09:25:59.727Z</time>
      </trkpt>
      <trkpt lat="52.456671" lon="13.061957">
        <ele>46.008791</ele>
        <time>2026-08-26T09:26:14.188Z</time>
      </trkpt>
      <trkpt lat="52.456865" lon="13.061631">
        <ele>44.905948</ele>
        <time>2026-08-26T09:26:20.314Z</time>
      </trkpt>
      <trkpt lat="52.457142" lon="13.060730">
        <ele>42.463467</ele>
        <time>2026-08-26T09:26:33.769Z</time>
      </trkpt>
      <trkpt lat="52.456961" lon="13.060230">
        <ele>41.055903</ele>
        <time>2026-08-26T09:26:41.866Z</time>
      </trkpt>
      <trkpt lat="52.456997" lon="13.060039">
        <ele>40.572023</ele>
        <time>2026-08-26T09:26:44.701Z</time>
      </trkpt>
      <trkpt lat="52.457133" lon="13.059893">
        <ele>40.295990</ele>
        <time>2026-08-26T09:26:48.508Z</time>
      </trkpt>
      <trkpt lat="52.457379" lon="13.059475">
        <ele>39.775218</ele>
        <time>2026-08-26T09:26:57.072Z</time>
      </trkpt>
      <trkpt lat="52.457503" lon="13.059437">
        <ele>39.589705</ele>
        <time>2026-08-26T09:26:58.850Z</time>
      </trkpt>
      <trkpt lat="52.457528" lon="13.059315">
        <ele>39.474359</ele>
        <time>2026-08-26T09:26:59.978Z</time>
      </trkpt>
      <trkpt lat="52.457765" lon="13.058899">
        <ele>38.964006</ele>
        <time>2026-08-26T09:27:05.273Z</time>
      </trkpt>
      <trkpt lat="52.457895" lon="13.058582">
        <ele>38.621588</ele>
        <time>2026-08-26T09:27:09.243Z</time>
      </trkpt>
      <trkpt lat="52.458230" lon="13.056986">
        <ele>37.187540</ele>
        <time>2026-08-26T09:27:27.328Z</time>
      </trkpt>
      <trkpt lat="52.458326" lon="13.056537">
        <ele>36.805308</ele>
        <time>2026-08-26T09:27:31.727Z</time>
      </trkpt>
      <trkpt lat="52.458339" lon="13.056486">
        <ele>36.760901</ele>
        <time>2026-08-26T09:27:32.223Z</time>
      </trkpt>
      <trkpt lat="52.458410" lon="13.056217">
        <ele>36.525418</ele>
        <time>2026-08-26T09:27:34.824Z</time>
      </trkpt>
      <trkpt lat="52.458494" lon="13.055898">
        <ele>36.246269</ele>
        <time>2026-08-26T09:27:37.836Z</time>
      </trkpt>
      <trkpt lat="52.458560" lon="13.055648">
        <ele>36.027412</ele>
        <time>2026-08-26T09:27:40.160Z</time>
      </trkpt>
      <trkpt lat="52.458799" lon="13.054960">
        <ele>35.387632</ele>
        <time>2026-08-26T09:27:46.783Z</time>
      </trkpt>
      <trkpt lat="52.458957" lon="13.054670">
        <ele>35.064422</ele>
        <time>2026-08-26T09:27:50.032Z</time>
      </trkpt>
      <trkpt lat="52.459136" lon="13.054430">
        <ele>34.749256</ele>
        <time>2026-08-26T09:27:53.214Z</time>
      </trkpt>
      <trkpt lat="52.459231" lon="13.054363">
        <ele>34.608267</ele>
        <time>2026-08-26T09:27:54.650Z</time>
      </trkpt>
      <trkpt lat="52.459568" lon="13.054230">
        <ele>34.135664</ele>
        <time>2026-08-26T09:27:59.730Z</time>
      </trkpt>
      <trkpt lat="52.459650" lon="13.054147">
        <ele>34.004301</ele>
        <time>2026-08-26T09:28:01.174Z</time>
      </trkpt>
      <trkpt lat="52.459063" lon="13.052212">
        <ele>32.928491</ele>
        <time>2026-08-26T09:28:22.805Z</time>
      </trkpt>
      <trkpt lat="52.458940" lon="13.051974">
        <ele>32.892529</ele>
        <time>2026-08-26T09:28:26.245Z</time>
      </trkpt>
      <trkpt lat="52.458753" lon="13.051445">
        <ele>32.822055</ele>
        <time>2026-08-26T09:28:32.887Z</time>
      </trkpt>
      <trkpt lat="52.458605" lon="13.050777">
        <ele>32.740149</ele>
        <time>2026-08-26T09:28:40.343Z</time>
      </trkpt>
      <trkpt lat="52.458478" lon="13.050474">
        <ele>32.722307</ele>
        <time>2026-08-26T09:28:44.309Z</time>
      </trkpt>
      <trkpt lat="52.458234" lon="13.049739">
        <ele>32.988722</ele>
        <time>2026-08-26T09:28:53.854Z</time>
      </trkpt>
      <trkpt lat="52.457969" lon="13.049278">
        <ele>33.190448</ele>
        <time>2026-08-26T09:29:01.189Z</time>
      </trkpt>
      <trkpt lat="52.457574" lon="13.048840">
        <ele>33.439467</ele>
        <time>2026-08-26T09:29:10.511Z</time>
      </trkpt>
      <trkpt lat="52.456704" lon="13.047939">
        <ele>34.315283</ele>
        <time>2026-08-26T09:29:32.312Z</time>
      </trkpt>
      <trkpt lat="52.456453" lon="13.047783">
        <ele>34.597968</ele>
        <time>2026-08-26T09:29:37.956Z</time>
      </trkpt>
      <trkpt lat="52.455924" lon="13.047602">
        <ele>35.167110</ele>
        <time>2026-08-26T09:29:49.224Z</time>
      </trkpt>
      <trkpt lat="52.454943" lon="13.047305">
        <ele>36.427718</ele>
        <time>2026-08-26T09:30:11.024Z</time>
      </trkpt>
      <trkpt lat="52.453690" lon="13.046954">
        <ele>38.116307</ele>
        <time>2026-08-26T09:30:39.995Z</time>
      </trkpt>
      <trkpt lat="52.453001" lon="13.046818">
        <ele>38.696572</ele>
        <time>2026-08-26T09:30:54.654Z</time>
      </trkpt>
      <trkpt lat="52.450364" lon="13.046425">
        <ele>40.171811</ele>
        <time>2026-08-26T09:31:46.073Z</time>
      </trkpt>
      <trkpt lat="52.450208" lon="13.046397">
        <ele>40.229573</ele>
        <time>2026-08-26T09:31:48.760Z</time>
      </trkpt>
      <trkpt lat="52.450210" lon="13.046264">
        <ele>40.245839</ele>
        <time>2026-08-26T09:31:50.153Z</time>
      </trkpt>
      <trkpt lat="52.449220" lon="13.046126">
        <ele>40.445168</ele>
        <time>2026-08-26T09:32:07.211Z</time>
      </trkpt>
      <trkpt lat="52.448610" lon="13.046081">
        <ele>40.567670</ele>
        <time>2026-08-26T09:32:19.367Z</time>
      </trkpt>
      <trkpt lat="52.447968" lon="13.046071">
        <ele>40.506408</ele>
        <time>2026-08-26T09:32:32.281Z</time>
      </trkpt>
      <trkpt lat="52.447787" lon="13.046070">
        <ele>40.479919</ele>
        <time>2026-08-26T09:32:35.857Z</time>
      </trkpt>
      <trkpt lat="52.445583" lon="13.046053">
        <ele>39.249159</ele>
        <time>2026-08-26T09:33:11.104Z</time>
      </trkpt>
      <trkpt lat="52.445570" lon="13.046053">
        <ele>39.236846</ele>
        <time>2026-08-26T09:33:11.283Z</time>
      </trkpt>
      <trkpt lat="52.444923" lon="13.046063">
        <ele>38.624037</ele>
        <time>2026-08-26T09:33:20.871Z</time>
      </trkpt>
      <trkpt lat="52.444426" lon="13.046200">
        <ele>37.872275</ele>
        <time>2026-08-26T09:33:28.426Z</time>
      </trkpt>
      <trkpt lat="52.444011" lon="13.046468">
        <ele>37.204832</ele>
        <time>2026-08-26T09:33:35.088Z</time>
      </trkpt>
      <trkpt lat="52.443591" lon="13.046764">
        <ele>36.520746</ele>
        <time>2026-08-26T09:33:41.825Z</time>
      </trkpt>
      <trkpt lat="52.443401" lon="13.046905">
        <ele>36.208667</ele>
        <time>2026-08-26T09:33:44.819Z</time>
      </trkpt>
      <trkpt lat="52.443310" lon="13.046974">
        <ele>36.058641</ele>
        <time>2026-08-26T09:33:46.245Z</time>
      </trkpt>
      <trkpt lat="52.443205" lon="13.047053">
        <ele>35.890143</ele>
        <time>2026-08-26T09:33:47.865Z</time>
      </trkpt>
      <trkpt lat="52.443101" lon="13.047128">
        <ele>35.737700</ele>
        <time>2026-08-26T09:33:49.449Z</time>
      </trkpt>
      <trkpt lat="52.442824" lon="13.047334">
        <ele>35.329591</ele>
        <time>2026-08-26T09:33:53.665Z</time>
      </trkpt>
      <trkpt lat="52.441712" lon="13.048136">
        <ele>33.699588</ele>
        <time>2026-08-26T09:34:11.501Z</time>
      </trkpt>
      <trkpt lat="52.441101" lon="13.048576">
        <ele>33.750995</ele>
        <time>2026-08-26T09:34:23.606Z</time>
      </trkpt>
      <trkpt lat="52.440328" lon="13.049079">
        <ele>34.122444</ele>
        <time>2026-08-26T09:34:40.886Z</time>
      </trkpt>
      <trkpt lat="52.439716" lon="13.049470">
        <ele>34.184673</ele>
        <time>2026-08-26T09:34:54.205Z</time>
      </trkpt>
      <trkpt lat="52.439669" lon="13.049500">
        <ele>34.153997</ele>
        <time>2026-08-26T09:34:55.175Z</time>
      </trkpt>
      <trkpt lat="52.439226" lon="13.049797">
        <ele>33.862901</ele>
        <time>2026-08-26T09:35:03.805Z</time>
      </trkpt>
      <trkpt lat="52.438794" lon="13.050087">
        <ele>33.578981</ele>
        <time>2026-08-26T09:35:10.992Z</time>
      </trkpt>
      <trkpt lat="52.438737" lon="13.050128">
        <ele>33.541123</ele>
        <time>2026-08-26T09:35:11.906Z</time>
      </trkpt>
      <trkpt lat="52.438581" lon="13.050241">
        <ele>33.437394</ele>
        <time>2026-08-26T09:35:14.392Z</time>
      </trkpt>
      <trkpt lat="52.438331" lon="13.050411">
        <ele>33.272781</ele>
        <time>2026-08-26T09:35:18.307Z</time>
      </trkpt>
      <trkpt lat="52.438045" lon="13.050510">
        <ele>33.395658</ele>
        <time>2026-08-26T09:35:22.501Z</time>
      </trkpt>
      <trkpt lat="52.437758" lon="13.050600">
        <ele>33.632476</ele>
        <time>2026-08-26T09:35:26.727Z</time>
      </trkpt>
      <trkpt lat="52.437511" lon="13.050733">
        <ele>33.843172</ele>
        <time>2026-08-26T09:35:31.080Z</time>
      </trkpt>
      <trkpt lat="52.436781" lon="13.051138">
        <ele>34.467740</ele>
        <time>2026-08-26T09:35:49.750Z</time>
      </trkpt>
      <trkpt lat="52.436673" lon="13.051200">
        <ele>34.560477</ele>
        <time>2026-08-26T09:35:52.903Z</time>
      </trkpt>
      <trkpt lat="52.436521" lon="13.051295">
        <ele>34.697279</ele>
        <time>2026-08-26T09:35:57.443Z</time>
      </trkpt>
      <trkpt lat="52.436326" lon="13.051487">
        <ele>34.967531</ele>
        <time>2026-08-26T09:36:03.757Z</time>
      </trkpt>
      <trkpt lat="52.436165" lon="13.051657">
        <ele>35.195053</ele>
        <time>2026-08-26T09:36:08.922Z</time>
      </trkpt>
      <trkpt lat="52.436136" lon="13.051581">
        <ele>35.260005</ele>
        <time>2026-08-26T09:36:10.352Z</time>
      </trkpt>
      <trkpt lat="52.436058" lon="13.051646">
        <ele>35.363965</ele>
        <time>2026-08-26T09:36:12.680Z</time>
      </trkpt>
      <trkpt lat="52.435980" lon="13.051737">
        <ele>35.477703</ele>
        <time>2026-08-26T09:36:15.688Z</time>
      </trkpt>
      <trkpt lat="52.435998" lon="13.051799">
        <ele>35.527450</ele>
        <time>2026-08-26T09:36:16.774Z</time>
      </trkpt>
      <trkpt lat="52.436017" lon="13.051891">
        <ele>35.597818</ele>
        <time>2026-08-26T09:36:18.261Z</time>
      </trkpt>
      <trkpt lat="52.435867" lon="13.053738">
        <ele>36.850291</ele>
        <time>2026-08-26T09:36:38.965Z</time>
      </trkpt>
      <trkpt lat="52.435869" lon="13.054131">
        <ele>36.919673</ele>
        <time>2026-08-26T09:36:42.883Z</time>
      </trkpt>
      <trkpt lat="52.435643" lon="13.054716">
        <ele>37.041938</ele>
        <time>2026-08-26T09:36:50.014Z</time>
      </trkpt>
      <trkpt lat="52.435419" lon="13.055124">
        <ele>37.138869</ele>
        <time>2026-08-26T09:36:55.923Z</time>
      </trkpt>
      <trkpt lat="52.435299" lon="13.055327">
        <ele>37.188787</ele>
        <time>2026-08-26T09:36:59.124Z</time>
      </trkpt>
      <trkpt lat="52.434690" lon="13.056475">
        <ele>37.907883</ele>
        <time>2026-08-26T09:37:18.700Z</time>
      </trkpt>
      <trkpt lat="52.434548" lon="13.056855">
        <ele>38.287751</ele>
        <time>2026-08-26T09:37:25.051Z</time>
      </trkpt>
      <trkpt lat="52.434450" lon="13.057025">
        <ele>38.487156</ele>
        <time>2026-08-26T09:37:28.426Z</time>
      </trkpt>
      <trkpt lat="52.434303" lon="13.057087">
        <ele>38.699343</ele>
        <time>2026-08-26T09:37:32.080Z</time>
      </trkpt>
      <trkpt lat="52.434025" lon="13.056984">
        <ele>39.097770</ele>
        <time>2026-08-26T09:37:38.942Z</time>
      </trkpt>
      <trkpt lat="52.433724" lon="13.057032">
        <ele>39.520543</ele>
        <time>2026-08-26T09:37:46.188Z</time>
      </trkpt>
      <trkpt lat="52.433397" lon="13.057307">
        <ele>39.706107</ele>
        <time>2026-08-26T09:37:54.322Z</time>
      </trkpt>
      <trkpt lat="52.433175" lon="13.057744">
        <ele>39.307332</ele>
        <time>2026-08-26T09:38:00.882Z</time>
      </trkpt>
      <trkpt lat="52.433042" lon="13.058129">
        <ele>38.997107</ele>
        <time>2026-08-26T09:38:05.193Z</time>
      </trkpt>
      <trkpt lat="52.432966" lon="13.058543">
        <ele>38.693996</ele>
        <time>2026-08-26T09:38:08.941Z</time>
      </trkpt>
      <trkpt lat="52.432987" lon="13.059205">
        <ele>38.229264</ele>
        <time>2026-08-26T09:38:14.325Z</time>
      </trkpt>
      <trkpt lat="52.432920" lon="13.059449">
        <ele>38.041656</ele>
        <time>2026-08-26T09:38:16.490Z</time>
      </trkpt>
      <trkpt lat="52.432808" lon="13.059720">
        <ele>37.812132</ele>
        <time>2026-08-26T09:38:19.166Z</time>
      </trkpt>
      <trkpt lat="52.432721" lon="13.059814">
        <ele>37.753038</ele>
        <time>2026-08-26T09:38:20.591Z</time>
      </trkpt>
      <trkpt lat="52.432744" lon="13.059922">
        <ele>37.724813</ele>
        <time>2026-08-26T09:38:21.881Z</time>
      </trkpt>
      <trkpt lat="52.432683" lon="13.059994">
        <ele>37.694400</ele>
        <time>2026-08-26T09:38:23.336Z</time>
      </trkpt>
      <trkpt lat="52.432550" lon="13.060200">
        <ele>37.620373</ele>
        <time>2026-08-26T09:38:26.885Z</time>
      </trkpt>
      <trkpt lat="52.432480" lon="13.060577">
        <ele>37.523139</ele>
        <time>2026-08-26T09:38:31.811Z</time>
      </trkpt>
      <trkpt lat="52.432433" lon="13.060682">
        <ele>37.491001</ele>
        <time>2026-08-26T09:38:33.491Z</time>
      </trkpt>
      <trkpt lat="52.432213" lon="13.060993">
        <ele>37.373468</ele>
        <time>2026-08-26T09:38:39.796Z</time>
      </trkpt>
      <trkpt lat="52.431711" lon="13.061406">
        <ele>37.146198</ele>
        <time>2026-08-26T09:38:54.607Z</time>
      </trkpt>
      <trkpt lat="52.431557" lon="13.061673">
        <ele>37.052305</ele>
        <time>2026-08-26T09:39:01.262Z</time>
      </trkpt>
      <trkpt lat="52.431440" lon="13.061990">
        <ele>36.849105</ele>
        <time>2026-08-26T09:39:07.698Z</time>
      </trkpt>
      <trkpt lat="52.431108" lon="13.062421">
        <ele>36.468291</ele>
        <time>2026-08-26T09:39:18.761Z</time>
      </trkpt>
      <trkpt lat="52.430910" lon="13.062732">
        <ele>36.221721</ele>
        <time>2026-08-26T09:39:24.769Z</time>
      </trkpt>
      <trkpt lat="52.430835" lon="13.063009">
        <ele>36.055518</ele>
        <time>2026-08-26T09:39:28.466Z</time>
      </trkpt>
      <trkpt lat="52.430638" lon="13.063530">
        <ele>35.719335</ele>
        <time>2026-08-26T09:39:35.415Z</time>
      </trkpt>
      <trkpt lat="52.430551" lon="13.063887">
        <ele>35.508507</ele>
        <time>2026-08-26T09:39:38.883Z</time>
      </trkpt>
      <trkpt lat="52.430275" lon="13.064685">
        <ele>34.954978</ele>
        <time>2026-08-26T09:39:47.133Z</time>
      </trkpt>
      <trkpt lat="52.430199" lon="13.064841">
        <ele>34.832786</ele>
        <time>2026-08-26T09:39:48.979Z</time>
      </trkpt>
      <trkpt lat="52.430110" lon="13.064944">
        <ele>34.723464</ele>
        <time>2026-08-26T09:39:50.638Z</time>
      </trkpt>
      <trkpt lat="52.429975" lon="13.065018">
        <ele>34.580608</ele>
        <time>2026-08-26T09:39:52.871Z</time>
      </trkpt>
      <trkpt lat="52.429780" lon="13.065017">
        <ele>34.384901</ele>
        <time>2026-08-26T09:39:55.996Z</time>
      </trkpt>
      <trkpt lat="52.428633" lon="13.064968">
        <ele>34.026725</ele>
        <time>2026-08-26T09:40:23.083Z</time>
      </trkpt>
      <trkpt lat="52.428359" lon="13.065041">
        <ele>34.298025</ele>
        <time>2026-08-26T09:40:30.530Z</time>
      </trkpt>
      <trkpt lat="52.428054" lon="13.065180">
        <ele>34.607408</ele>
        <time>2026-08-26T09:40:38.751Z</time>
      </trkpt>
      <trkpt lat="52.427877" lon="13.065321">
        <ele>34.799724</ele>
        <time>2026-08-26T09:40:43.691Z</time>
      </trkpt>
      <trkpt lat="52.427796" lon="13.065425">
        <ele>34.900263</ele>
        <time>2026-08-26T09:40:46.087Z</time>
      </trkpt>
      <trkpt lat="52.427692" lon="13.065639">
        <ele>35.063344</ele>
        <time>2026-08-26T09:40:49.759Z</time>
      </trkpt>
      <trkpt lat="52.427509" lon="13.066120">
        <ele>35.386964</ele>
        <time>2026-08-26T09:41:00.029Z</time>
      </trkpt>
      <trkpt lat="52.427324" lon="13.066643">
        <ele>35.108154</ele>
        <time>2026-08-26T09:41:09.781Z</time>
      </trkpt>
      <trkpt lat="52.427239" lon="13.066896">
        <ele>34.974953</ele>
        <time>2026-08-26T09:41:14.071Z</time>
      </trkpt>
      <trkpt lat="52.426755" lon="13.068321">
        <ele>34.222784</ele>
        <time>2026-08-26T09:41:41.251Z</time>
      </trkpt>
      <trkpt lat="52.426669" lon="13.068401">
        <ele>34.148014</ele>
        <time>2026-08-26T09:41:42.976Z</time>
      </trkpt>
      <trkpt lat="52.426505" lon="13.068487">
        <ele>34.033720</ele>
        <time>2026-08-26T09:41:46.140Z</time>
      </trkpt>
      <trkpt lat="52.426349" lon="13.068574">
        <ele>34.039713</ele>
        <time>2026-08-26T09:41:48.977Z</time>
      </trkpt>
      <trkpt lat="52.426192" lon="13.068601">
        <ele>34.045455</ele>
        <time>2026-08-26T09:41:51.804Z</time>
      </trkpt>
      <trkpt lat="52.426161" lon="13.068667">
        <ele>34.047303</ele>
        <time>2026-08-26T09:41:52.691Z</time>
      </trkpt>
      <trkpt lat="52.426087" lon="13.068827">
        <ele>34.051757</ele>
        <time>2026-08-26T09:41:54.959Z</time>
      </trkpt>
      <trkpt lat="52.426025" lon="13.068961">
        <ele>34.055487</ele>
        <time>2026-08-26T09:41:56.875Z</time>
      </trkpt>
      <trkpt lat="52.426013" lon="13.068987">
        <ele>34.056211</ele>
        <time>2026-08-26T09:41:57.270Z</time>
      </trkpt>
      <trkpt lat="52.425970" lon="13.069081">
        <ele>34.058817</ele>
        <time>2026-08-26T09:41:58.648Z</time>
      </trkpt>
      <trkpt lat="52.425883" lon="13.069234">
        <ele>34.063457</ele>
        <time>2026-08-26T09:42:01.155Z</time>
      </trkpt>
      <trkpt lat="52.425792" lon="13.069298">
        <ele>34.067058</ele>
        <time>2026-08-26T09:42:03.151Z</time>
      </trkpt>
      <trkpt lat="52.425544" lon="13.069247">
        <ele>34.076149</ele>
        <time>2026-08-26T09:42:08.115Z</time>
      </trkpt>
      <trkpt lat="52.425432" lon="13.069211">
        <ele>34.080300</ele>
        <time>2026-08-26T09:42:10.172Z</time>
      </trkpt>
      <trkpt lat="52.424802" lon="13.069009">
        <ele>34.183049</ele>
        <time>2026-08-26T09:42:20.604Z</time>
      </trkpt>
      <trkpt lat="52.424091" lon="13.068830">
        <ele>34.605791</ele>
        <time>2026-08-26T09:42:34.309Z</time>
      </trkpt>
      <trkpt lat="52.423550" lon="13.068725">
        <ele>34.925949</ele>
        <time>2026-08-26T09:42:45.672Z</time>
      </trkpt>
      <trkpt lat="52.423313" lon="13.068744">
        <ele>35.065397</ele>
        <time>2026-08-26T09:42:50.727Z</time>
      </trkpt>
      <trkpt lat="52.423052" lon="13.068843">
        <ele>35.221279</ele>
        <time>2026-08-26T09:42:56.609Z</time>
      </trkpt>
      <trkpt lat="52.422275" lon="13.069292">
        <ele>35.694268</ele>
        <time>2026-08-26T09:43:14.128Z</time>
      </trkpt>
      <trkpt lat="52.422018" lon="13.069100">
        <ele>35.856412</ele>
        <time>2026-08-26T09:43:19.526Z</time>
      </trkpt>
      <trkpt lat="52.421909" lon="13.069019">
        <ele>35.925118</ele>
        <time>2026-08-26T09:43:21.767Z</time>
      </trkpt>
      <trkpt lat="52.421854" lon="13.068977">
        <ele>35.959952</ele>
        <time>2026-08-26T09:43:22.942Z</time>
      </trkpt>
      <trkpt lat="52.421760" lon="13.069266">
        <ele>36.074631</ele>
        <time>2026-08-26T09:43:26.613Z</time>
      </trkpt>
      <trkpt lat="52.421691" lon="13.069379">
        <ele>36.130620</ele>
        <time>2026-08-26T09:43:28.393Z</time>
      </trkpt>
      <trkpt lat="52.421733" lon="13.069552">
        <ele>36.172730</ele>
        <time>2026-08-26T09:43:30.667Z</time>
      </trkpt>
      <trkpt lat="52.421675" lon="13.069629">
        <ele>36.087269</ele>
        <time>2026-08-26T09:43:32.135Z</time>
      </trkpt>
      <trkpt lat="52.421591" lon="13.069751">
        <ele>35.958766</ele>
        <time>2026-08-26T09:43:34.286Z</time>
      </trkpt>
      <trkpt lat="52.420924" lon="13.070815">
        <ele>34.893112</ele>
        <time>2026-08-26T09:43:49.947Z</time>
      </trkpt>
      <trkpt lat="52.420522" lon="13.071452">
        <ele>34.252916</ele>
        <time>2026-08-26T09:43:59.098Z</time>
      </trkpt>
      <trkpt lat="52.420394" lon="13.071737">
        <ele>33.974750</ele>
        <time>2026-08-26T09:44:02.734Z</time>
      </trkpt>
      <trkpt lat="52.420223" lon="13.072244">
        <ele>33.467910</ele>
        <time>2026-08-26T09:44:08.478Z</time>
      </trkpt>
      <trkpt lat="52.420099" lon="13.072787">
        <ele>32.960675</ele>
        <time>2026-08-26T09:44:14.208Z</time>
      </trkpt>
      <trkpt lat="52.420049" lon="13.073141">
        <ele>32.642793</ele>
        <time>2026-08-26T09:44:17.811Z</time>
      </trkpt>
      <trkpt lat="52.420094" lon="13.073573">
        <ele>32.259398</ele>
        <time>2026-08-26T09:44:22.240Z</time>
      </trkpt>
      <trkpt lat="52.420304" lon="13.074961">
        <ele>31.206227</ele>
        <time>2026-08-26T09:44:37.597Z</time>
      </trkpt>
      <trkpt lat="52.420451" lon="13.075713">
        <ele>30.768575</ele>
        <time>2026-08-26T09:44:45.674Z</time>
      </trkpt>
      <trkpt lat="52.420751" lon="13.076904">
        <ele>30.054430</ele>
        <time>2026-08-26T09:44:59.514Z</time>
      </trkpt>
      <trkpt lat="52.420903" lon="13.077549">
        <ele>30.014317</ele>
        <time>2026-08-26T09:45:07.178Z</time>
      </trkpt>
      <trkpt lat="52.420842" lon="13.077835">
        <ele>30.083908</ele>
        <time>2026-08-26T09:45:10.618Z</time>
      </trkpt>
      <trkpt lat="52.420761" lon="13.078018">
        <ele>30.135843</ele>
        <time>2026-08-26T09:45:13.280Z</time>
      </trkpt>
      <trkpt lat="52.420654" lon="13.078159">
        <ele>30.187542</ele>
        <time>2026-08-26T09:45:15.997Z</time>
      </trkpt>
      <trkpt lat="52.420532" lon="13.078246">
        <ele>30.237646</ele>
        <time>2026-08-26T09:45:18.727Z</time>
      </trkpt>
      <trkpt lat="52.420389" lon="13.078257">
        <ele>30.291561</ele>
        <time>2026-08-26T09:45:21.776Z</time>
      </trkpt>
      <trkpt lat="52.420094" lon="13.078124">
        <ele>30.406786</ele>
        <time>2026-08-26T09:45:28.540Z</time>
      </trkpt>
      <trkpt lat="52.419612" lon="13.077792">
        <ele>30.624873</ele>
        <time>2026-08-26T09:45:40.869Z</time>
      </trkpt>
      <trkpt lat="52.418838" lon="13.077631">
        <ele>31.416910</ele>
        <time>2026-08-26T09:46:00.312Z</time>
      </trkpt>
      <trkpt lat="52.418209" lon="13.077579">
        <ele>32.056262</ele>
        <time>2026-08-26T09:46:14.553Z</time>
      </trkpt>
      <trkpt lat="52.417838" lon="13.077646">
        <ele>32.414121</ele>
        <time>2026-08-26T09:46:22.671Z</time>
      </trkpt>
      <trkpt lat="52.417538" lon="13.077803">
        <ele>32.361249</ele>
        <time>2026-08-26T09:46:29.339Z</time>
      </trkpt>
      <trkpt lat="52.417082" lon="13.078140">
        <ele>32.277272</ele>
        <time>2026-08-26T09:46:38.736Z</time>
      </trkpt>
      <trkpt lat="52.416581" lon="13.078646">
        <ele>32.178479</ele>
        <time>2026-08-26T09:46:49.270Z</time>
      </trkpt>
      <trkpt lat="52.416498" lon="13.079525">
        <ele>32.180151</ele>
        <time>2026-08-26T09:46:59.843Z</time>
      </trkpt>
      <trkpt lat="52.416455" lon="13.079778">
        <ele>32.243215</ele>
        <time>2026-08-26T09:47:02.968Z</time>
      </trkpt>
      <trkpt lat="52.416395" lon="13.079977">
        <ele>32.296519</ele>
        <time>2026-08-26T09:47:05.634Z</time>
      </trkpt>
      <trkpt lat="52.416300" lon="13.080141">
        <ele>32.350828</ele>
        <time>2026-08-26T09:47:08.353Z</time>
      </trkpt>
      <trkpt lat="52.416253" lon="13.080206">
        <ele>32.375035</ele>
        <time>2026-08-26T09:47:09.562Z</time>
      </trkpt>
      <trkpt lat="52.416144" lon="13.080350">
        <ele>32.430144</ele>
        <time>2026-08-26T09:47:13.709Z</time>
      </trkpt>
      <trkpt lat="52.416082" lon="13.080502">
        <ele>32.474052</ele>
        <time>2026-08-26T09:47:15.733Z</time>
      </trkpt>
      <trkpt lat="52.415615" lon="13.082472">
        <ele>33.076016</ele>
        <time>2026-08-26T09:47:42.363Z</time>
      </trkpt>
      <trkpt lat="52.415323" lon="13.083661">
        <ele>33.567405</ele>
        <time>2026-08-26T09:47:58.551Z</time>
      </trkpt>
      <trkpt lat="52.415174" lon="13.084182">
        <ele>33.788008</ele>
        <time>2026-08-26T09:48:04.993Z</time>
      </trkpt>
      <trkpt lat="52.414865" lon="13.084981">
        <ele>33.912826</ele>
        <time>2026-08-26T09:48:15.337Z</time>
      </trkpt>
      <trkpt lat="52.414729" lon="13.085301">
        <ele>33.881747</ele>
        <time>2026-08-26T09:48:19.534Z</time>
      </trkpt>
      <trkpt lat="52.414591" lon="13.085632">
        <ele>33.849799</ele>
        <time>2026-08-26T09:48:23.807Z</time>
      </trkpt>
      <trkpt lat="52.413910" lon="13.087272">
        <ele>33.495827</ele>
        <time>2026-08-26T09:48:44.930Z</time>
      </trkpt>
      <trkpt lat="52.413788" lon="13.087566">
        <ele>33.262502</ele>
        <time>2026-08-26T09:48:48.401Z</time>
      </trkpt>
      <trkpt lat="52.413742" lon="13.087679">
        <ele>33.173358</ele>
        <time>2026-08-26T09:48:49.664Z</time>
      </trkpt>
      <trkpt lat="52.413696" lon="13.087791">
        <ele>33.084760</ele>
        <time>2026-08-26T09:48:50.949Z</time>
      </trkpt>
      <trkpt lat="52.413686" lon="13.087814">
        <ele>33.066226</ele>
        <time>2026-08-26T09:48:51.211Z</time>
      </trkpt>
      <trkpt lat="52.413575" lon="13.088061">
        <ele>32.864913</ele>
        <time>2026-08-26T09:48:54.065Z</time>
      </trkpt>
      <trkpt lat="52.413496" lon="13.088074">
        <ele>32.779500</ele>
        <time>2026-08-26T09:48:55.211Z</time>
      </trkpt>
      <trkpt lat="52.413404" lon="13.088120">
        <ele>32.676029</ele>
        <time>2026-08-26T09:48:56.586Z</time>
      </trkpt>
      <trkpt lat="52.413460" lon="13.088653">
        <ele>32.321138</ele>
        <time>2026-08-26T09:49:01.347Z</time>
      </trkpt>
      <trkpt lat="52.413462" lon="13.088800">
        <ele>32.224656</ele>
        <time>2026-08-26T09:49:02.648Z</time>
      </trkpt>
      <trkpt lat="52.413465" lon="13.089126">
        <ele>32.010719</ele>
        <time>2026-08-26T09:49:05.461Z</time>
      </trkpt>
      <trkpt lat="52.413459" lon="13.091328">
        <ele>31.899939</ele>
        <time>2026-08-26T09:49:27.636Z</time>
      </trkpt>
      <trkpt lat="52.413468" lon="13.091690">
        <ele>31.922595</ele>
        <time>2026-08-26T09:49:32.477Z</time>
      </trkpt>
      <trkpt lat="52.413477" lon="13.091901">
        <ele>31.935822</ele>
        <time>2026-08-26T09:49:35.361Z</time>
      </trkpt>
      <trkpt lat="52.413486" lon="13.092068">
        <ele>31.946305</ele>
        <time>2026-08-26T09:49:37.625Z</time>
      </trkpt>
      <trkpt lat="52.413482" lon="13.092643">
        <ele>32.066014</ele>
        <time>2026-08-26T09:49:45.304Z</time>
      </trkpt>
      <trkpt lat="52.413471" lon="13.093176">
        <ele>32.298755</ele>
        <time>2026-08-26T09:49:52.404Z</time>
      </trkpt>
      <trkpt lat="52.413383" lon="13.094369">
        <ele>32.823191</ele>
        <time>2026-08-26T09:50:07.067Z</time>
      </trkpt>
      <trkpt lat="52.413223" lon="13.095802">
        <ele>33.240173</ele>
        <time>2026-08-26T09:50:23.809Z</time>
      </trkpt>
      <trkpt lat="52.413206" lon="13.096267">
        <ele>33.225233</ele>
        <time>2026-08-26T09:50:28.866Z</time>
      </trkpt>
      <trkpt lat="52.413120" lon="13.096295">
        <ele>33.220622</ele>
        <time>2026-08-26T09:50:34.962Z</time>
      </trkpt>
      <trkpt lat="52.413206" lon="13.096267">
        <ele>33.216012</ele>
        <time>2026-08-26T09:50:41.058Z</time>
      </trkpt>
      <trkpt lat="52.413216" lon="13.096511">
        <ele>33.208169</ele>
        <time>2026-08-26T09:50:43.726Z</time>
      </trkpt>
      <trkpt lat="52.413241" lon="13.096794">
        <ele>33.198997</ele>
        <time>2026-08-26T09:50:46.823Z</time>
      </trkpt>
      <trkpt lat="52.413180" lon="13.096801">
        <ele>33.195782</ele>
        <time>2026-08-26T09:50:47.859Z</time>
      </trkpt>
      <trkpt lat="52.413138" lon="13.096744">
        <ele>33.192915</ele>
        <time>2026-08-26T09:50:48.878Z</time>
      </trkpt>
      <trkpt lat="52.412983" lon="13.096651">
        <ele>33.184236</ele>
        <time>2026-08-26T09:50:51.772Z</time>
      </trkpt>
      <trkpt lat="52.412894" lon="13.096747">
        <ele>33.178634</ele>
        <time>2026-08-26T09:50:53.596Z</time>
      </trkpt>
      <trkpt lat="52.412403" lon="13.097171">
        <ele>33.146635</ele>
        <time>2026-08-26T09:51:02.733Z</time>
      </trkpt>
      <trkpt lat="52.412109" lon="13.097416">
        <ele>33.124898</ele>
        <time>2026-08-26T09:51:08.205Z</time>
      </trkpt>
      <trkpt lat="52.411751" lon="13.097714">
        <ele>33.098435</ele>
        <time>2026-08-26T09:51:15.716Z</time>
      </trkpt>
      <trkpt lat="52.411609" lon="13.097897">
        <ele>33.086531</ele>
        <time>2026-08-26T09:51:19.073Z</time>
      </trkpt>
      <trkpt lat="52.411191" lon="13.098806">
        <ele>33.035307</ele>
        <time>2026-08-26T09:51:31.530Z</time>
      </trkpt>
      <trkpt lat="52.411151" lon="13.098910">
        <ele>33.009036</ele>
        <time>2026-08-26T09:51:32.853Z</time>
      </trkpt>
      <trkpt lat="52.410976" lon="13.099303">
        <ele>32.905065</ele>
        <time>2026-08-26T09:51:38.180Z</time>
      </trkpt>
      <trkpt lat="52.410866" lon="13.099390">
        <ele>32.862282</ele>
        <time>2026-08-26T09:51:40.373Z</time>
      </trkpt>
      <trkpt lat="52.410727" lon="13.099401">
        <ele>32.813534</ele>
        <time>2026-08-26T09:51:42.833Z</time>
      </trkpt>
      <trkpt lat="52.410366" lon="13.099298">
        <ele>32.685175</ele>
        <time>2026-08-26T09:51:49.055Z</time>
      </trkpt>
      <trkpt lat="52.410229" lon="13.099251">
        <ele>32.636145</ele>
        <time>2026-08-26T09:51:51.363Z</time>
      </trkpt>
      <trkpt lat="52.410185" lon="13.099365">
        <ele>32.607319</ele>
        <time>2026-08-26T09:51:52.738Z</time>
      </trkpt>
      <trkpt lat="52.410006" lon="13.099828">
        <ele>32.490186</ele>
        <time>2026-08-26T09:51:58.416Z</time>
      </trkpt>
      <trkpt lat="52.409902" lon="13.100095">
        <ele>32.422493</ele>
        <time>2026-08-26T09:52:01.812Z</time>
      </trkpt>
      <trkpt lat="52.409700" lon="13.100616">
        <ele>32.790459</ele>
        <time>2026-08-26T09:52:08.577Z</time>
      </trkpt>
      <trkpt lat="52.409454" lon="13.101251">
        <ele>33.291650</ele>
        <time>2026-08-26T09:52:17.704Z</time>
      </trkpt>
      <trkpt lat="52.409354" lon="13.101513">
        <ele>33.497568</ele>
        <time>2026-08-26T09:52:22.059Z</time>
      </trkpt>
      <trkpt lat="52.409276" lon="13.101433">
        <ele>33.598063</ele>
        <time>2026-08-26T09:52:24.493Z</time>
      </trkpt>
      <trkpt lat="52.409053" lon="13.101204">
        <ele>33.885473</ele>
        <time>2026-08-26T09:52:31.996Z</time>
      </trkpt>
      <trkpt lat="52.408918" lon="13.101133">
        <ele>34.040327</ele>
        <time>2026-08-26T09:52:35.791Z</time>
      </trkpt>
      <trkpt lat="52.408873" lon="13.101121">
        <ele>34.090123</ele>
        <time>2026-08-26T09:52:36.985Z</time>
      </trkpt>
      <trkpt lat="52.408675" lon="13.101119">
        <ele>34.306388</ele>
        <time>2026-08-26T09:52:41.679Z</time>
      </trkpt>
      <trkpt lat="52.408651" lon="13.101108">
        <ele>34.333607</ele>
        <time>2026-08-26T09:52:42.237Z</time>
      </trkpt>
      <trkpt lat="52.408318" lon="13.100939">
        <ele>34.872959</ele>
        <time>2026-08-26T09:52:49.551Z</time>
      </trkpt>
      <trkpt lat="52.408214" lon="13.100892">
        <ele>35.046105</ele>
        <time>2026-08-26T09:52:51.899Z</time>
      </trkpt>
      <trkpt lat="52.408141" lon="13.100912">
        <ele>35.164894</ele>
        <time>2026-08-26T09:52:53.420Z</time>
      </trkpt>
      <trkpt lat="52.408095" lon="13.100786">
        <ele>35.308664</ele>
        <time>2026-08-26T09:52:55.520Z</time>
      </trkpt>
      <trkpt lat="52.408210" lon="13.100676">
        <ele>35.522361</ele>
        <time>2026-08-26T09:52:58.615Z</time>
      </trkpt>
      <trkpt lat="52.408414" lon="13.100209">
        <ele>36.084736</ele>
        <time>2026-08-26T09:53:07.059Z</time>
      </trkpt>
      <trkpt lat="52.408485" lon="13.099916">
        <ele>36.393412</ele>
        <time>2026-08-26T09:53:11.934Z</time>
      </trkpt>
      <trkpt lat="52.408572" lon="13.099183">
        <ele>37.124538</ele>
        <time>2026-08-26T09:53:22.644Z</time>
      </trkpt>
      <trkpt lat="52.408603" lon="13.098473">
        <ele>37.999677</ele>
        <time>2026-08-26T09:53:34.266Z</time>
      </trkpt>
      <trkpt lat="52.408613" lon="13.097107">
        <ele>39.764240</ele>
        <time>2026-08-26T09:54:02.353Z</time>
      </trkpt>
      <trkpt lat="52.408567" lon="13.096660">
        <ele>40.349779</ele>
        <time>2026-08-26T09:54:09.115Z</time>
      </trkpt>
      <trkpt lat="52.408510" lon="13.096462">
        <ele>40.632580</ele>
        <time>2026-08-26T09:54:11.894Z</time>
      </trkpt>
      <trkpt lat="52.408489" lon="13.096294">
        <ele>40.854091</ele>
        <time>2026-08-26T09:54:13.752Z</time>
      </trkpt>
      <trkpt lat="52.408492" lon="13.096140">
        <ele>41.053112</ele>
        <time>2026-08-26T09:54:15.585Z</time>
      </trkpt>
      <trkpt lat="52.408539" lon="13.095994">
        <ele>40.811087</ele>
        <time>2026-08-26T09:54:17.366Z</time>
      </trkpt>
      <trkpt lat="52.408690" lon="13.095805">
        <ele>40.272138</ele>
        <time>2026-08-26T09:54:20.684Z</time>
      </trkpt>
      <trkpt lat="52.408881" lon="13.095587">
        <ele>39.611910</ele>
        <time>2026-08-26T09:54:24.278Z</time>
      </trkpt>
      <trkpt lat="52.409076" lon="13.095131">
        <ele>38.648215</ele>
        <time>2026-08-26T09:54:29.231Z</time>
      </trkpt>
      <trkpt lat="52.409095" lon="13.095014">
        <ele>38.438694</ele>
        <time>2026-08-26T09:54:30.272Z</time>
      </trkpt>
      <trkpt lat="52.409114" lon="13.094891">
        <ele>38.219123</ele>
        <time>2026-08-26T09:54:31.333Z</time>
      </trkpt>
      <trkpt lat="52.409123" lon="13.094606">
        <ele>37.725268</ele>
        <time>2026-08-26T09:54:33.727Z</time>
      </trkpt>
      <trkpt lat="52.409187" lon="13.094261">
        <ele>37.101248</ele>
        <time>2026-08-26T09:54:36.703Z</time>
      </trkpt>
      <trkpt lat="52.409191" lon="13.094247">
        <ele>37.074495</ele>
        <time>2026-08-26T09:54:36.832Z</time>
      </trkpt>
      <trkpt lat="52.409208" lon="13.094191">
        <ele>36.966250</ele>
        <time>2026-08-26T09:54:37.337Z</time>
      </trkpt>
      <trkpt lat="52.409450" lon="13.093423">
        <ele>35.783424</ele>
        <time>2026-08-26T09:54:45.192Z</time>
      </trkpt>
      <trkpt lat="52.409597" lon="13.092818">
        <ele>35.363482</ele>
        <time>2026-08-26T09:54:51.536Z</time>
      </trkpt>
      <trkpt lat="52.409701" lon="13.092307">
        <ele>35.016110</ele>
        <time>2026-08-26T09:54:56.836Z</time>
      </trkpt>
      <trkpt lat="52.409737" lon="13.091751">
        <ele>34.655562</ele>
        <time>2026-08-26T09:55:02.959Z</time>
      </trkpt>
      <trkpt lat="52.409660" lon="13.091319">
        <ele>34.365341</ele>
        <time>2026-08-26T09:55:08.953Z</time>
      </trkpt>
      <trkpt lat="52.409600" lon="13.091131">
        <ele>34.228520</ele>
        <time>2026-08-26T09:55:12.146Z</time>
      </trkpt>
      <trkpt lat="52.409475" lon="13.090887">
        <ele>34.065028</ele>
        <time>2026-08-26T09:55:16.787Z</time>
      </trkpt>
      <trkpt lat="52.409170" lon="13.090485">
        <ele>34.037620</ele>
        <time>2026-08-26T09:55:25.848Z</time>
      </trkpt>
      <trkpt lat="52.408750" lon="13.090101">
        <ele>34.003941</ele>
        <time>2026-08-26T09:55:35.860Z</time>
      </trkpt>
      <trkpt lat="52.408696" lon="13.090012">
        <ele>33.998578</ele>
        <time>2026-08-26T09:55:37.332Z</time>
      </trkpt>
      <trkpt lat="52.408680" lon="13.089904">
        <ele>33.993830</ele>
        <time>2026-08-26T09:55:38.751Z</time>
      </trkpt>
      <trkpt lat="52.408695" lon="13.089669">
        <ele>33.983735</ele>
        <time>2026-08-26T09:55:41.566Z</time>
      </trkpt>
      <trkpt lat="52.408726" lon="13.089453">
        <ele>33.974255</ele>
        <time>2026-08-26T09:55:44.108Z</time>
      </trkpt>
      <trkpt lat="52.408801" lon="13.089293">
        <ele>33.965635</ele>
        <time>2026-08-26T09:55:46.313Z</time>
      </trkpt>
      <trkpt lat="52.408833" lon="13.089030">
        <ele>33.954178</ele>
        <time>2026-08-26T09:55:49.127Z</time>
      </trkpt>
      <trkpt lat="52.408784" lon="13.088688">
        <ele>33.934829</ele>
        <time>2026-08-26T09:55:52.732Z</time>
      </trkpt>
      <trkpt lat="52.408660" lon="13.088316">
        <ele>33.889350</ele>
        <time>2026-08-26T09:55:56.914Z</time>
      </trkpt>
      <trkpt lat="52.408558" lon="13.088153">
        <ele>33.864299</ele>
        <time>2026-08-26T09:55:59.171Z</time>
      </trkpt>
      <trkpt lat="52.408289" lon="13.087938">
        <ele>33.811667</ele>
        <time>2026-08-26T09:56:04.029Z</time>
      </trkpt>
      <trkpt lat="52.408182" lon="13.087859">
        <ele>33.791029</ele>
        <time>2026-08-26T09:56:06.066Z</time>
      </trkpt>
      <trkpt lat="52.407656" lon="13.087897">
        <ele>33.698434</ele>
        <time>2026-08-26T09:56:18.747Z</time>
      </trkpt>
      <trkpt lat="52.407649" lon="13.087845">
        <ele>33.692721</ele>
        <time>2026-08-26T09:56:19.431Z</time>
      </trkpt>
      <trkpt lat="52.407528" lon="13.087619">
        <ele>33.660461</ele>
        <time>2026-08-26T09:56:23.573Z</time>
      </trkpt>
      <trkpt lat="52.407192" lon="13.087494">
        <ele>33.583353</ele>
        <time>2026-08-26T09:56:31.056Z</time>
      </trkpt>
      <trkpt lat="52.406935" lon="13.087305">
        <ele>33.502174</ele>
        <time>2026-08-26T09:56:37.271Z</time>
      </trkpt>
      <trkpt lat="52.406916" lon="13.087265">
        <ele>33.493261</ele>
        <time>2026-08-26T09:56:37.912Z</time>
      </trkpt>
      <trkpt lat="52.406846" lon="13.087118">
        <ele>33.460474</ele>
        <time>2026-08-26T09:56:40.256Z</time>
      </trkpt>
      <trkpt lat="52.406653" lon="13.086759">
        <ele>33.376345</ele>
        <time>2026-08-26T09:56:46.043Z</time>
      </trkpt>
      <trkpt lat="52.406578" lon="13.086632">
        <ele>33.345268</ele>
        <time>2026-08-26T09:56:48.208Z</time>
      </trkpt>
      <trkpt lat="52.406369" lon="13.086292">
        <ele>33.260407</ele>
        <time>2026-08-26T09:56:53.333Z</time>
      </trkpt>
      <trkpt lat="52.405651" lon="13.085309">
        <ele>32.785594</ele>
        <time>2026-08-26T09:57:06.831Z</time>
      </trkpt>
      <trkpt lat="52.405186" lon="13.084797">
        <ele>32.339932</ele>
        <time>2026-08-26T09:57:15.635Z</time>
      </trkpt>
      <trkpt lat="52.404664" lon="13.084352">
        <ele>31.871830</ele>
        <time>2026-08-26T09:57:25.173Z</time>
      </trkpt>
      <trkpt lat="52.404234" lon="13.084053">
        <ele>31.673126</ele>
        <time>2026-08-26T09:57:33.265Z</time>
      </trkpt>
      <trkpt lat="52.403447" lon="13.083630">
        <ele>31.660922</ele>
        <time>2026-08-26T09:57:48.737Z</time>
      </trkpt>
      <trkpt lat="52.403146" lon="13.083535">
        <ele>31.656405</ele>
        <time>2026-08-26T09:57:53.932Z</time>
      </trkpt>
      <trkpt lat="52.402637" lon="13.083332">
        <ele>31.660535</ele>
        <time>2026-08-26T09:58:03.939Z</time>
      </trkpt>
      <trkpt lat="52.402516" lon="13.083250">
        <ele>31.677664</ele>
        <time>2026-08-26T09:58:06.521Z</time>
      </trkpt>
      <trkpt lat="52.402170" lon="13.082873">
        <ele>31.732018</ele>
        <time>2026-08-26T09:58:14.748Z</time>
      </trkpt>
      <trkpt lat="52.401814" lon="13.082456">
        <ele>31.789261</ele>
        <time>2026-08-26T09:58:23.223Z</time>
      </trkpt>
      <trkpt lat="52.401140" lon="13.081375">
        <ele>31.843111</ele>
        <time>2026-08-26T09:58:43.539Z</time>
      </trkpt>
      <trkpt lat="52.401297" lon="13.081048">
        <ele>31.792185</ele>
        <time>2026-08-26T09:58:48.926Z</time>
      </trkpt>
      <trkpt lat="52.401075" lon="13.080819">
        <ele>31.739567</ele>
        <time>2026-08-26T09:58:54.223Z</time>
      </trkpt>
      <trkpt lat="52.400669" lon="13.080534">
        <ele>31.650970</ele>
        <time>2026-08-26T09:59:02.546Z</time>
      </trkpt>
      <trkpt lat="52.400428" lon="13.079989">
        <ele>31.568591</ele>
        <time>2026-08-26T09:59:31.096Z</time>
      </trkpt>
      <trkpt lat="52.400410" lon="13.079843">
        <ele>31.550361</ele>
        <time>2026-08-26T09:59:37.419Z</time>
      </trkpt>
      <trkpt lat="52.400333" lon="13.079222">
        <ele>31.405979</ele>
        <time>2026-08-26T10:00:04.288Z</time>
      </trkpt>
      <trkpt lat="52.400601" lon="13.078785">
        <ele>31.231914</ele>
        <time>2026-08-26T10:00:10.874Z</time>
      </trkpt>
      <trkpt lat="52.400258" lon="13.078300">
        <ele>31.023331</ele>
        <time>2026-08-26T10:00:18.357Z</time>
      </trkpt>
      <trkpt lat="52.400146" lon="13.078017">
        <ele>30.928567</ele>
        <time>2026-08-26T10:00:21.751Z</time>
      </trkpt>
      <trkpt lat="52.400123" lon="13.077865">
        <ele>30.884571</ele>
        <time>2026-08-26T10:00:23.408Z</time>
      </trkpt>
      <trkpt lat="52.400132" lon="13.077777">
        <ele>30.859504</ele>
        <time>2026-08-26T10:00:24.363Z</time>
      </trkpt>
      <trkpt lat="52.400405" lon="13.077165">
        <ele>30.780296</ele>
        <time>2026-08-26T10:00:33.069Z</time>
      </trkpt>
      <trkpt lat="52.400461" lon="13.076835">
        <ele>30.943078</ele>
        <time>2026-08-26T10:00:37.227Z</time>
      </trkpt>
      <trkpt lat="52.400446" lon="13.076638">
        <ele>31.037427</ele>
        <time>2026-08-26T10:00:39.683Z</time>
      </trkpt>
      <trkpt lat="52.400377" lon="13.076334">
        <ele>31.191573</ele>
        <time>2026-08-26T10:00:43.866Z</time>
      </trkpt>
      <trkpt lat="52.400347" lon="13.076234">
        <ele>31.244531</ele>
        <time>2026-08-26T10:00:45.297Z</time>
      </trkpt>
      <trkpt lat="52.400253" lon="13.076068">
        <ele>31.352162</ele>
        <time>2026-08-26T10:00:48.280Z</time>
      </trkpt>
      <trkpt lat="52.400173" lon="13.075945">
        <ele>31.437601</ele>
        <time>2026-08-26T10:00:50.628Z</time>
      </trkpt>
      <trkpt lat="52.400058" lon="13.075755">
        <ele>31.564790</ele>
        <time>2026-08-26T10:00:54.102Z</time>
      </trkpt>
      <trkpt lat="52.400001" lon="13.075622">
        <ele>31.642032</ele>
        <time>2026-08-26T10:00:56.182Z</time>
      </trkpt>
      <trkpt lat="52.399987" lon="13.075602">
        <ele>31.656498</ele>
        <time>2026-08-26T10:00:56.573Z</time>
      </trkpt>
      <trkpt lat="52.399977" lon="13.075588">
        <ele>31.666742</ele>
        <time>2026-08-26T10:00:56.857Z</time>
      </trkpt>
      <trkpt lat="52.399681" lon="13.075206">
        <ele>31.960195</ele>
        <time>2026-08-26T10:01:04.739Z</time>
      </trkpt>
      <trkpt lat="52.399627" lon="13.075184">
        <ele>32.003536</ele>
        <time>2026-08-26T10:01:05.895Z</time>
      </trkpt>
      <trkpt lat="52.399365" lon="13.075201">
        <ele>32.142020</ele>
        <time>2026-08-26T10:01:11.173Z</time>
      </trkpt>
      <trkpt lat="52.399073" lon="13.075020">
        <ele>32.240592</ele>
        <time>2026-08-26T10:01:17.087Z</time>
      </trkpt>
      <trkpt lat="52.398784" lon="13.074629">
        <ele>32.358918</ele>
        <time>2026-08-26T10:01:23.953Z</time>
      </trkpt>
      <trkpt lat="52.398586" lon="13.074446">
        <ele>32.430693</ele>
        <time>2026-08-26T10:01:28.006Z</time>
      </trkpt>
      <trkpt lat="52.398098" lon="13.074095">
        <ele>32.598963</ele>
        <time>2026-08-26T10:01:37.461Z</time>
      </trkpt>
      <trkpt lat="52.397537" lon="13.074186">
        <ele>32.695864</ele>
        <time>2026-08-26T10:01:48.455Z</time>
      </trkpt>
      <trkpt lat="52.397403" lon="13.074285">
        <ele>32.708623</ele>
        <time>2026-08-26T10:01:51.355Z</time>
      </trkpt>
      <trkpt lat="52.397121" lon="13.074539">
        <ele>32.736556</ele>
        <time>2026-08-26T10:01:57.342Z</time>
      </trkpt>
      <trkpt lat="52.396970" lon="13.074660">
        <ele>32.751147</ele>
        <time>2026-08-26T10:02:00.382Z</time>
      </trkpt>
      <trkpt lat="52.396850" lon="13.074565">
        <ele>32.762715</ele>
        <time>2026-08-26T10:02:02.743Z</time>
      </trkpt>
      <trkpt lat="52.396570" lon="13.074144">
        <ele>32.795701</ele>
        <time>2026-08-26T10:02:09.362Z</time>
      </trkpt>
      <trkpt lat="52.396400" lon="13.073757">
        <ele>32.820959</ele>
        <time>2026-08-26T10:02:14.451Z</time>
      </trkpt>
      <trkpt lat="52.396345" lon="13.073629">
        <ele>32.786581</ele>
        <time>2026-08-26T10:02:16.090Z</time>
      </trkpt>
      <trkpt lat="52.396218" lon="13.073375">
        <ele>32.711244</ele>
        <time>2026-08-26T10:02:19.663Z</time>
      </trkpt>
      <trkpt lat="52.395926" lon="13.072891">
        <ele>32.555094</ele>
        <time>2026-08-26T10:02:26.224Z</time>
      </trkpt>
      <trkpt lat="52.395832" lon="13.072651">
        <ele>32.489666</ele>
        <time>2026-08-26T10:02:28.902Z</time>
      </trkpt>
      <trkpt lat="52.395710" lon="13.072335">
        <ele>32.403876</ele>
        <time>2026-08-26T10:02:32.465Z</time>
      </trkpt>
      <trkpt lat="52.395604" lon="13.071991">
        <ele>32.315463</ele>
        <time>2026-08-26T10:02:36.910Z</time>
      </trkpt>
      <trkpt lat="52.395523" lon="13.071844">
        <ele>32.270022</ele>
        <time>2026-08-26T10:02:39.264Z</time>
      </trkpt>
      <trkpt lat="52.395303" lon="13.071604">
        <ele>32.170656</ele>
        <time>2026-08-26T10:02:44.603Z</time>
      </trkpt>
      <trkpt lat="52.395212" lon="13.071409">
        <ele>32.126667</ele>
        <time>2026-08-26T10:02:47.720Z</time>
      </trkpt>
      <trkpt lat="52.395131" lon="13.071187">
        <ele>32.091191</ele>
        <time>2026-08-26T10:02:50.973Z</time>
      </trkpt>
      <trkpt lat="52.395083" lon="13.071055">
        <ele>32.070116</ele>
        <time>2026-08-26T10:02:52.833Z</time>
      </trkpt>
      <trkpt lat="52.395018" lon="13.070849">
        <ele>32.038308</ele>
        <time>2026-08-26T10:02:55.591Z</time>
      </trkpt>
      <trkpt lat="52.394987" lon="13.070730">
        <ele>32.020562</ele>
        <time>2026-08-26T10:02:57.104Z</time>
      </trkpt>
      <trkpt lat="52.394921" lon="13.070352">
        <ele>31.966637</ele>
        <time>2026-08-26T10:03:03.926Z</time>
      </trkpt>
      <trkpt lat="52.394915" lon="13.070177">
        <ele>31.942597</ele>
        <time>2026-08-26T10:03:05.918Z</time>
      </trkpt>
      <trkpt lat="52.394919" lon="13.070018">
        <ele>31.920770</ele>
        <time>2026-08-26T10:03:07.761Z</time>
      </trkpt>
      <trkpt lat="52.394965" lon="13.069719">
        <ele>31.878478</ele>
        <time>2026-08-26T10:03:11.318Z</time>
      </trkpt>
      <trkpt lat="52.395010" lon="13.069491">
        <ele>31.845612</ele>
        <time>2026-08-26T10:03:14.123Z</time>
      </trkpt>
      <trkpt lat="52.395175" lon="13.069145">
        <ele>31.785384</ele>
        <time>2026-08-26T10:03:19.271Z</time>
      </trkpt>
      <trkpt lat="52.395234" lon="13.069022">
        <ele>31.763925</ele>
        <time>2026-08-26T10:03:21.051Z</time>
      </trkpt>
      <trkpt lat="52.395233" lon="13.068838">
        <ele>31.742611</ele>
        <time>2026-08-26T10:03:23.125Z</time>
      </trkpt>
      <trkpt lat="52.395193" lon="13.068638">
        <ele>31.769311</ele>
        <time>2026-08-26T10:03:25.502Z</time>
      </trkpt>
      <trkpt lat="52.395019" lon="13.068154">
        <ele>31.840576</ele>
        <time>2026-08-26T10:03:31.799Z</time>
      </trkpt>
      <trkpt lat="52.394744" lon="13.067568">
        <ele>31.934358</ele>
        <time>2026-08-26T10:03:40.537Z</time>
      </trkpt>
      <trkpt lat="52.394534" lon="13.067049">
        <ele>32.013359</ele>
        <time>2026-08-26T10:03:48.709Z</time>
      </trkpt>
      <trkpt lat="52.394147" lon="13.065740">
        <ele>32.425708</ele>
        <time>2026-08-26T10:04:08.639Z</time>
      </trkpt>
      <trkpt lat="52.394016" lon="13.065485">
        <ele>32.583750</ele>
        <time>2026-08-26T10:04:13.278Z</time>
      </trkpt>
      <trkpt lat="52.393950" lon="13.065363">
        <ele>32.661051</ele>
        <time>2026-08-26T10:04:15.429Z</time>
      </trkpt>
      <trkpt lat="52.393356" lon="13.064471">
        <ele>33.287044</ele>
        <time>2026-08-26T10:04:33.083Z</time>
      </trkpt>
      <trkpt lat="52.393375" lon="13.064431">
        <ele>33.311077</ele>
        <time>2026-08-26T10:04:33.673Z</time>
      </trkpt>
      <trkpt lat="52.393142" lon="13.063972">
        <ele>33.405993</ele>
        <time>2026-08-26T10:04:40.026Z</time>
      </trkpt>
      <trkpt lat="52.392952" lon="13.063394">
        <ele>33.003085</ele>
        <time>2026-08-26T10:04:46.392Z</time>
      </trkpt>
      <trkpt lat="52.392941" lon="13.063290">
        <ele>32.938308</ele>
        <time>2026-08-26T10:04:47.809Z</time>
      </trkpt>
      <trkpt lat="52.392939" lon="13.063276">
        <ele>32.929484</ele>
        <time>2026-08-26T10:04:47.991Z</time>
      </trkpt>
      <trkpt lat="52.392603" lon="13.062642">
        <ele>32.414152</ele>
        <time>2026-08-26T10:04:55.933Z</time>
      </trkpt>
      <trkpt lat="52.392573" lon="13.062588">
        <ele>32.369335</ele>
        <time>2026-08-26T10:04:56.844Z</time>
      </trkpt>
      <trkpt lat="52.392524" lon="13.062588">
        <ele>32.320058</ele>
        <time>2026-08-26T10:04:57.806Z</time>
      </trkpt>
      <trkpt lat="52.392505" lon="13.062551">
        <ele>32.290381</ele>
        <time>2026-08-26T10:04:58.239Z</time>
      </trkpt>
      <trkpt lat="52.392425" lon="13.062354">
        <ele>32.145158</ele>
        <time>2026-08-26T10:05:00.402Z</time>
      </trkpt>
      <trkpt lat="52.392409" lon="13.062311">
        <ele>32.114250</ele>
        <time>2026-08-26T10:05:00.851Z</time>
      </trkpt>
      <trkpt lat="52.392223" lon="13.062188">
        <ele>31.912539</ele>
        <time>2026-08-26T10:05:03.678Z</time>
      </trkpt>
      <trkpt lat="52.392040" lon="13.061810">
        <ele>31.642570</ele>
        <time>2026-08-26T10:05:07.805Z</time>
      </trkpt>
      <trkpt lat="52.392067" lon="13.061453">
        <ele>31.488234</ele>
        <time>2026-08-26T10:05:11.006Z</time>
      </trkpt>
      <trkpt lat="52.391962" lon="13.061215">
        <ele>31.362236</ele>
        <time>2026-08-26T10:05:13.741Z</time>
      </trkpt>
      <trkpt lat="52.391577" lon="13.060729">
        <ele>31.020567</ele>
        <time>2026-08-26T10:05:21.679Z</time>
      </trkpt>
      <trkpt lat="52.391425" lon="13.060735">
        <ele>30.913675</ele>
        <time>2026-08-26T10:05:25.041Z</time>
      </trkpt>
      <trkpt lat="52.391401" lon="13.060626">
        <ele>30.863960</ele>
        <time>2026-08-26T10:05:26.605Z</time>
      </trkpt>
      <trkpt lat="52.391244" lon="13.060268">
        <ele>30.674818</ele>
        <time>2026-08-26T10:05:32.784Z</time>
      </trkpt>
      <trkpt lat="52.391081" lon="13.060010">
        <ele>30.515493</ele>
        <time>2026-08-26T10:05:38.135Z</time>
      </trkpt>
      <trkpt lat="52.390853" lon="13.059800">
        <ele>30.493532</ele>
        <time>2026-08-26T10:05:44.201Z</time>
      </trkpt>
      <trkpt lat="52.390490" lon="13.059566">
        <ele>30.633546</ele>
        <time>2026-08-26T10:05:53.080Z</time>
      </trkpt>
      <trkpt lat="52.390426" lon="13.059520">
        <ele>30.658630</ele>
        <time>2026-08-26T10:05:54.675Z</time>
      </trkpt>
      <trkpt lat="52.390233" lon="13.059380">
        <ele>30.734389</ele>
        <time>2026-08-26T10:05:59.687Z</time>
      </trkpt>
      <trkpt lat="52.390187" lon="13.059353">
        <ele>30.751928</ele>
        <time>2026-08-26T10:06:00.915Z</time>
      </trkpt>
      <trkpt lat="52.389712" lon="13.059137">
        <ele>30.928866</ele>
        <time>2026-08-26T10:06:13.256Z</time>
      </trkpt>
      <trkpt lat="52.389350" lon="13.059021">
        <ele>31.061262</ele>
        <time>2026-08-26T10:06:22.581Z</time>
      </trkpt>
      <trkpt lat="52.389135" lon="13.058963">
        <ele>31.282686</ele>
        <time>2026-08-26T10:06:28.381Z</time>
      </trkpt>
      <trkpt lat="52.389028" lon="13.058980">
        <ele>31.421620</ele>
        <time>2026-08-26T10:06:31.239Z</time>
      </trkpt>
      <trkpt lat="52.388876" lon="13.058931">
        <ele>31.621829</ele>
        <time>2026-08-26T10:06:35.488Z</time>
      </trkpt>
      <trkpt lat="52.388589" lon="13.058837">
        <ele>32.000083</ele>
        <time>2026-08-26T10:06:43.996Z</time>
      </trkpt>
      <trkpt lat="52.388377" lon="13.058926">
        <ele>32.282919</ele>
        <time>2026-08-26T10:06:50.953Z</time>
      </trkpt>
      <trkpt lat="52.388221" lon="13.058905">
        <ele>32.485211</ele>
        <time>2026-08-26T10:06:55.734Z</time>
      </trkpt>
      <trkpt lat="52.388200" lon="13.058801">
        <ele>32.571615</ele>
        <time>2026-08-26T10:06:57.397Z</time>
      </trkpt>
      <trkpt lat="52.387796" lon="13.058300">
        <ele>33.226423</ele>
        <time>2026-08-26T10:07:08.444Z</time>
      </trkpt>
      <trkpt lat="52.387694" lon="13.058077">
        <ele>33.408341</ele>
        <time>2026-08-26T10:07:12.031Z</time>
      </trkpt>
      <trkpt lat="52.387607" lon="13.058058">
        <ele>33.406485</ele>
        <time>2026-08-26T10:07:13.891Z</time>
      </trkpt>
      <trkpt lat="52.387408" lon="13.057735">
        <ele>33.400563</ele>
        <time>2026-08-26T10:07:19.158Z</time>
      </trkpt>
      <trkpt lat="52.387366" lon="13.057613">
        <ele>33.398756</ele>
        <time>2026-08-26T10:07:20.622Z</time>
      </trkpt>
      <trkpt lat="52.387318" lon="13.057126">
        <ele>33.392390</ele>
        <time>2026-08-26T10:07:25.943Z</time>
      </trkpt>
      <trkpt lat="52.387105" lon="13.056365">
        <ele>33.381587</ele>
        <time>2026-08-26T10:07:34.377Z</time>
      </trkpt>
      <trkpt lat="52.387040" lon="13.056267">
        <ele>33.379719</ele>
        <time>2026-08-26T10:07:35.738Z</time>
      </trkpt>
      <trkpt lat="52.386860" lon="13.056245">
        <ele>33.375903</ele>
        <time>2026-08-26T10:07:38.619Z</time>
      </trkpt>
      <trkpt lat="52.386786" lon="13.056164">
        <ele>33.374021</ele>
        <time>2026-08-26T10:07:40.099Z</time>
      </trkpt>
      <trkpt lat="52.386645" lon="13.055888">
        <ele>33.402363</ele>
        <time>2026-08-26T10:07:43.867Z</time>
      </trkpt>
      <trkpt lat="52.386562" lon="13.055787">
        <ele>33.446821</ele>
        <time>2026-08-26T10:07:45.759Z</time>
      </trkpt>
      <trkpt lat="52.386459" lon="13.055720">
        <ele>33.494475</ele>
        <time>2026-08-26T10:07:47.817Z</time>
      </trkpt>
      <trkpt lat="52.386219" lon="13.055193">
        <ele>33.667046</ele>
        <time>2026-08-26T10:07:55.600Z</time>
      </trkpt>
      <trkpt lat="52.385979" lon="13.054911">
        <ele>33.794044</ele>
        <time>2026-08-26T10:08:01.838Z</time>
      </trkpt>
      <trkpt lat="52.385964" lon="13.054866">
        <ele>33.807501</ele>
        <time>2026-08-26T10:08:02.509Z</time>
      </trkpt>
      <trkpt lat="52.385807" lon="13.054404">
        <ele>33.946282</ele>
        <time>2026-08-26T10:08:09.180Z</time>
      </trkpt>
      <trkpt lat="52.385719" lon="13.054358">
        <ele>33.986002</ele>
        <time>2026-08-26T10:08:11.030Z</time>
      </trkpt>
      <trkpt lat="52.385384" lon="13.054536">
        <ele>34.137441</ele>
        <time>2026-08-26T10:08:17.645Z</time>
      </trkpt>
      <trkpt lat="52.385191" lon="13.054575">
        <ele>34.161397</ele>
        <time>2026-08-26T10:08:21.130Z</time>
      </trkpt>
      <trkpt lat="52.385109" lon="13.054643">
        <ele>34.170176</ele>
        <time>2026-08-26T10:08:22.844Z</time>
      </trkpt>
      <trkpt lat="52.385168" lon="13.053102">
        <ele>34.260193</ele>
        <time>2026-08-26T10:08:39.591Z</time>
      </trkpt>
      <trkpt lat="52.385135" lon="13.052845">
        <ele>34.275504</ele>
        <time>2026-08-26T10:08:42.348Z</time>
      </trkpt>
      <trkpt lat="52.385190" lon="13.051862">
        <ele>34.346166</ele>
        <time>2026-08-26T10:08:52.998Z</time>
      </trkpt>
      <trkpt lat="52.385187" lon="13.051468">
        <ele>34.386972</ele>
        <time>2026-08-26T10:08:57.787Z</time>
      </trkpt>
      <trkpt lat="52.384879" lon="13.050003">
        <ele>34.547441</ele>
        <time>2026-08-26T10:09:16.148Z</time>
      </trkpt>
      <trkpt lat="52.384855" lon="13.049657">
        <ele>34.583504</ele>
        <time>2026-08-26T10:09:19.928Z</time>
      </trkpt>
      <trkpt lat="52.384868" lon="13.049166">
        <ele>34.573039</ele>
        <time>2026-08-26T10:09:25.043Z</time>
      </trkpt>
      <trkpt lat="52.384675" lon="13.047796">
        <ele>34.033947</ele>
        <time>2026-08-26T10:09:38.697Z</time>
      </trkpt>
      <trkpt lat="52.384548" lon="13.047057">
        <ele>33.739583</ele>
        <time>2026-08-26T10:09:45.990Z</time>
      </trkpt>
      <trkpt lat="52.384332" lon="13.045651">
        <ele>33.209300</ele>
        <time>2026-08-26T10:10:00.393Z</time>
      </trkpt>
      <trkpt lat="52.384348" lon="13.045412">
        <ele>33.124787</ele>
        <time>2026-08-26T10:10:02.799Z</time>
      </trkpt>
      <trkpt lat="52.384417" lon="13.045199">
        <ele>33.040025</ele>
        <time>2026-08-26T10:10:05.184Z</time>
      </trkpt>
      <trkpt lat="52.385043" lon="13.044472">
        <ele>32.598131</ele>
        <time>2026-08-26T10:10:17.375Z</time>
      </trkpt>
      <trkpt lat="52.385149" lon="13.044353">
        <ele>32.524131</ele>
        <time>2026-08-26T10:10:21.024Z</time>
      </trkpt>
      <trkpt lat="52.385174" lon="13.044318">
        <ele>32.505193</ele>
        <time>2026-08-26T10:10:21.576Z</time>
      </trkpt>
      <trkpt lat="52.385241" lon="13.044225">
        <ele>32.455629</ele>
        <time>2026-08-26T10:10:23.063Z</time>
      </trkpt>
      <trkpt lat="52.385463" lon="13.044210">
        <ele>32.454834</ele>
        <time>2026-08-26T10:10:26.917Z</time>
      </trkpt>
      <trkpt lat="52.385754" lon="13.044111">
        <ele>32.453770</ele>
        <time>2026-08-26T10:10:32.200Z</time>
      </trkpt>
      <trkpt lat="52.385930" lon="13.044010">
        <ele>32.453102</ele>
        <time>2026-08-26T10:10:35.595Z</time>
      </trkpt>
      <trkpt lat="52.386043" lon="13.043898">
        <ele>32.452629</ele>
        <time>2026-08-26T10:10:38.013Z</time>
      </trkpt>
      <trkpt lat="52.386228" lon="13.043604">
        <ele>32.451706</ele>
        <time>2026-08-26T10:10:42.672Z</time>
      </trkpt>
      <trkpt lat="52.386388" lon="13.043348">
        <ele>32.450906</ele>
        <time>2026-08-26T10:10:46.723Z</time>
      </trkpt>
      <trkpt lat="52.386672" lon="13.042896">
        <ele>32.449488</ele>
        <time>2026-08-26T10:10:54.042Z</time>
      </trkpt>
      <trkpt lat="52.386221" lon="13.042286">
        <ele>32.364880</ele>
        <time>2026-08-26T10:11:04.425Z</time>
      </trkpt>
      <trkpt lat="52.386201" lon="13.042251">
        <ele>32.359976</ele>
        <time>2026-08-26T10:11:04.919Z</time>
      </trkpt>
      <trkpt lat="52.385876" lon="13.041723">
        <ele>32.283282</ele>
        <time>2026-08-26T10:11:12.433Z</time>
      </trkpt>
      <trkpt lat="52.385543" lon="13.041112">
        <ele>32.199505</ele>
        <time>2026-08-26T10:11:20.703Z</time>
      </trkpt>
      <trkpt lat="52.385440" lon="13.041008">
        <ele>32.179231</ele>
        <time>2026-08-26T10:11:22.813Z</time>
      </trkpt>
      <trkpt lat="52.385221" lon="13.041080">
        <ele>32.175046</ele>
        <time>2026-08-26T10:11:26.748Z</time>
      </trkpt>
      <trkpt lat="52.385171" lon="13.041118">
        <ele>32.217011</ele>
        <time>2026-08-26T10:11:27.740Z</time>
      </trkpt>
      <trkpt lat="52.385124" lon="13.041163">
        <ele>32.258457</ele>
        <time>2026-08-26T10:11:28.736Z</time>
      </trkpt>
      <trkpt lat="52.384685" lon="13.041627">
        <ele>32.656213</ele>
        <time>2026-08-26T10:11:38.916Z</time>
      </trkpt>
      <trkpt lat="52.384537" lon="13.041831">
        <ele>32.803469</ele>
        <time>2026-08-26T10:11:42.806Z</time>
      </trkpt>
      <trkpt lat="52.384430" lon="13.042004">
        <ele>32.917925</ele>
        <time>2026-08-26T10:11:45.781Z</time>
      </trkpt>
      <trkpt lat="52.384196" lon="13.042470">
        <ele>33.198348</ele>
        <time>2026-08-26T10:11:53.497Z</time>
      </trkpt>
      <trkpt lat="52.384181" lon="13.042497">
        <ele>33.215314</ele>
        <time>2026-08-26T10:11:53.983Z</time>
      </trkpt>
      <trkpt lat="52.384113" lon="13.042667">
        <ele>33.309768</ele>
        <time>2026-08-26T10:11:56.704Z</time>
      </trkpt>
      <trkpt lat="52.384074" lon="13.042788">
        <ele>33.373357</ele>
        <time>2026-08-26T10:11:58.573Z</time>
      </trkpt>
      <trkpt lat="52.383871" lon="13.043568">
        <ele>33.937374</ele>
        <time>2026-08-26T10:12:10.151Z</time>
      </trkpt>
      <trkpt lat="52.383806" lon="13.043751">
        <ele>34.102614</ele>
        <time>2026-08-26T10:12:13.184Z</time>
      </trkpt>
      <trkpt lat="52.383407" lon="13.044203">
        <ele>34.722861</ele>
        <time>2026-08-26T10:12:24.328Z</time>
      </trkpt>
      <trkpt lat="52.383006" lon="13.044653">
        <ele>35.344331</ele>
        <time>2026-08-26T10:12:34.978Z</time>
      </trkpt>
      <trkpt lat="52.382900" lon="13.044779">
        <ele>35.511779</ele>
        <time>2026-08-26T10:12:37.832Z</time>
      </trkpt>
      <trkpt lat="52.382879" lon="13.044802">
        <ele>35.544078</ele>
        <time>2026-08-26T10:12:38.345Z</time>
      </trkpt>
      <trkpt lat="52.382745" lon="13.044352">
        <ele>35.816800</ele>
        <time>2026-08-26T10:12:44.719Z</time>
      </trkpt>
      <trkpt lat="52.382572" lon="13.044068">
        <ele>35.816277</ele>
        <time>2026-08-26T10:12:49.589Z</time>
      </trkpt>
      <trkpt lat="52.382466" lon="13.043897">
        <ele>35.815959</ele>
        <time>2026-08-26T10:12:52.414Z</time>
      </trkpt>
      <trkpt lat="52.382091" lon="13.043441">
        <ele>35.814962</ele>
        <time>2026-08-26T10:13:00.665Z</time>
      </trkpt>
      <trkpt lat="52.382046" lon="13.043537">
        <ele>35.814804</ele>
        <time>2026-08-26T10:13:02.295Z</time>
      </trkpt>
      <trkpt lat="52.382019" lon="13.043602">
        <ele>35.814702</ele>
        <time>2026-08-26T10:13:03.356Z</time>
      </trkpt>
      <trkpt lat="52.382144" lon="13.043727">
        <ele>35.814389</ele>
        <time>2026-08-26T10:13:05.744Z</time>
      </trkpt>
      <trkpt lat="52.381984" lon="13.043690">
        <ele>35.814044</ele>
        <time>2026-08-26T10:13:10.232Z</time>
      </trkpt>
      <trkpt lat="52.380273" lon="13.043353">
        <ele>35.677890</ele>
        <time>2026-08-26T10:13:41.960Z</time>
      </trkpt>
      <trkpt lat="52.378428" lon="13.043031">
        <ele>36.755907</ele>
        <time>2026-08-26T10:14:21.066Z</time>
      </trkpt>
      <trkpt lat="52.378209" lon="13.042919">
        <ele>36.945745</ele>
        <time>2026-08-26T10:14:25.980Z</time>
      </trkpt>
      <trkpt lat="52.377987" lon="13.042806">
        <ele>37.142316</ele>
        <time>2026-08-26T10:14:31.080Z</time>
      </trkpt>
      <trkpt lat="52.377630" lon="13.042604">
        <ele>37.512745</ele>
        <time>2026-08-26T10:14:43.797Z</time>
      </trkpt>
      <trkpt lat="52.376651" lon="13.041941">
        <ele>38.551726</ele>
        <time>2026-08-26T10:15:19.043Z</time>
      </trkpt>
      <trkpt lat="52.376112" lon="13.041535">
        <ele>39.089073</ele>
        <time>2026-08-26T10:15:37.900Z</time>
      </trkpt>
      <trkpt lat="52.374952" lon="13.039682">
        <ele>40.546017</ele>
        <time>2026-08-26T10:16:28.675Z</time>
      </trkpt>
      <trkpt lat="52.374393" lon="13.040642">
        <ele>42.665522</ele>
        <time>2026-08-26T10:16:59.569Z</time>
      </trkpt>
      <trkpt lat="52.374344" lon="13.041599">
        <ele>44.199833</ele>
        <time>2026-08-26T10:17:23.599Z</time>
      </trkpt>
      <trkpt lat="52.374302" lon="13.042424">
        <ele>45.408690</ele>
        <time>2026-08-26T10:17:43.446Z</time>
      </trkpt>
      <trkpt lat="52.374280" lon="13.042963">
        <ele>46.067552</ele>
        <time>2026-08-26T10:17:55.912Z</time>
      </trkpt>
      <trkpt lat="52.374192" lon="13.043619">
        <ele>46.886735</ele>
        <time>2026-08-26T10:18:11.184Z</time>
      </trkpt>
      <trkpt lat="52.373961" lon="13.044639">
        <ele>48.213628</ele>
        <time>2026-08-26T10:18:34.684Z</time>
      </trkpt>
      <trkpt lat="52.373756" lon="13.045522">
        <ele>48.648357</ele>
        <time>2026-08-26T10:18:53.039Z</time>
      </trkpt>
      <trkpt lat="52.373718" lon="13.045685">
        <ele>48.652275</ele>
        <time>2026-08-26T10:18:56.218Z</time>
      </trkpt>
      <trkpt lat="52.373678" lon="13.045963">
        <ele>48.658689</ele>
        <time>2026-08-26T10:19:01.283Z</time>
      </trkpt>
      <trkpt lat="52.373635" lon="13.046263">
        <ele>48.665609</ele>
        <time>2026-08-26T10:19:06.601Z</time>
      </trkpt>
      <trkpt lat="52.373480" lon="13.046575">
        <ele>48.674642</ele>
        <time>2026-08-26T10:19:13.398Z</time>
      </trkpt>
      <trkpt lat="52.373022" lon="13.047036">
        <ele>48.694414</ele>
        <time>2026-08-26T10:19:28.358Z</time>
      </trkpt>
      <trkpt lat="52.372944" lon="13.047221">
        <ele>48.699463</ele>
        <time>2026-08-26T10:19:32.221Z</time>
      </trkpt>
      <trkpt lat="52.372849" lon="13.047326">
        <ele>48.836429</ele>
        <time>2026-08-26T10:19:35.616Z</time>
      </trkpt>
      <trkpt lat="52.372695" lon="13.047326">
        <ele>49.128968</ele>
        <time>2026-08-26T10:19:40.347Z</time>
      </trkpt>
      <trkpt lat="52.372606" lon="13.047382">
        <ele>49.310079</ele>
        <time>2026-08-26T10:19:43.410Z</time>
      </trkpt>
      <trkpt lat="52.372372" lon="13.047549">
        <ele>49.794948</ele>
        <time>2026-08-26T10:19:51.880Z</time>
      </trkpt>
      <trkpt lat="52.372096" lon="13.048137">
        <ele>50.655137</ele>
        <time>2026-08-26T10:20:08.019Z</time>
      </trkpt>
      <trkpt lat="52.371659" lon="13.048758">
        <ele>51.754150</ele>
        <time>2026-08-26T10:20:30.734Z</time>
      </trkpt>
      <trkpt lat="52.371252" lon="13.049100">
        <ele>52.778445</ele>
        <time>2026-08-26T10:20:49.494Z</time>
      </trkpt>
      <trkpt lat="52.371054" lon="13.049164">
        <ele>53.279678</ele>
        <time>2026-08-26T10:20:57.995Z</time>
      </trkpt>
      <trkpt lat="52.369826" lon="13.047693">
        <ele>56.704947</ele>
        <time>2026-08-26T10:21:54.450Z</time>
      </trkpt>
      <trkpt lat="52.369061" lon="13.046795">
        <ele>57.298128</ele>
        <time>2026-08-26T10:22:23.306Z</time>
      </trkpt>
      <trkpt lat="52.367978" lon="13.045631">
        <ele>58.071027</ele>
        <time>2026-08-26T10:23:02.270Z</time>
      </trkpt>
      <trkpt lat="52.367735" lon="13.045371">
        <ele>58.233871</ele>
        <time>2026-08-26T10:23:11.657Z</time>
      </trkpt>
      <trkpt lat="52.367639" lon="13.045256">
        <ele>58.300599</ele>
        <time>2026-08-26T10:23:15.511Z</time>
      </trkpt>
      <trkpt lat="52.367735" lon="13.045371">
        <ele>58.367327</ele>
        <time>2026-08-26T10:23:19.371Z</time>
      </trkpt>
      <trkpt lat="52.367292" lon="13.046468">
        <ele>58.780745</ele>
        <time>2026-08-26T10:23:45.280Z</time>
      </trkpt>
      <trkpt lat="52.367222" lon="13.046684">
        <ele>58.830103</ele>
        <time>2026-08-26T10:23:49.996Z</time>
      </trkpt>
      <trkpt lat="52.366390" lon="13.048708">
        <ele>59.322012</ele>
        <time>2026-08-26T10:24:35.495Z</time>
      </trkpt>
      <trkpt lat="52.364947" lon="13.052213">
        <ele>58.882087</ele>
        <time>2026-08-26T10:25:51.485Z</time>
      </trkpt>
      <trkpt lat="52.363819" lon="13.054953">
        <ele>57.716065</ele>
        <time>2026-08-26T10:26:46.767Z</time>
      </trkpt>
      <trkpt lat="52.363784" lon="13.055039">
        <ele>57.673324</ele>
        <time>2026-08-26T10:26:48.527Z</time>
      </trkpt>
      <trkpt lat="52.362668" lon="13.057763">
        <ele>57.170934</ele>
        <time>2026-08-26T10:27:45.187Z</time>
      </trkpt>
      <trkpt lat="52.362027" lon="13.059311">
        <ele>59.426908</ele>
        <time>2026-08-26T10:28:22.436Z</time>
      </trkpt>
      <trkpt lat="52.362363" lon="13.059637">
        <ele>60.862523</ele>
        <time>2026-08-26T10:28:34.141Z</time>
      </trkpt>
      <trkpt lat="52.362465" lon="13.060581">
        <ele>63.014472</ele>
        <time>2026-08-26T10:29:00.755Z</time>
      </trkpt>
      <trkpt lat="52.362482" lon="13.062157">
        <ele>70.114967</ele>
        <time>2026-08-26T10:29:53.287Z</time>
      </trkpt>
      <trkpt lat="52.362591" lon="13.063167">
        <ele>75.374984</ele>
        <time>2026-08-26T10:30:31.090Z</time>
      </trkpt>
      <trkpt lat="52.362573" lon="13.065921">
        <ele>86.496172</ele>
        <time>2026-08-26T10:32:09.303Z</time>
      </trkpt>
      <trkpt lat="52.362643" lon="13.067334">
        <ele>88.879338</ele>
        <time>2026-08-26T10:32:36.234Z</time>
      </trkpt>
      <trkpt lat="52.362555" lon="13.067725">
        <ele>88.235714</ele>
        <time>2026-08-26T10:32:42.035Z</time>
      </trkpt>
      <trkpt lat="52.362477" lon="13.067881">
        <ele>87.924303</ele>
        <time>2026-08-26T10:32:44.773Z</time>
      </trkpt>
      <trkpt lat="52.362550" lon="13.068500">
        <ele>86.950568</ele>
        <time>2026-08-26T10:32:53.309Z</time>
      </trkpt>
      <trkpt lat="52.362670" lon="13.069105">
        <ele>85.968068</ele>
        <time>2026-08-26T10:33:01.793Z</time>
      </trkpt>
      <trkpt lat="52.363200" lon="13.071156">
        <ele>84.607274</ele>
        <time>2026-08-26T10:33:37.813Z</time>
      </trkpt>
      <trkpt lat="52.363437" lon="13.071811">
        <ele>84.357796</ele>
        <time>2026-08-26T10:33:53.198Z</time>
      </trkpt>
      <trkpt lat="52.363025" lon="13.072793">
        <ele>84.493194</ele>
        <time>2026-08-26T10:34:16.706Z</time>
      </trkpt>
      <trkpt lat="52.362462" lon="13.074136">
        <ele>85.155924</ele>
        <time>2026-08-26T10:34:47.677Z</time>
      </trkpt>
      <trkpt lat="52.362150" lon="13.074880">
        <ele>85.598170</ele>
        <time>2026-08-26T10:35:05.204Z</time>
      </trkpt>
      <trkpt lat="52.361810" lon="13.075688">
        <ele>86.241274</ele>
        <time>2026-08-26T10:35:25.808Z</time>
      </trkpt>
      <trkpt lat="52.361934" lon="13.075928">
        <ele>86.447313</ele>
        <time>2026-08-26T10:35:32.283Z</time>
      </trkpt>
      <trkpt lat="52.362103" lon="13.076012">
        <ele>86.636861</ele>
        <time>2026-08-26T10:35:37.986Z</time>
      </trkpt>
      <trkpt lat="52.362374" lon="13.076241">
        <ele>86.964148</ele>
        <time>2026-08-26T10:35:47.788Z</time>
      </trkpt>
      <trkpt lat="52.362532" lon="13.075826">
        <ele>87.284664</ele>
        <time>2026-08-26T10:35:55.153Z</time>
      </trkpt>
      <trkpt lat="52.362486" lon="13.075730">
        <ele>87.311897</ele>
        <time>2026-08-26T10:36:00.302Z</time>
      </trkpt>
      <trkpt lat="52.362513" lon="13.075670">
        <ele>87.285029</ele>
        <time>2026-08-26T10:36:03.459Z</time>
      </trkpt>
      <trkpt lat="52.362425" lon="13.075474">
        <ele>87.197331</ele>
        <time>2026-08-26T10:36:13.809Z</time>
      </trkpt>
      <trkpt lat="52.362333" lon="13.075420">
        <ele>87.139638</ele>
        <time>2026-08-26T10:36:20.567Z</time>
      </trkpt>
      <trkpt lat="52.362376" lon="13.075158">
        <ele>87.041838</ele>
        <time>2026-08-26T10:36:32.100Z</time>
      </trkpt>
      <trkpt lat="52.362333" lon="13.075420">
        <ele>86.944038</ele>
        <time>2026-08-26T10:36:43.634Z</time>
      </trkpt>
      <trkpt lat="52.362425" lon="13.075474">
        <ele>86.886345</ele>
        <time>2026-08-26T10:36:50.392Z</time>
      </trkpt>
      <trkpt lat="52.362513" lon="13.075670">
        <ele>86.798647</ele>
        <time>2026-08-26T10:37:00.741Z</time>
      </trkpt>
      <trkpt lat="52.362486" lon="13.075730">
        <ele>86.771779</ele>
        <time>2026-08-26T10:37:03.897Z</time>
      </trkpt>
      <trkpt lat="52.362532" lon="13.075826">
        <ele>86.727790</ele>
        <time>2026-08-26T10:37:09.046Z</time>
      </trkpt>
      <trkpt lat="52.362374" lon="13.076241">
        <ele>86.551493</ele>
        <time>2026-08-26T10:37:14.127Z</time>
      </trkpt>
      <trkpt lat="52.362913" lon="13.076949">
        <ele>85.220479</ele>
        <time>2026-08-26T10:37:23.959Z</time>
      </trkpt>
      <trkpt lat="52.363240" lon="13.077282">
        <ele>83.317612</ele>
        <time>2026-08-26T10:37:28.772Z</time>
      </trkpt>
      <trkpt lat="52.363372" lon="13.077324">
        <ele>82.653122</ele>
        <time>2026-08-26T10:37:30.419Z</time>
      </trkpt>
      <trkpt lat="52.363453" lon="13.077339">
        <ele>82.250301</ele>
        <time>2026-08-26T10:37:31.418Z</time>
      </trkpt>
      <trkpt lat="52.364501" lon="13.078518">
        <ele>75.528744</ele>
        <time>2026-08-26T10:37:46.190Z</time>
      </trkpt>
      <trkpt lat="52.365710" lon="13.079880">
        <ele>66.027750</ele>
        <time>2026-08-26T10:38:03.191Z</time>
      </trkpt>
      <trkpt lat="52.366332" lon="13.080581">
        <ele>60.941517</ele>
        <time>2026-08-26T10:38:11.887Z</time>
      </trkpt>
      <trkpt lat="52.366611" lon="13.080904">
        <ele>58.634236</ele>
        <time>2026-08-26T10:38:15.786Z</time>
      </trkpt>
      <trkpt lat="52.367557" lon="13.082000">
        <ele>51.618456</ele>
        <time>2026-08-26T10:38:29.116Z</time>
      </trkpt>
      <trkpt lat="52.367791" lon="13.082428">
        <ele>49.939277</ele>
        <time>2026-08-26T10:38:33.278Z</time>
      </trkpt>
      <trkpt lat="52.367835" lon="13.082509">
        <ele>49.622397</ele>
        <time>2026-08-26T10:38:34.080Z</time>
      </trkpt>
      <trkpt lat="52.368581" lon="13.084536">
        <ele>43.890735</ele>
        <time>2026-08-26T10:39:07.623Z</time>
      </trkpt>
      <trkpt lat="52.368698" lon="13.084853">
        <ele>43.372600</ele>
        <time>2026-08-26T10:39:13.130Z</time>
      </trkpt>
      <trkpt lat="52.368965" lon="13.085546">
        <ele>42.226384</ele>
        <time>2026-08-26T10:39:25.706Z</time>
      </trkpt>
      <trkpt lat="52.369173" lon="13.086064">
        <ele>41.359168</ele>
        <time>2026-08-26T10:39:35.539Z</time>
      </trkpt>
      <trkpt lat="52.369334" lon="13.086595">
        <ele>40.712480</ele>
        <time>2026-08-26T10:39:45.174Z</time>
      </trkpt>
      <trkpt lat="52.369446" lon="13.086906">
        <ele>40.487960</ele>
        <time>2026-08-26T10:39:51.020Z</time>
      </trkpt>
      <trkpt lat="52.369769" lon="13.087933">
        <ele>39.769607</ele>
        <time>2026-08-26T10:40:09.837Z</time>
      </trkpt>
      <trkpt lat="52.369976" lon="13.088357">
        <ele>39.432035</ele>
        <time>2026-08-26T10:40:19.023Z</time>
      </trkpt>
      <trkpt lat="52.370182" lon="13.088653">
        <ele>39.152944</ele>
        <time>2026-08-26T10:40:26.593Z</time>
      </trkpt>
      <trkpt lat="52.370213" lon="13.088843">
        <ele>39.030654</ele>
        <time>2026-08-26T10:40:29.935Z</time>
      </trkpt>
      <trkpt lat="52.370405" lon="13.088906">
        <ele>38.942152</ele>
        <time>2026-08-26T10:40:35.409Z</time>
      </trkpt>
      <trkpt lat="52.370663" lon="13.089450">
        <ele>38.756727</ele>
        <time>2026-08-26T10:40:47.140Z</time>
      </trkpt>
      <trkpt lat="52.370851" lon="13.089624">
        <ele>38.661523</ele>
        <time>2026-08-26T10:40:53.152Z</time>
      </trkpt>
      <trkpt lat="52.370924" lon="13.089980">
        <ele>38.560434</ele>
        <time>2026-08-26T10:40:59.618Z</time>
      </trkpt>
      <trkpt lat="52.370951" lon="13.090062">
        <ele>38.535356</ele>
        <time>2026-08-26T10:41:00.566Z</time>
      </trkpt>
      <trkpt lat="52.370997" lon="13.090192">
        <ele>38.494910</ele>
        <time>2026-08-26T10:41:02.090Z</time>
      </trkpt>
      <trkpt lat="52.371374" lon="13.091262">
        <ele>38.222874</ele>
        <time>2026-08-26T10:41:15.076Z</time>
      </trkpt>
      <trkpt lat="52.371714" lon="13.092168">
        <ele>38.178981</ele>
        <time>2026-08-26T10:41:26.486Z</time>
      </trkpt>
      <trkpt lat="52.371820" lon="13.092420">
        <ele>38.166351</ele>
        <time>2026-08-26T10:41:29.876Z</time>
      </trkpt>
      <trkpt lat="52.371857" lon="13.092507">
        <ele>38.161974</ele>
        <time>2026-08-26T10:41:31.101Z</time>
      </trkpt>
      <trkpt lat="52.371640" lon="13.092867">
        <ele>38.141095</ele>
        <time>2026-08-26T10:41:36.848Z</time>
      </trkpt>
      <trkpt lat="52.371457" lon="13.093171">
        <ele>38.123474</ele>
        <time>2026-08-26T10:41:41.386Z</time>
      </trkpt>
      <trkpt lat="52.371344" lon="13.093357">
        <ele>38.112644</ele>
        <time>2026-08-26T10:41:44.094Z</time>
      </trkpt>
      <trkpt lat="52.371427" lon="13.093489">
        <ele>38.021321</ele>
        <time>2026-08-26T10:41:46.058Z</time>
      </trkpt>
      <trkpt lat="52.371505" lon="13.093584">
        <ele>37.940766</ele>
        <time>2026-08-26T10:41:47.694Z</time>
      </trkpt>
      <trkpt lat="52.371783" lon="13.093928">
        <ele>37.652019</ele>
        <time>2026-08-26T10:41:53.524Z</time>
      </trkpt>
      <trkpt lat="52.371853" lon="13.094014">
        <ele>37.579501</ele>
        <time>2026-08-26T10:41:54.925Z</time>
      </trkpt>
      <trkpt lat="52.372013" lon="13.094216">
        <ele>37.412083</ele>
        <time>2026-08-26T10:41:58.227Z</time>
      </trkpt>
      <trkpt lat="52.372088" lon="13.094310">
        <ele>37.333818</ele>
        <time>2026-08-26T10:41:59.701Z</time>
      </trkpt>
      <trkpt lat="52.372311" lon="13.094587">
        <ele>37.101875</ele>
        <time>2026-08-26T10:42:03.982Z</time>
      </trkpt>
      <trkpt lat="52.372435" lon="13.094748">
        <ele>36.970741</ele>
        <time>2026-08-26T10:42:06.333Z</time>
      </trkpt>
      <trkpt lat="52.372607" lon="13.094962">
        <ele>36.791736</ele>
        <time>2026-08-26T10:42:09.544Z</time>
      </trkpt>
      <trkpt lat="52.372648" lon="13.095013">
        <ele>36.749070</ele>
        <time>2026-08-26T10:42:10.307Z</time>
      </trkpt>
      <trkpt lat="52.372771" lon="13.095173">
        <ele>36.617886</ele>
        <time>2026-08-26T10:42:12.613Z</time>
      </trkpt>
      <trkpt lat="52.372967" lon="13.095423">
        <ele>36.335618</ele>
        <time>2026-08-26T10:42:16.328Z</time>
      </trkpt>
      <trkpt lat="52.373018" lon="13.095505">
        <ele>36.254415</ele>
        <time>2026-08-26T10:42:17.409Z</time>
      </trkpt>
      <trkpt lat="52.373133" lon="13.095730">
        <ele>36.050855</ele>
        <time>2026-08-26T10:42:20.089Z</time>
      </trkpt>
      <trkpt lat="52.373162" lon="13.095798">
        <ele>35.993313</ele>
        <time>2026-08-26T10:42:20.848Z</time>
      </trkpt>
      <trkpt lat="52.373241" lon="13.095987">
        <ele>35.834418</ele>
        <time>2026-08-26T10:42:22.930Z</time>
      </trkpt>
      <trkpt lat="52.373526" lon="13.096651">
        <ele>35.271358</ele>
        <time>2026-08-26T10:42:30.336Z</time>
      </trkpt>
      <trkpt lat="52.373636" lon="13.096905">
        <ele>35.055329</ele>
        <time>2026-08-26T10:42:33.205Z</time>
      </trkpt>
      <trkpt lat="52.373678" lon="13.096957">
        <ele>34.995507</ele>
        <time>2026-08-26T10:42:36.903Z</time>
      </trkpt>
      <trkpt lat="52.373503" lon="13.098269">
        <ele>34.383905</ele>
        <time>2026-08-26T10:42:50.035Z</time>
      </trkpt>
      <trkpt lat="52.373438" lon="13.098900">
        <ele>34.216359</ele>
        <time>2026-08-26T10:42:56.405Z</time>
      </trkpt>
      <trkpt lat="52.373379" lon="13.099859">
        <ele>33.963998</ele>
        <time>2026-08-26T10:43:06.214Z</time>
      </trkpt>
      <trkpt lat="52.373337" lon="13.100028">
        <ele>33.916224</ele>
        <time>2026-08-26T10:43:08.134Z</time>
      </trkpt>
      <trkpt lat="52.373265" lon="13.100877">
        <ele>33.796234</ele>
        <time>2026-08-26T10:43:17.552Z</time>
      </trkpt>
      <trkpt lat="52.373296" lon="13.100950">
        <ele>33.794144</ele>
        <time>2026-08-26T10:43:18.545Z</time>
      </trkpt>
      <trkpt lat="52.373287" lon="13.101011">
        <ele>33.792668</ele>
        <time>2026-08-26T10:43:19.246Z</time>
      </trkpt>
      <trkpt lat="52.373501" lon="13.101102">
        <ele>33.784153</ele>
        <time>2026-08-26T10:43:23.364Z</time>
      </trkpt>
      <trkpt lat="52.373578" lon="13.101135">
        <ele>33.781088</ele>
        <time>2026-08-26T10:43:24.845Z</time>
      </trkpt>
      <trkpt lat="52.373564" lon="13.101314">
        <ele>33.776845</ele>
        <time>2026-08-26T10:43:26.906Z</time>
      </trkpt>
      <trkpt lat="52.373519" lon="13.101906">
        <ele>33.762818</ele>
        <time>2026-08-26T10:43:33.672Z</time>
      </trkpt>
      <trkpt lat="52.373477" lon="13.102873">
        <ele>33.740024</ele>
        <time>2026-08-26T10:43:43.909Z</time>
      </trkpt>
      <trkpt lat="52.373457" lon="13.103696">
        <ele>33.405155</ele>
        <time>2026-08-26T10:43:52.032Z</time>
      </trkpt>
      <trkpt lat="52.373490" lon="13.104427">
        <ele>33.060552</ele>
        <time>2026-08-26T10:43:58.948Z</time>
      </trkpt>
      <trkpt lat="52.373525" lon="13.104687">
        <ele>32.935382</ele>
        <time>2026-08-26T10:44:01.411Z</time>
      </trkpt>
      <trkpt lat="52.373776" lon="13.105638">
        <ele>32.448298</ele>
        <time>2026-08-26T10:44:11.019Z</time>
      </trkpt>
      <trkpt lat="52.373781" lon="13.105661">
        <ele>32.436820</ele>
        <time>2026-08-26T10:44:11.346Z</time>
      </trkpt>
      <trkpt lat="52.373863" lon="13.105955">
        <ele>32.378649</ele>
        <time>2026-08-26T10:44:15.679Z</time>
      </trkpt>
      <trkpt lat="52.373824" lon="13.106107">
        <ele>32.409086</ele>
        <time>2026-08-26T10:44:17.951Z</time>
      </trkpt>
      <trkpt lat="52.373891" lon="13.106396">
        <ele>32.466154</ele>
        <time>2026-08-26T10:44:31.057Z</time>
      </trkpt>
      <trkpt lat="52.374096" lon="13.107028">
        <ele>32.598269</ele>
        <time>2026-08-26T10:45:01.432Z</time>
      </trkpt>
      <trkpt lat="52.374213" lon="13.107483">
        <ele>32.689411</ele>
        <time>2026-08-26T10:45:22.366Z</time>
      </trkpt>
      <trkpt lat="52.374264" lon="13.107909">
        <ele>32.769550</ele>
        <time>2026-08-26T10:45:29.128Z</time>
      </trkpt>
      <trkpt lat="52.374277" lon="13.108247">
        <ele>32.832069</ele>
        <time>2026-08-26T10:45:34.475Z</time>
      </trkpt>
      <trkpt lat="52.374262" lon="13.108698">
        <ele>32.947496</ele>
        <time>2026-08-26T10:45:41.808Z</time>
      </trkpt>
      <trkpt lat="52.374168" lon="13.109381">
        <ele>33.290584</ele>
        <time>2026-08-26T10:45:53.406Z</time>
      </trkpt>
      <trkpt lat="52.374009" lon="13.109947">
        <ele>33.595894</ele>
        <time>2026-08-26T10:46:03.357Z</time>
      </trkpt>
      <trkpt lat="52.373839" lon="13.110381">
        <ele>33.848578</ele>
        <time>2026-08-26T10:46:11.484Z</time>
      </trkpt>
      <trkpt lat="52.373834" lon="13.110462">
        <ele>33.888473</ele>
        <time>2026-08-26T10:46:12.773Z</time>
      </trkpt>
      <trkpt lat="52.373885" lon="13.110657">
        <ele>33.992429</ele>
        <time>2026-08-26T10:46:16.089Z</time>
      </trkpt>
      <trkpt lat="52.373998" lon="13.110871">
        <ele>34.131078</ele>
        <time>2026-08-26T10:46:20.533Z</time>
      </trkpt>
      <trkpt lat="52.374219" lon="13.111114">
        <ele>34.340299</ele>
        <time>2026-08-26T10:46:25.805Z</time>
      </trkpt>
      <trkpt lat="52.374351" lon="13.111273">
        <ele>34.353992</ele>
        <time>2026-08-26T10:46:29.970Z</time>
      </trkpt>
      <trkpt lat="52.374420" lon="13.111515">
        <ele>34.367619</ele>
        <time>2026-08-26T10:46:34.037Z</time>
      </trkpt>
      <trkpt lat="52.374423" lon="13.111728">
        <ele>34.378488</ele>
        <time>2026-08-26T10:46:37.204Z</time>
      </trkpt>
      <trkpt lat="52.374361" lon="13.112002">
        <ele>34.393397</ele>
        <time>2026-08-26T10:46:41.554Z</time>
      </trkpt>
      <trkpt lat="52.374354" lon="13.112167">
        <ele>34.401835</ele>
        <time>2026-08-26T10:46:44.024Z</time>
      </trkpt>
      <trkpt lat="52.374402" lon="13.112318">
        <ele>34.410521</ele>
        <time>2026-08-26T10:46:46.568Z</time>
      </trkpt>
      <trkpt lat="52.374273" lon="13.112871">
        <ele>34.440723</ele>
        <time>2026-08-26T10:46:55.280Z</time>
      </trkpt>
      <trkpt lat="52.374183" lon="13.113069">
        <ele>34.453318</ele>
        <time>2026-08-26T10:46:58.774Z</time>
      </trkpt>
      <trkpt lat="52.374077" lon="13.113191">
        <ele>34.464144</ele>
        <time>2026-08-26T10:47:01.686Z</time>
      </trkpt>
      <trkpt lat="52.374042" lon="13.113267">
        <ele>34.469001</ele>
        <time>2026-08-26T10:47:02.637Z</time>
      </trkpt>
      <trkpt lat="52.374105" lon="13.113343">
        <ele>34.475539</ele>
        <time>2026-08-26T10:47:03.927Z</time>
      </trkpt>
      <trkpt lat="52.374431" lon="13.113676">
        <ele>34.387141</ele>
        <time>2026-08-26T10:47:10.019Z</time>
      </trkpt>
      <trkpt lat="52.374686" lon="13.113859">
        <ele>34.250669</ele>
        <time>2026-08-26T10:47:14.430Z</time>
      </trkpt>
      <trkpt lat="52.375160" lon="13.114060">
        <ele>34.010654</ele>
        <time>2026-08-26T10:47:22.404Z</time>
      </trkpt>
      <trkpt lat="52.375749" lon="13.114346">
        <ele>33.709507</ele>
        <time>2026-08-26T10:47:32.506Z</time>
      </trkpt>
      <trkpt lat="52.375897" lon="13.114445">
        <ele>33.631141</ele>
        <time>2026-08-26T10:47:35.178Z</time>
      </trkpt>
      <trkpt lat="52.376202" lon="13.114669">
        <ele>33.532574</ele>
        <time>2026-08-26T10:47:41.014Z</time>
      </trkpt>
      <trkpt lat="52.376741" lon="13.115189">
        <ele>33.367804</ele>
        <time>2026-08-26T10:47:52.250Z</time>
      </trkpt>
      <trkpt lat="52.377306" lon="13.115870">
        <ele>33.183033</ele>
        <time>2026-08-26T10:48:04.014Z</time>
      </trkpt>
      <trkpt lat="52.377674" lon="13.116319">
        <ele>33.038476</ele>
        <time>2026-08-26T10:48:11.401Z</time>
      </trkpt>
      <trkpt lat="52.378372" lon="13.117120">
        <ele>32.740593</ele>
        <time>2026-08-26T10:48:25.261Z</time>
      </trkpt>
      <trkpt lat="52.378791" lon="13.117506">
        <ele>32.572569</ele>
        <time>2026-08-26T10:48:33.529Z</time>
      </trkpt>
      <trkpt lat="52.379087" lon="13.117840">
        <ele>32.567997</ele>
        <time>2026-08-26T10:48:40.065Z</time>
      </trkpt>
      <trkpt lat="52.379813" lon="13.118502">
        <ele>32.873496</ele>
        <time>2026-08-26T10:48:56.056Z</time>
      </trkpt>
      <trkpt lat="52.379894" lon="13.118577">
        <ele>32.907706</ele>
        <time>2026-08-26T10:48:57.866Z</time>
      </trkpt>
      <trkpt lat="52.380136" lon="13.118783">
        <ele>33.007979</ele>
        <time>2026-08-26T10:49:03.051Z</time>
      </trkpt>
      <trkpt lat="52.380350" lon="13.118918">
        <ele>33.092294</ele>
        <time>2026-08-26T10:49:07.428Z</time>
      </trkpt>
      <trkpt lat="52.381046" lon="13.119535">
        <ele>33.364273</ele>
        <time>2026-08-26T10:49:22.657Z</time>
      </trkpt>
      <trkpt lat="52.381538" lon="13.120026">
        <ele>33.557469</ele>
        <time>2026-08-26T10:49:33.333Z</time>
      </trkpt>
      <trkpt lat="52.382153" lon="13.120640">
        <ele>33.793576</ele>
        <time>2026-08-26T10:49:46.876Z</time>
      </trkpt>
      <trkpt lat="52.382474" lon="13.121111">
        <ele>33.910683</ele>
        <time>2026-08-26T10:49:55.034Z</time>
      </trkpt>
      <trkpt lat="52.382511" lon="13.121167">
        <ele>33.924372</ele>
        <time>2026-08-26T10:49:55.970Z</time>
      </trkpt>
      <trkpt lat="52.382648" lon="13.121375">
        <ele>33.975132</ele>
        <time>2026-08-26T10:49:59.407Z</time>
      </trkpt>
      <trkpt lat="52.382661" lon="13.121391">
        <ele>33.979551</ele>
        <time>2026-08-26T10:49:59.715Z</time>
      </trkpt>
      <trkpt lat="52.382794" lon="13.121572">
        <ele>34.026538</ele>
        <time>2026-08-26T10:50:02.848Z</time>
      </trkpt>
      <trkpt lat="52.382923" lon="13.121698">
        <ele>34.067352</ele>
        <time>2026-08-26T10:50:05.582Z</time>
      </trkpt>
      <trkpt lat="52.383061" lon="13.121777">
        <ele>34.107078</ele>
        <time>2026-08-26T10:50:08.275Z</time>
      </trkpt>
      <trkpt lat="52.383146" lon="13.121811">
        <ele>34.130856</ele>
        <time>2026-08-26T10:50:09.938Z</time>
      </trkpt>
      <trkpt lat="52.383132" lon="13.122016">
        <ele>34.165073</ele>
        <time>2026-08-26T10:50:12.320Z</time>
      </trkpt>
      <trkpt lat="52.383169" lon="13.122096">
        <ele>34.181722</ele>
        <time>2026-08-26T10:50:13.495Z</time>
      </trkpt>
      <trkpt lat="52.383122" lon="13.122887">
        <ele>34.303037</ele>
        <time>2026-08-26T10:50:22.727Z</time>
      </trkpt>
      <trkpt lat="52.383100" lon="13.123127">
        <ele>34.335503</ele>
        <time>2026-08-26T10:50:25.510Z</time>
      </trkpt>
      <trkpt lat="52.383077" lon="13.123312">
        <ele>34.360759</ele>
        <time>2026-08-26T10:50:27.676Z</time>
      </trkpt>
      <trkpt lat="52.383011" lon="13.123643">
        <ele>34.407340</ele>
        <time>2026-08-26T10:50:31.599Z</time>
      </trkpt>
      <trkpt lat="52.383068" lon="13.123698">
        <ele>34.421838</ele>
        <time>2026-08-26T10:50:32.841Z</time>
      </trkpt>
      <trkpt lat="52.384848" lon="13.125417">
        <ele>34.900033</ele>
        <time>2026-08-26T10:51:12.263Z</time>
      </trkpt>
      <trkpt lat="52.385810" lon="13.126347">
        <ele>35.210305</ele>
        <time>2026-08-26T10:51:34.293Z</time>
      </trkpt>
      <trkpt lat="52.386555" lon="13.127066">
        <ele>35.520194</ele>
        <time>2026-08-26T10:51:51.414Z</time>
      </trkpt>
      <trkpt lat="52.386610" lon="13.128746">
        <ele>35.987525</ele>
        <time>2026-08-26T10:52:11.262Z</time>
      </trkpt>
      <trkpt lat="52.386576" lon="13.128747">
        <ele>36.007741</ele>
        <time>2026-08-26T10:52:11.889Z</time>
      </trkpt>
      <trkpt lat="52.386610" lon="13.128746">
        <ele>36.027956</ele>
        <time>2026-08-26T10:52:12.514Z</time>
      </trkpt>
      <trkpt lat="52.386946" lon="13.128817">
        <ele>36.229358</ele>
        <time>2026-08-26T10:52:18.913Z</time>
      </trkpt>
      <trkpt lat="52.387522" lon="13.128900">
        <ele>36.573104</ele>
        <time>2026-08-26T10:52:30.483Z</time>
      </trkpt>
      <trkpt lat="52.387599" lon="13.129002">
        <ele>36.631968</ele>
        <time>2026-08-26T10:52:32.512Z</time>
      </trkpt>
      <trkpt lat="52.387658" lon="13.129081">
        <ele>36.677265</ele>
        <time>2026-08-26T10:52:34.099Z</time>
      </trkpt>
      <trkpt lat="52.387907" lon="13.129217">
        <ele>36.850904</ele>
        <time>2026-08-26T10:52:39.616Z</time>
      </trkpt>
      <trkpt lat="52.388168" lon="13.129195">
        <ele>37.109144</ele>
        <time>2026-08-26T10:52:45.161Z</time>
      </trkpt>
      <trkpt lat="52.389557" lon="13.130279">
        <ele>38.622789</ele>
        <time>2026-08-26T10:53:17.670Z</time>
      </trkpt>
      <trkpt lat="52.389885" lon="13.129792">
        <ele>38.996755</ele>
        <time>2026-08-26T10:53:26.530Z</time>
      </trkpt>
      <trkpt lat="52.389945" lon="13.129749">
        <ele>39.052085</ele>
        <time>2026-08-26T10:53:27.839Z</time>
      </trkpt>
      <trkpt lat="52.389992" lon="13.129764">
        <ele>39.092540</ele>
        <time>2026-08-26T10:53:28.794Z</time>
      </trkpt>
      <trkpt lat="52.390428" lon="13.130221">
        <ele>39.529826</ele>
        <time>2026-08-26T10:53:39.312Z</time>
      </trkpt>
      <trkpt lat="52.390476" lon="13.130278">
        <ele>39.579910</ele>
        <time>2026-08-26T10:53:40.581Z</time>
      </trkpt>
      <trkpt lat="52.390500" lon="13.130306">
        <ele>39.604801</ele>
        <time>2026-08-26T10:53:41.222Z</time>
      </trkpt>
      <trkpt lat="52.390788" lon="13.130648">
        <ele>39.905305</ele>
        <time>2026-08-26T10:53:48.960Z</time>
      </trkpt>
      <trkpt lat="52.391278" lon="13.131250">
        <ele>40.200420</ele>
        <time>2026-08-26T10:54:02.176Z</time>
      </trkpt>
      <trkpt lat="52.391661" lon="13.131752">
        <ele>40.326109</ele>
        <time>2026-08-26T10:54:12.267Z</time>
      </trkpt>
      <trkpt lat="52.391676" lon="13.131773">
        <ele>40.331165</ele>
        <time>2026-08-26T10:54:12.678Z</time>
      </trkpt>
      <trkpt lat="52.391765" lon="13.131896">
        <ele>40.361002</ele>
        <time>2026-08-26T10:54:14.998Z</time>
      </trkpt>
      <trkpt lat="52.393221" lon="13.133939">
        <ele>40.041946</ele>
        <time>2026-08-26T10:54:48.250Z</time>
      </trkpt>
      <trkpt lat="52.393434" lon="13.134321">
        <ele>39.894927</ele>
        <time>2026-08-26T10:54:53.634Z</time>
      </trkpt>
      <trkpt lat="52.394915" lon="13.136977">
        <ele>38.729437</ele>
        <time>2026-08-26T10:55:31.452Z</time>
      </trkpt>
      <trkpt lat="52.395709" lon="13.138531">
        <ele>37.875177</ele>
        <time>2026-08-26T10:55:51.786Z</time>
      </trkpt>
      <trkpt lat="52.395995" lon="13.139221">
        <ele>37.523613</ele>
        <time>2026-08-26T10:56:00.313Z</time>
      </trkpt>
      <trkpt lat="52.396214" lon="13.139755">
        <ele>37.379321</ele>
        <time>2026-08-26T10:56:06.826Z</time>
      </trkpt>
      <trkpt lat="52.396405" lon="13.140307">
        <ele>37.242458</ele>
        <time>2026-08-26T10:56:13.516Z</time>
      </trkpt>
      <trkpt lat="52.396989" lon="13.141405">
        <ele>36.928310</ele>
        <time>2026-08-26T10:56:29.017Z</time>
      </trkpt>
      <trkpt lat="52.397150" lon="13.141720">
        <ele>36.752705</ele>
        <time>2026-08-26T10:56:33.138Z</time>
      </trkpt>
      <trkpt lat="52.397338" lon="13.142232">
        <ele>36.319778</ele>
        <time>2026-08-26T10:56:38.787Z</time>
      </trkpt>
      <trkpt lat="52.397508" lon="13.143132">
        <ele>35.637205</ele>
        <time>2026-08-26T10:56:47.605Z</time>
      </trkpt>
      <trkpt lat="52.397599" lon="13.143652">
        <ele>35.245281</ele>
        <time>2026-08-26T10:56:52.431Z</time>
      </trkpt>
      <trkpt lat="52.397698" lon="13.143770">
        <ele>35.099934</ele>
        <time>2026-08-26T10:56:54.196Z</time>
      </trkpt>
      <trkpt lat="52.398218" lon="13.144392">
        <ele>34.340511</ele>
        <time>2026-08-26T10:57:03.402Z</time>
      </trkpt>
      <trkpt lat="52.398313" lon="13.144513">
        <ele>34.199400</ele>
        <time>2026-08-26T10:57:05.145Z</time>
      </trkpt>
      <trkpt lat="52.398621" lon="13.144903">
        <ele>33.742913</ele>
        <time>2026-08-26T10:57:10.904Z</time>
      </trkpt>
      <trkpt lat="52.398855" lon="13.145200">
        <ele>33.395794</ele>
        <time>2026-08-26T10:57:15.297Z</time>
      </trkpt>
      <trkpt lat="52.398878" lon="13.145229">
        <ele>33.361760</ele>
        <time>2026-08-26T10:57:15.739Z</time>
      </trkpt>
      <trkpt lat="52.399045" lon="13.145442">
        <ele>33.113575</ele>
        <time>2026-08-26T10:57:19.108Z</time>
      </trkpt>
      <trkpt lat="52.399248" lon="13.145058">
        <ele>32.749986</ele>
        <time>2026-08-26T10:57:24.604Z</time>
      </trkpt>
      <trkpt lat="52.399521" lon="13.144279">
        <ele>32.712768</ele>
        <time>2026-08-26T10:57:35.320Z</time>
      </trkpt>
      <trkpt lat="52.399808" lon="13.144492">
        <ele>32.770079</ele>
        <time>2026-08-26T10:57:45.090Z</time>
      </trkpt>
      <trkpt lat="52.400037" lon="13.144747">
        <ele>32.820441</ele>
        <time>2026-08-26T10:57:53.741Z</time>
      </trkpt>
      <trkpt lat="52.400324" lon="13.144900">
        <ele>32.875341</ele>
        <time>2026-08-26T10:58:03.310Z</time>
      </trkpt>
      <trkpt lat="52.403932" lon="13.148790">
        <ele>33.677433</ele>
        <time>2026-08-26T11:00:13.993Z</time>
      </trkpt>
      <trkpt lat="52.404362" lon="13.149185">
        <ele>33.765474</ele>
        <time>2026-08-26T11:00:28.498Z</time>
      </trkpt>
      <trkpt lat="52.404491" lon="13.149348">
        <ele>33.794566</ele>
        <time>2026-08-26T11:00:31.752Z</time>
      </trkpt>
      <trkpt lat="52.404635" lon="13.149597">
        <ele>33.831952</ele>
        <time>2026-08-26T11:00:35.973Z</time>
      </trkpt>
      <trkpt lat="52.404858" lon="13.149840">
        <ele>33.879780</ele>
        <time>2026-08-26T11:00:41.413Z</time>
      </trkpt>
      <trkpt lat="52.405088" lon="13.149994">
        <ele>33.924156</ele>
        <time>2026-08-26T11:00:46.589Z</time>
      </trkpt>
      <trkpt lat="52.406207" lon="13.151608">
        <ele>34.690108</ele>
        <time>2026-08-26T11:01:18.697Z</time>
      </trkpt>
      <trkpt lat="52.407219" lon="13.152380">
        <ele>35.271003</ele>
        <time>2026-08-26T11:01:42.751Z</time>
      </trkpt>
      <trkpt lat="52.408249" lon="13.153481">
        <ele>35.845588</ele>
        <time>2026-08-26T11:02:09.450Z</time>
      </trkpt>
      <trkpt lat="52.410825" lon="13.156314">
        <ele>36.162546</ele>
        <time>2026-08-26T11:03:10.527Z</time>
      </trkpt>
      <trkpt lat="52.411261" lon="13.156880">
        <ele>36.321926</ele>
        <time>2026-08-26T11:03:22.701Z</time>
      </trkpt>
      <trkpt lat="52.411480" lon="13.157224">
        <ele>36.519276</ele>
        <time>2026-08-26T11:03:29.284Z</time>
      </trkpt>
      <trkpt lat="52.411696" lon="13.157762">
        <ele>36.774909</ele>
        <time>2026-08-26T11:03:37.561Z</time>
      </trkpt>
      <trkpt lat="52.411941" lon="13.158091">
        <ele>36.980977</ele>
        <time>2026-08-26T11:03:44.306Z</time>
      </trkpt>
      <trkpt lat="52.412205" lon="13.158613">
        <ele>37.250106</ele>
        <time>2026-08-26T11:03:53.507Z</time>
      </trkpt>
      <trkpt lat="52.412286" lon="13.158998">
        <ele>37.422466</ele>
        <time>2026-08-26T11:03:59.161Z</time>
      </trkpt>
      <trkpt lat="52.412482" lon="13.159601">
        <ele>37.893231</ele>
        <time>2026-08-26T11:04:08.833Z</time>
      </trkpt>
      <trkpt lat="52.412498" lon="13.159767">
        <ele>38.009022</ele>
        <time>2026-08-26T11:04:11.196Z</time>
      </trkpt>
      <trkpt lat="52.412438" lon="13.160179">
        <ele>38.300863</ele>
        <time>2026-08-26T11:04:17.249Z</time>
      </trkpt>
      <trkpt lat="52.412576" lon="13.160748">
        <ele>38.722748</ele>
        <time>2026-08-26T11:04:26.379Z</time>
      </trkpt>
      <trkpt lat="52.412609" lon="13.161116">
        <ele>38.979020</ele>
        <time>2026-08-26T11:04:32.012Z</time>
      </trkpt>
      <trkpt lat="52.412613" lon="13.163272">
        <ele>39.959618</ele>
        <time>2026-08-26T11:05:01.744Z</time>
      </trkpt>
      <trkpt lat="52.412614" lon="13.164252">
        <ele>40.305681</ele>
        <time>2026-08-26T11:05:14.674Z</time>
      </trkpt>
      <trkpt lat="52.412637" lon="13.165608">
        <ele>40.094573</ele>
        <time>2026-08-26T11:05:30.671Z</time>
      </trkpt>
      <trkpt lat="52.412645" lon="13.166955">
        <ele>39.526843</ele>
        <time>2026-08-26T11:05:44.942Z</time>
      </trkpt>
      <trkpt lat="52.412586" lon="13.167927">
        <ele>39.325422</ele>
        <time>2026-08-26T11:05:54.972Z</time>
      </trkpt>
      <trkpt lat="52.412589" lon="13.168375">
        <ele>39.490612</ele>
        <time>2026-08-26T11:05:59.791Z</time>
      </trkpt>
      <trkpt lat="52.412713" lon="13.168583">
        <ele>39.597847</ele>
        <time>2026-08-26T11:06:03.151Z</time>
      </trkpt>
      <trkpt lat="52.413196" lon="13.169392">
        <ele>40.015231</ele>
        <time>2026-08-26T11:06:18.330Z</time>
      </trkpt>
      <trkpt lat="52.414387" lon="13.170814">
        <ele>42.376485</ele>
        <time>2026-08-26T11:06:58.358Z</time>
      </trkpt>
      <trkpt lat="52.415361" lon="13.171870">
        <ele>44.496288</ele>
        <time>2026-08-26T11:07:28.976Z</time>
      </trkpt>
      <trkpt lat="52.415530" lon="13.172137">
        <ele>44.760159</ele>
        <time>2026-08-26T11:07:34.600Z</time>
      </trkpt>
      <trkpt lat="52.416523" lon="13.174618">
        <ele>46.278932</ele>
        <time>2026-08-26T11:08:14.919Z</time>
      </trkpt>
      <trkpt lat="52.417085" lon="13.176163">
        <ele>46.557911</ele>
        <time>2026-08-26T11:08:37.694Z</time>
      </trkpt>
      <trkpt lat="52.417182" lon="13.176563">
        <ele>46.362042</ele>
        <time>2026-08-26T11:08:42.472Z</time>
      </trkpt>
      <trkpt lat="52.417298" lon="13.177044">
        <ele>45.905490</ele>
        <time>2026-08-26T11:08:47.907Z</time>
      </trkpt>
      <trkpt lat="52.417335" lon="13.176836">
        <ele>45.714245</ele>
        <time>2026-08-26T11:08:50.101Z</time>
      </trkpt>
      <trkpt lat="52.417809" lon="13.176171">
        <ele>44.811408</ele>
        <time>2026-08-26T11:09:00.004Z</time>
      </trkpt>
      <trkpt lat="52.418334" lon="13.175279">
        <ele>43.869959</ele>
        <time>2026-08-26T11:09:11.973Z</time>
      </trkpt>
      <trkpt lat="52.418464" lon="13.175162">
        <ele>43.778958</ele>
        <time>2026-08-26T11:09:14.409Z</time>
      </trkpt>
      <trkpt lat="52.419191" lon="13.176723">
        <ele>43.043894</ele>
        <time>2026-08-26T11:09:34.507Z</time>
      </trkpt>
      <trkpt lat="52.419314" lon="13.177105">
        <ele>42.882230</ele>
        <time>2026-08-26T11:09:39.532Z</time>
      </trkpt>
      <trkpt lat="52.419328" lon="13.177132">
        <ele>42.876843</ele>
        <time>2026-08-26T11:09:39.897Z</time>
      </trkpt>
      <trkpt lat="52.419291" lon="13.177271">
        <ele>42.866250</ele>
        <time>2026-08-26T11:09:41.670Z</time>
      </trkpt>
      <trkpt lat="52.419262" lon="13.177413">
        <ele>42.855791</ele>
        <time>2026-08-26T11:09:43.886Z</time>
      </trkpt>
      <trkpt lat="52.418763" lon="13.180108">
        <ele>42.663638</ele>
        <time>2026-08-26T11:10:23.332Z</time>
      </trkpt>
      <trkpt lat="52.418696" lon="13.180565">
        <ele>42.641816</ele>
        <time>2026-08-26T11:10:29.628Z</time>
      </trkpt>
      <trkpt lat="52.418656" lon="13.180906">
        <ele>42.625694</ele>
        <time>2026-08-26T11:10:34.353Z</time>
      </trkpt>
      <trkpt lat="52.418596" lon="13.181841">
        <ele>42.582044</ele>
        <time>2026-08-26T11:10:47.418Z</time>
      </trkpt>
      <trkpt lat="52.418618" lon="13.182916">
        <ele>42.562566</ele>
        <time>2026-08-26T11:11:02.887Z</time>
      </trkpt>
      <trkpt lat="52.419031" lon="13.188144">
        <ele>44.303508</ele>
        <time>2026-08-26T11:12:24.765Z</time>
      </trkpt>
      <trkpt lat="52.419049" lon="13.188375">
        <ele>44.377218</ele>
        <time>2026-08-26T11:12:28.291Z</time>
      </trkpt>
      <trkpt lat="52.419071" lon="13.188672">
        <ele>44.471914</ele>
        <time>2026-08-26T11:12:32.709Z</time>
      </trkpt>
      <trkpt lat="52.419092" lon="13.188839">
        <ele>44.448162</ele>
        <time>2026-08-26T11:12:35.140Z</time>
      </trkpt>
      <trkpt lat="52.419095" lon="13.188877">
        <ele>44.441003</ele>
        <time>2026-08-26T11:12:35.568Z</time>
      </trkpt>
      <trkpt lat="52.419105" lon="13.189020">
        <ele>44.414113</ele>
        <time>2026-08-26T11:12:37.127Z</time>
      </trkpt>
      <trkpt lat="52.419176" lon="13.189006">
        <ele>44.392208</ele>
        <time>2026-08-26T11:12:38.398Z</time>
      </trkpt>
      <trkpt lat="52.419292" lon="13.188983">
        <ele>44.356416</ele>
        <time>2026-08-26T11:12:40.463Z</time>
      </trkpt>
      <trkpt lat="52.419366" lon="13.188966">
        <ele>44.333527</ele>
        <time>2026-08-26T11:12:41.776Z</time>
      </trkpt>
      <trkpt lat="52.419403" lon="13.188958">
        <ele>44.322095</ele>
        <time>2026-08-26T11:12:42.421Z</time>
      </trkpt>
      <trkpt lat="52.419410" lon="13.189051">
        <ele>44.304589</ele>
        <time>2026-08-26T11:12:46.375Z</time>
      </trkpt>
      <trkpt lat="52.419406" lon="13.189140">
        <ele>44.287918</ele>
        <time>2026-08-26T11:12:50.161Z</time>
      </trkpt>
      <trkpt lat="52.419414" lon="13.189442">
        <ele>44.231446</ele>
        <time>2026-08-26T11:13:02.985Z</time>
      </trkpt>
      <trkpt lat="52.419454" lon="13.189469">
        <ele>44.218196</ele>
        <time>2026-08-26T11:13:04.215Z</time>
      </trkpt>
      <trkpt lat="52.419498" lon="13.189845">
        <ele>44.146671</ele>
        <time>2026-08-26T11:13:10.875Z</time>
      </trkpt>
      <trkpt lat="52.419790" lon="13.191243">
        <ele>43.865918</ele>
        <time>2026-08-26T11:13:35.626Z</time>
      </trkpt>
      <trkpt lat="52.420246" lon="13.191920">
        <ele>43.661539</ele>
        <time>2026-08-26T11:13:53.750Z</time>
      </trkpt>
      <trkpt lat="52.420539" lon="13.192355">
        <ele>43.530216</ele>
        <time>2026-08-26T11:14:05.442Z</time>
      </trkpt>
      <trkpt lat="52.421134" lon="13.192302">
        <ele>43.332239</ele>
        <time>2026-08-26T11:14:22.663Z</time>
      </trkpt>
      <trkpt lat="52.421189" lon="13.192293">
        <ele>43.298578</ele>
        <time>2026-08-26T11:14:23.606Z</time>
      </trkpt>
      <trkpt lat="52.421248" lon="13.192282">
        <ele>43.258158</ele>
        <time>2026-08-26T11:14:24.598Z</time>
      </trkpt>
      <trkpt lat="52.421736" lon="13.192180">
        <ele>42.923292</ele>
        <time>2026-08-26T11:14:32.641Z</time>
      </trkpt>
      <trkpt lat="52.421869" lon="13.192087">
        <ele>42.824872</ele>
        <time>2026-08-26T11:14:34.964Z</time>
      </trkpt>
      <trkpt lat="52.422024" lon="13.191885">
        <ele>42.690102</ele>
        <time>2026-08-26T11:14:38.130Z</time>
      </trkpt>
      <trkpt lat="52.422245" lon="13.191556">
        <ele>42.486922</ele>
        <time>2026-08-26T11:14:42.950Z</time>
      </trkpt>
      <trkpt lat="52.422578" lon="13.190899">
        <ele>42.132295</ele>
        <time>2026-08-26T11:14:51.728Z</time>
      </trkpt>
      <trkpt lat="52.422712" lon="13.190596">
        <ele>41.982849</ele>
        <time>2026-08-26T11:14:55.779Z</time>
      </trkpt>
      <trkpt lat="52.423088" lon="13.189524">
        <ele>41.493406</ele>
        <time>2026-08-26T11:15:10.010Z</time>
      </trkpt>
      <trkpt lat="52.423199" lon="13.189283">
        <ele>41.373876</ele>
        <time>2026-08-26T11:15:13.417Z</time>
      </trkpt>
      <trkpt lat="52.423301" lon="13.189070">
        <ele>41.266692</ele>
        <time>2026-08-26T11:15:16.269Z</time>
      </trkpt>
      <trkpt lat="52.423428" lon="13.188883">
        <ele>41.155918</ele>
        <time>2026-08-26T11:15:19.049Z</time>
      </trkpt>
      <trkpt lat="52.423501" lon="13.188776">
        <ele>41.092373</ele>
        <time>2026-08-26T11:15:20.574Z</time>
      </trkpt>
      <trkpt lat="52.423731" lon="13.188439">
        <ele>40.791556</ele>
        <time>2026-08-26T11:15:25.188Z</time>
      </trkpt>
      <trkpt lat="52.423868" lon="13.188238">
        <ele>40.403182</ele>
        <time>2026-08-26T11:15:27.920Z</time>
      </trkpt>
      <trkpt lat="52.423968" lon="13.188372">
        <ele>40.130348</ele>
        <time>2026-08-26T11:15:29.747Z</time>
      </trkpt>
      <trkpt lat="52.424211" lon="13.188462">
        <ele>39.604033</ele>
        <time>2026-08-26T11:15:33.203Z</time>
      </trkpt>
      <trkpt lat="52.424513" lon="13.188752">
        <ele>38.864659</ele>
        <time>2026-08-26T11:15:38.055Z</time>
      </trkpt>
      <trkpt lat="52.424619" lon="13.188770">
        <ele>38.639517</ele>
        <time>2026-08-26T11:15:39.512Z</time>
      </trkpt>
      <trkpt lat="52.424850" lon="13.188650">
        <ele>38.127584</ele>
        <time>2026-08-26T11:15:42.907Z</time>
      </trkpt>
      <trkpt lat="52.424966" lon="13.188799">
        <ele>37.816283</ele>
        <time>2026-08-26T11:15:45.622Z</time>
      </trkpt>
      <trkpt lat="52.425241" lon="13.189154">
        <ele>37.159724</ele>
        <time>2026-08-26T11:15:52.364Z</time>
      </trkpt>
      <trkpt lat="52.426122" lon="13.190630">
        <ele>38.174532</ele>
        <time>2026-08-26T11:16:23.482Z</time>
      </trkpt>
      <trkpt lat="52.426387" lon="13.190972">
        <ele>38.446244</ele>
        <time>2026-08-26T11:16:33.919Z</time>
      </trkpt>
      <trkpt lat="52.426519" lon="13.191141">
        <ele>38.581176</ele>
        <time>2026-08-26T11:16:39.336Z</time>
      </trkpt>
      <trkpt lat="52.426846" lon="13.191507">
        <ele>39.615147</ele>
        <time>2026-08-26T11:16:50.909Z</time>
      </trkpt>
      <trkpt lat="52.427114" lon="13.191805">
        <ele>40.469966</ele>
        <time>2026-08-26T11:17:00.688Z</time>
      </trkpt>
      <trkpt lat="52.427384" lon="13.192106">
        <ele>41.331865</ele>
        <time>2026-08-26T11:17:10.287Z</time>
      </trkpt>
      <trkpt lat="52.427580" lon="13.192365">
        <ele>41.996379</ele>
        <time>2026-08-26T11:17:17.108Z</time>
      </trkpt>
      <trkpt lat="52.427632" lon="13.192421">
        <ele>42.160611</ele>
        <time>2026-08-26T11:17:18.815Z</time>
      </trkpt>
      <trkpt lat="52.428061" lon="13.192857">
        <ele>43.341546</ele>
        <time>2026-08-26T11:17:31.576Z</time>
      </trkpt>
      <trkpt lat="52.428199" lon="13.192932">
        <ele>43.358559</ele>
        <time>2026-08-26T11:17:34.810Z</time>
      </trkpt>
      <trkpt lat="52.428259" lon="13.192967">
        <ele>43.366012</ele>
        <time>2026-08-26T11:17:36.134Z</time>
      </trkpt>
      <trkpt lat="52.428788" lon="13.193129">
        <ele>43.428989</ele>
        <time>2026-08-26T11:17:46.077Z</time>
      </trkpt>
      <trkpt lat="52.428839" lon="13.193149">
        <ele>43.435125</ele>
        <time>2026-08-26T11:17:46.946Z</time>
      </trkpt>
      <trkpt lat="52.429183" lon="13.193239">
        <ele>43.475891</ele>
        <time>2026-08-26T11:17:52.579Z</time>
      </trkpt>
      <trkpt lat="52.429731" lon="13.193381">
        <ele>43.540817</ele>
        <time>2026-08-26T11:18:01.525Z</time>
      </trkpt>
      <trkpt lat="52.430016" lon="13.193464">
        <ele>43.477094</ele>
        <time>2026-08-26T11:18:06.243Z</time>
      </trkpt>
      <trkpt lat="52.430081" lon="13.193487">
        <ele>43.459289</ele>
        <time>2026-08-26T11:18:07.319Z</time>
      </trkpt>
      <trkpt lat="52.430246" lon="13.193545">
        <ele>43.414105</ele>
        <time>2026-08-26T11:18:10.013Z</time>
      </trkpt>
      <trkpt lat="52.430340" lon="13.193582">
        <ele>43.388221</ele>
        <time>2026-08-26T11:18:11.628Z</time>
      </trkpt>
      <trkpt lat="52.430394" lon="13.193606">
        <ele>43.373241</ele>
        <time>2026-08-26T11:18:12.560Z</time>
      </trkpt>
      <trkpt lat="52.430564" lon="13.193730">
        <ele>43.323423</ele>
        <time>2026-08-26T11:18:15.753Z</time>
      </trkpt>
      <trkpt lat="52.430749" lon="13.193969">
        <ele>43.260366</ele>
        <time>2026-08-26T11:18:20.075Z</time>
      </trkpt>
      <trkpt lat="52.430816" lon="13.194078">
        <ele>43.235098</ele>
        <time>2026-08-26T11:18:21.949Z</time>
      </trkpt>
      <trkpt lat="52.430886" lon="13.194147">
        <ele>43.213230</ele>
        <time>2026-08-26T11:18:23.518Z</time>
      </trkpt>
      <trkpt lat="52.430924" lon="13.194172">
        <ele>43.202267</ele>
        <time>2026-08-26T11:18:24.345Z</time>
      </trkpt>
      <trkpt lat="52.430965" lon="13.194199">
        <ele>43.190437</ele>
        <time>2026-08-26T11:18:25.206Z</time>
      </trkpt>
      <trkpt lat="52.431266" lon="13.194259">
        <ele>43.109248</ele>
        <time>2026-08-26T11:18:30.906Z</time>
      </trkpt>
      <trkpt lat="52.431459" lon="13.194339">
        <ele>43.038229</ele>
        <time>2026-08-26T11:18:34.587Z</time>
      </trkpt>
      <trkpt lat="52.431654" lon="13.194520">
        <ele>42.835758</ele>
        <time>2026-08-26T11:18:38.681Z</time>
      </trkpt>
      <trkpt lat="52.431786" lon="13.194675">
        <ele>42.689058</ele>
        <time>2026-08-26T11:18:41.612Z</time>
      </trkpt>
      <trkpt lat="52.431963" lon="13.194879">
        <ele>42.493572</ele>
        <time>2026-08-26T11:18:45.430Z</time>
      </trkpt>
      <trkpt lat="52.432077" lon="13.195020">
        <ele>42.364549</ele>
        <time>2026-08-26T11:18:47.897Z</time>
      </trkpt>
      <trkpt lat="52.432166" lon="13.195129">
        <ele>42.264177</ele>
        <time>2026-08-26T11:18:49.825Z</time>
      </trkpt>
      <trkpt lat="52.432136" lon="13.195223">
        <ele>42.205721</ele>
        <time>2026-08-26T11:18:50.943Z</time>
      </trkpt>
      <trkpt lat="52.432178" lon="13.196033">
        <ele>41.757840</ele>
        <time>2026-08-26T11:18:58.892Z</time>
      </trkpt>
      <trkpt lat="52.432162" lon="13.196983">
        <ele>41.065248</ele>
        <time>2026-08-26T11:19:07.226Z</time>
      </trkpt>
      <trkpt lat="52.432186" lon="13.197475">
        <ele>40.567873</ele>
        <time>2026-08-26T11:19:11.578Z</time>
      </trkpt>
      <trkpt lat="52.432322" lon="13.198134">
        <ele>39.866786</ele>
        <time>2026-08-26T11:19:17.696Z</time>
      </trkpt>
      <trkpt lat="52.432407" lon="13.198362">
        <ele>39.597482</ele>
        <time>2026-08-26T11:19:20.096Z</time>
      </trkpt>
      <trkpt lat="52.432600" lon="13.198688">
        <ele>39.139583</ele>
        <time>2026-08-26T11:19:24.279Z</time>
      </trkpt>
      <trkpt lat="52.432718" lon="13.198873">
        <ele>38.869787</ele>
        <time>2026-08-26T11:19:26.831Z</time>
      </trkpt>
      <trkpt lat="52.432781" lon="13.198852">
        <ele>38.763532</ele>
        <time>2026-08-26T11:19:27.891Z</time>
      </trkpt>
      <trkpt lat="52.433011" lon="13.198804">
        <ele>38.487416</ele>
        <time>2026-08-26T11:19:31.812Z</time>
      </trkpt>
      <trkpt lat="52.433711" lon="13.198868">
        <ele>38.788995</ele>
        <time>2026-08-26T11:19:45.623Z</time>
      </trkpt>
      <trkpt lat="52.434010" lon="13.199017">
        <ele>38.923417</ele>
        <time>2026-08-26T11:19:52.161Z</time>
      </trkpt>
      <trkpt lat="52.434142" lon="13.199028">
        <ele>38.980271</ele>
        <time>2026-08-26T11:19:55.027Z</time>
      </trkpt>
      <trkpt lat="52.434167" lon="13.199066">
        <ele>38.994933</ele>
        <time>2026-08-26T11:19:55.771Z</time>
      </trkpt>
      <trkpt lat="52.434208" lon="13.199126">
        <ele>39.018569</ele>
        <time>2026-08-26T11:19:56.990Z</time>
      </trkpt>
      <trkpt lat="52.434286" lon="13.198952">
        <ele>39.075209</ele>
        <time>2026-08-26T11:19:59.960Z</time>
      </trkpt>
      <trkpt lat="52.434526" lon="13.198607">
        <ele>39.212484</ele>
        <time>2026-08-26T11:20:06.889Z</time>
      </trkpt>
      <trkpt lat="52.434630" lon="13.198470">
        <ele>39.234002</ele>
        <time>2026-08-26T11:20:09.608Z</time>
      </trkpt>
      <trkpt lat="52.434925" lon="13.198085">
        <ele>39.207719</ele>
        <time>2026-08-26T11:20:16.480Z</time>
      </trkpt>
      <trkpt lat="52.435006" lon="13.197923">
        <ele>39.198814</ele>
        <time>2026-08-26T11:20:18.607Z</time>
      </trkpt>
      <trkpt lat="52.435034" lon="13.197814">
        <ele>39.193787</ele>
        <time>2026-08-26T11:20:19.792Z</time>
      </trkpt>
      <trkpt lat="52.435081" lon="13.197847">
        <ele>39.190223</ele>
        <time>2026-08-26T11:20:20.686Z</time>
      </trkpt>
      <trkpt lat="52.435116" lon="13.197872">
        <ele>39.187561</ele>
        <time>2026-08-26T11:20:21.336Z</time>
      </trkpt>
      <trkpt lat="52.435121" lon="13.197875">
        <ele>39.187190</ele>
        <time>2026-08-26T11:20:21.425Z</time>
      </trkpt>
      <trkpt lat="52.435189" lon="13.197983">
        <ele>39.180591</ele>
        <time>2026-08-26T11:20:23.032Z</time>
      </trkpt>
      <trkpt lat="52.435258" lon="13.198092">
        <ele>39.173912</ele>
        <time>2026-08-26T11:20:24.659Z</time>
      </trkpt>
      <trkpt lat="52.435397" lon="13.198439">
        <ele>39.156265</ele>
        <time>2026-08-26T11:20:29.036Z</time>
      </trkpt>
      <trkpt lat="52.435577" lon="13.198982">
        <ele>39.129995</ele>
        <time>2026-08-26T11:20:35.832Z</time>
      </trkpt>
      <trkpt lat="52.436117" lon="13.198955">
        <ele>39.124401</ele>
        <time>2026-08-26T11:20:44.857Z</time>
      </trkpt>
      <trkpt lat="52.436322" lon="13.198704">
        <ele>39.133448</ele>
        <time>2026-08-26T11:20:52.369Z</time>
      </trkpt>
      <trkpt lat="52.436843" lon="13.198483">
        <ele>39.152480</ele>
        <time>2026-08-26T11:21:09.160Z</time>
      </trkpt>
      <trkpt lat="52.437156" lon="13.198215">
        <ele>39.164967</ele>
        <time>2026-08-26T11:21:20.110Z</time>
      </trkpt>
      <trkpt lat="52.437303" lon="13.198175">
        <ele>39.170237</ele>
        <time>2026-08-26T11:21:24.635Z</time>
      </trkpt>
      <trkpt lat="52.437479" lon="13.198219">
        <ele>39.176533</ele>
        <time>2026-08-26T11:21:29.799Z</time>
      </trkpt>
      <trkpt lat="52.437720" lon="13.198333">
        <ele>39.011020</ele>
        <time>2026-08-26T11:21:36.930Z</time>
      </trkpt>
      <trkpt lat="52.438017" lon="13.198618">
        <ele>38.763929</ele>
        <time>2026-08-26T11:21:46.420Z</time>
      </trkpt>
      <trkpt lat="52.439066" lon="13.199876">
        <ele>37.967105</ele>
        <time>2026-08-26T11:22:21.383Z</time>
      </trkpt>
      <trkpt lat="52.439272" lon="13.200123">
        <ele>38.239628</ele>
        <time>2026-08-26T11:22:28.402Z</time>
      </trkpt>
      <trkpt lat="52.440042" lon="13.201261">
        <ele>39.346554</ele>
        <time>2026-08-26T11:23:01.971Z</time>
      </trkpt>
      <trkpt lat="52.440307" lon="13.201507">
        <ele>39.671758</ele>
        <time>2026-08-26T11:23:13.576Z</time>
      </trkpt>
      <trkpt lat="52.440511" lon="13.201634">
        <ele>40.110345</ele>
        <time>2026-08-26T11:23:22.318Z</time>
      </trkpt>
      <trkpt lat="52.440562" lon="13.201520">
        <ele>40.395142</ele>
        <time>2026-08-26T11:23:24.966Z</time>
      </trkpt>
      <trkpt lat="52.440708" lon="13.201192">
        <ele>41.213118</ele>
        <time>2026-08-26T11:23:32.743Z</time>
      </trkpt>
      <trkpt lat="52.440791" lon="13.201004">
        <ele>41.680630</ele>
        <time>2026-08-26T11:23:37.292Z</time>
      </trkpt>
      <trkpt lat="52.441096" lon="13.200316">
        <ele>43.393957</ele>
        <time>2026-08-26T11:23:59.348Z</time>
      </trkpt>
      <trkpt lat="52.441135" lon="13.200230">
        <ele>43.609835</ele>
        <time>2026-08-26T11:24:01.274Z</time>
      </trkpt>
      <trkpt lat="52.441226" lon="13.200219">
        <ele>43.911310</ele>
        <time>2026-08-26T11:24:03.996Z</time>
      </trkpt>
      <trkpt lat="52.441805" lon="13.199900">
        <ele>45.881606</ele>
        <time>2026-08-26T11:24:20.952Z</time>
      </trkpt>
      <trkpt lat="52.444189" lon="13.198588">
        <ele>51.085756</ele>
        <time>2026-08-26T11:25:24.155Z</time>
      </trkpt>
      <trkpt lat="52.444764" lon="13.198271">
        <ele>51.847994</ele>
        <time>2026-08-26T11:25:37.193Z</time>
      </trkpt>
      <trkpt lat="52.445145" lon="13.198792">
        <ele>52.293206</ele>
        <time>2026-08-26T11:25:52.127Z</time>
      </trkpt>
      <trkpt lat="52.445398" lon="13.198954">
        <ele>51.984202</ele>
        <time>2026-08-26T11:25:59.627Z</time>
      </trkpt>
      <trkpt lat="52.445680" lon="13.199202">
        <ele>51.620161</ele>
        <time>2026-08-26T11:26:08.040Z</time>
      </trkpt>
      <trkpt lat="52.445819" lon="13.199223">
        <ele>51.461341</ele>
        <time>2026-08-26T11:26:11.649Z</time>
      </trkpt>
      <trkpt lat="52.445983" lon="13.199247">
        <ele>51.274005</ele>
        <time>2026-08-26T11:26:15.891Z</time>
      </trkpt>
      <trkpt lat="52.446353" lon="13.199520">
        <ele>50.812417</ele>
        <time>2026-08-26T11:26:26.347Z</time>
      </trkpt>
      <trkpt lat="52.446478" lon="13.199699">
        <ele>50.623642</ele>
        <time>2026-08-26T11:26:30.618Z</time>
      </trkpt>
      <trkpt lat="52.447078" lon="13.200466">
        <ele>50.224177</ele>
        <time>2026-08-26T11:26:50.686Z</time>
      </trkpt>
      <trkpt lat="52.447203" lon="13.200594">
        <ele>50.192825</ele>
        <time>2026-08-26T11:26:54.773Z</time>
      </trkpt>
      <trkpt lat="52.447426" lon="13.200823">
        <ele>50.136849</ele>
        <time>2026-08-26T11:27:02.337Z</time>
      </trkpt>
      <trkpt lat="52.447530" lon="13.201027">
        <ele>50.102360</ele>
        <time>2026-08-26T11:27:07.096Z</time>
      </trkpt>
      <trkpt lat="52.447426" lon="13.200823">
        <ele>50.067870</ele>
        <time>2026-08-26T11:27:11.912Z</time>
      </trkpt>
      <trkpt lat="52.447203" lon="13.200594">
        <ele>50.011894</ele>
        <time>2026-08-26T11:27:19.999Z</time>
      </trkpt>
      <trkpt lat="52.447078" lon="13.200466">
        <ele>49.980543</ele>
        <time>2026-08-26T11:27:24.696Z</time>
      </trkpt>
      <trkpt lat="52.446478" lon="13.199699">
        <ele>50.712880</ele>
        <time>2026-08-26T11:27:50.437Z</time>
      </trkpt>
      <trkpt lat="52.446353" lon="13.199520">
        <ele>50.920489</ele>
        <time>2026-08-26T11:27:56.236Z</time>
      </trkpt>
      <trkpt lat="52.445983" lon="13.199247">
        <ele>51.428132</ele>
        <time>2026-08-26T11:28:10.375Z</time>
      </trkpt>
      <trkpt lat="52.445819" lon="13.199223">
        <ele>51.634159</ele>
        <time>2026-08-26T11:28:16.120Z</time>
      </trkpt>
      <trkpt lat="52.445680" lon="13.199202">
        <ele>51.808825</ele>
        <time>2026-08-26T11:28:21.021Z</time>
      </trkpt>
      <trkpt lat="52.445398" lon="13.198954">
        <ele>52.194595</ele>
        <time>2026-08-26T11:28:31.913Z</time>
      </trkpt>
      <trkpt lat="52.445145" lon="13.198792">
        <ele>52.033515</ele>
        <time>2026-08-26T11:28:40.574Z</time>
      </trkpt>
      <trkpt lat="52.444764" lon="13.198271">
        <ele>51.739341</ele>
        <time>2026-08-26T11:28:55.050Z</time>
      </trkpt>
      <trkpt lat="52.444189" lon="13.198588">
        <ele>51.379565</ele>
        <time>2026-08-26T11:29:04.275Z</time>
      </trkpt>
      <trkpt lat="52.441805" lon="13.199900">
        <ele>48.665178</ele>
        <time>2026-08-26T11:29:40.439Z</time>
      </trkpt>
      <trkpt lat="52.444189" lon="13.198588">
        <ele>51.400358</ele>
        <time>2026-08-26T11:30:39.103Z</time>
      </trkpt>
      <trkpt lat="52.444764" lon="13.198271">
        <ele>52.163265</ele>
        <time>2026-08-26T11:30:52.141Z</time>
      </trkpt>
      <trkpt lat="52.445145" lon="13.198792">
        <ele>52.067307</ele>
        <time>2026-08-26T11:31:07.075Z</time>
      </trkpt>
      <trkpt lat="52.445398" lon="13.198954">
        <ele>51.796527</ele>
        <time>2026-08-26T11:31:14.576Z</time>
      </trkpt>
      <trkpt lat="52.445680" lon="13.199202">
        <ele>51.477520</ele>
        <time>2026-08-26T11:31:22.988Z</time>
      </trkpt>
      <trkpt lat="52.445819" lon="13.199223">
        <ele>51.338346</ele>
        <time>2026-08-26T11:31:26.598Z</time>
      </trkpt>
      <trkpt lat="52.445983" lon="13.199247">
        <ele>51.174184</ele>
        <time>2026-08-26T11:31:30.840Z</time>
      </trkpt>
      <trkpt lat="52.446353" lon="13.199520">
        <ele>50.769696</ele>
        <time>2026-08-26T11:31:41.295Z</time>
      </trkpt>
      <trkpt lat="52.446478" lon="13.199699">
        <ele>50.604273</ele>
        <time>2026-08-26T11:31:45.566Z</time>
      </trkpt>
      <trkpt lat="52.447078" lon="13.200466">
        <ele>49.725751</ele>
        <time>2026-08-26T11:32:05.350Z</time>
      </trkpt>
      <trkpt lat="52.447203" lon="13.200594">
        <ele>49.555189</ele>
        <time>2026-08-26T11:32:09.214Z</time>
      </trkpt>
      <trkpt lat="52.447426" lon="13.200823">
        <ele>49.250665</ele>
        <time>2026-08-26T11:32:16.243Z</time>
      </trkpt>
      <trkpt lat="52.447530" lon="13.201027">
        <ele>49.063031</ele>
        <time>2026-08-26T11:32:20.625Z</time>
      </trkpt>
      <trkpt lat="52.447598" lon="13.201161">
        <ele>48.940014</ele>
        <time>2026-08-26T11:32:23.524Z</time>
      </trkpt>
      <trkpt lat="52.447744" lon="13.201588">
        <ele>48.594595</ele>
        <time>2026-08-26T11:32:31.736Z</time>
      </trkpt>
      <trkpt lat="52.447980" lon="13.201937">
        <ele>48.506476</ele>
        <time>2026-08-26T11:32:40.561Z</time>
      </trkpt>
      <trkpt lat="52.449829" lon="13.204088">
        <ele>49.008980</ele>
        <time>2026-08-26T11:33:48.795Z</time>
      </trkpt>
      <trkpt lat="52.450672" lon="13.205181">
        <ele>49.802690</ele>
        <time>2026-08-26T11:34:24.446Z</time>
      </trkpt>
      <trkpt lat="52.450940" lon="13.205493">
        <ele>50.234679</ele>
        <time>2026-08-26T11:34:35.653Z</time>
      </trkpt>
      <trkpt lat="52.453461" lon="13.208428">
        <ele>54.306191</ele>
        <time>2026-08-26T11:36:20.685Z</time>
      </trkpt>
      <trkpt lat="52.453573" lon="13.208548">
        <ele>54.480142</ele>
        <time>2026-08-26T11:36:25.153Z</time>
      </trkpt>
      <trkpt lat="52.455157" lon="13.210654">
        <ele>56.643477</ele>
        <time>2026-08-26T11:37:32.807Z</time>
      </trkpt>
      <trkpt lat="52.456156" lon="13.211982">
        <ele>57.504456</ele>
        <time>2026-08-26T11:38:13.496Z</time>
      </trkpt>
      <trkpt lat="52.456265" lon="13.212111">
        <ele>57.594454</ele>
        <time>2026-08-26T11:38:17.687Z</time>
      </trkpt>
      <trkpt lat="52.458155" lon="13.214512">
        <ele>58.807327</ele>
        <time>2026-08-26T11:39:32.500Z</time>
      </trkpt>
      <trkpt lat="52.458771" lon="13.215296">
        <ele>59.071450</ele>
        <time>2026-08-26T11:39:56.719Z</time>
      </trkpt>
      <trkpt lat="52.459744" lon="13.216524">
        <ele>59.142753</ele>
        <time>2026-08-26T11:40:33.544Z</time>
      </trkpt>
      <trkpt lat="52.460642" lon="13.217651">
        <ele>58.882922</ele>
        <time>2026-08-26T11:41:05.774Z</time>
      </trkpt>
      <trkpt lat="52.461511" lon="13.218740">
        <ele>58.574623</ele>
        <time>2026-08-26T11:41:36.723Z</time>
      </trkpt>
      <trkpt lat="52.464095" lon="13.222181">
        <ele>58.387079</ele>
        <time>2026-08-26T11:43:14.720Z</time>
      </trkpt>
      <trkpt lat="52.464195" lon="13.222308">
        <ele>58.410492</ele>
        <time>2026-08-26T11:43:18.529Z</time>
      </trkpt>
      <trkpt lat="52.465709" lon="13.224251">
        <ele>58.992118</ele>
        <time>2026-08-26T11:44:18.059Z</time>
      </trkpt>
      <trkpt lat="52.466065" lon="13.224736">
        <ele>59.181095</ele>
        <time>2026-08-26T11:44:32.581Z</time>
      </trkpt>
      <trkpt lat="52.466791" lon="13.225724">
        <ele>59.170974</ele>
        <time>2026-08-26T11:45:01.274Z</time>
      </trkpt>
      <trkpt lat="52.468951" lon="13.228507">
        <ele>58.129356</ele>
        <time>2026-08-26T11:46:18.758Z</time>
      </trkpt>
      <trkpt lat="52.469432" lon="13.229126">
        <ele>57.926875</ele>
        <time>2026-08-26T11:46:36.042Z</time>
      </trkpt>
      <trkpt lat="52.470623" lon="13.230596">
        <ele>57.570761</ele>
        <time>2026-08-26T11:47:19.377Z</time>
      </trkpt>
      <trkpt lat="52.470652" lon="13.230666">
        <ele>57.551731</ele>
        <time>2026-08-26T11:47:20.890Z</time>
      </trkpt>
      <trkpt lat="52.470746" lon="13.230891">
        <ele>57.490400</ele>
        <time>2026-08-26T11:47:25.778Z</time>
      </trkpt>
      <trkpt lat="52.470701" lon="13.231431">
        <ele>57.367880</ele>
        <time>2026-08-26T11:47:32.249Z</time>
      </trkpt>
      <trkpt lat="52.470595" lon="13.232025">
        <ele>57.228740</ele>
        <time>2026-08-26T11:47:39.561Z</time>
      </trkpt>
      <trkpt lat="52.470239" lon="13.233428">
        <ele>56.880986</ele>
        <time>2026-08-26T11:47:56.368Z</time>
      </trkpt>
      <trkpt lat="52.470097" lon="13.233864">
        <ele>56.754965</ele>
        <time>2026-08-26T11:48:01.607Z</time>
      </trkpt>
      <trkpt lat="52.469880" lon="13.234609">
        <ele>56.544474</ele>
        <time>2026-08-26T11:48:10.436Z</time>
      </trkpt>
      <trkpt lat="52.469622" lon="13.235478">
        <ele>56.298060</ele>
        <time>2026-08-26T11:48:21.463Z</time>
      </trkpt>
      <trkpt lat="52.469880" lon="13.234609">
        <ele>56.364651</ele>
        <time>2026-08-26T11:48:33.815Z</time>
      </trkpt>
      <trkpt lat="52.470097" lon="13.233864">
        <ele>56.667419</ele>
        <time>2026-08-26T11:48:45.177Z</time>
      </trkpt>
      <trkpt lat="52.470239" lon="13.233428">
        <ele>56.848688</ele>
        <time>2026-08-26T11:48:52.097Z</time>
      </trkpt>
      <trkpt lat="52.470595" lon="13.232025">
        <ele>57.226366</ele>
        <time>2026-08-26T11:49:12.156Z</time>
      </trkpt>
      <trkpt lat="52.470701" lon="13.231431">
        <ele>57.169081</ele>
        <time>2026-08-26T11:49:19.732Z</time>
      </trkpt>
      <trkpt lat="52.470746" lon="13.230891">
        <ele>57.118639</ele>
        <time>2026-08-26T11:49:26.153Z</time>
      </trkpt>
      <trkpt lat="52.470715" lon="13.230548">
        <ele>57.086548</ele>
        <time>2026-08-26T11:49:30.135Z</time>
      </trkpt>
      <trkpt lat="52.470746" lon="13.230891">
        <ele>57.054456</ele>
        <time>2026-08-26T11:49:34.057Z</time>
      </trkpt>
      <trkpt lat="52.470859" lon="13.230997">
        <ele>57.034683</ele>
        <time>2026-08-26T11:49:37.727Z</time>
      </trkpt>
      <trkpt lat="52.470985" lon="13.231059">
        <ele>57.014698</ele>
        <time>2026-08-26T11:49:41.392Z</time>
      </trkpt>
      <trkpt lat="52.471101" lon="13.231083">
        <ele>56.996935</ele>
        <time>2026-08-26T11:49:44.630Z</time>
      </trkpt>
      <trkpt lat="52.471250" lon="13.231054">
        <ele>56.923311</ele>
        <time>2026-08-26T11:49:48.771Z</time>
      </trkpt>
      <trkpt lat="52.471291" lon="13.231018">
        <ele>56.892551</ele>
        <time>2026-08-26T11:49:50.054Z</time>
      </trkpt>
      <trkpt lat="52.472304" lon="13.232188">
        <ele>56.073161</ele>
        <time>2026-08-26T11:50:24.228Z</time>
      </trkpt>
      <trkpt lat="52.472523" lon="13.232838">
        <ele>55.801265</ele>
        <time>2026-08-26T11:50:36.948Z</time>
      </trkpt>
      <trkpt lat="52.472835" lon="13.233516">
        <ele>55.826159</ele>
        <time>2026-08-26T11:50:51.632Z</time>
      </trkpt>
      <trkpt lat="52.473301" lon="13.234500">
        <ele>55.862673</ele>
        <time>2026-08-26T11:51:14.232Z</time>
      </trkpt>
      <trkpt lat="52.473380" lon="13.234744">
        <ele>55.870768</ele>
        <time>2026-08-26T11:51:19.432Z</time>
      </trkpt>
      <trkpt lat="52.473416" lon="13.234958">
        <ele>55.877272</ele>
        <time>2026-08-26T11:51:23.666Z</time>
      </trkpt>
      <trkpt lat="52.473425" lon="13.235049">
        <ele>55.879973</ele>
        <time>2026-08-26T11:51:25.440Z</time>
      </trkpt>
      <trkpt lat="52.474569" lon="13.234703">
        <ele>56.660311</ele>
        <time>2026-08-26T11:51:51.710Z</time>
      </trkpt>
      <trkpt lat="52.475586" lon="13.234378">
        <ele>57.308786</ele>
        <time>2026-08-26T11:52:14.591Z</time>
      </trkpt>
      <trkpt lat="52.476504" lon="13.234110">
        <ele>57.589013</ele>
        <time>2026-08-26T11:52:33.673Z</time>
      </trkpt>
      <trkpt lat="52.477322" lon="13.233868">
        <ele>57.817412</ele>
        <time>2026-08-26T11:52:50.334Z</time>
      </trkpt>
      <trkpt lat="52.478296" lon="13.233581">
        <ele>58.027357</ele>
        <time>2026-08-26T11:53:10.375Z</time>
      </trkpt>
      <trkpt lat="52.478440" lon="13.233525">
        <ele>58.058753</ele>
        <time>2026-08-26T11:53:13.419Z</time>
      </trkpt>
      <trkpt lat="52.478518" lon="13.233405">
        <ele>58.081431</ele>
        <time>2026-08-26T11:53:15.635Z</time>
      </trkpt>
      <trkpt lat="52.478772" lon="13.233229">
        <ele>58.139922</ele>
        <time>2026-08-26T11:53:21.374Z</time>
      </trkpt>
      <trkpt lat="52.480667" lon="13.232652">
        <ele>58.931335</ele>
        <time>2026-08-26T11:54:02.359Z</time>
      </trkpt>
      <trkpt lat="52.481884" lon="13.232253">
        <ele>59.135974</ele>
        <time>2026-08-26T11:54:28.044Z</time>
      </trkpt>
      <trkpt lat="52.484613" lon="13.231436">
        <ele>58.780342</ele>
        <time>2026-08-26T11:55:21.588Z</time>
      </trkpt>
      <trkpt lat="52.485665" lon="13.231098">
        <ele>58.386299</ele>
        <time>2026-08-26T11:55:41.793Z</time>
      </trkpt>
      <trkpt lat="52.487319" lon="13.230609">
        <ele>55.816087</ele>
        <time>2026-08-26T11:56:11.159Z</time>
      </trkpt>
      <trkpt lat="52.487862" lon="13.230463">
        <ele>54.094690</ele>
        <time>2026-08-26T11:56:19.091Z</time>
      </trkpt>
      <trkpt lat="52.488685" lon="13.230356">
        <ele>49.682170</ele>
        <time>2026-08-26T11:56:30.062Z</time>
      </trkpt>
      <trkpt lat="52.488849" lon="13.230289">
        <ele>48.778910</ele>
        <time>2026-08-26T11:56:32.260Z</time>
      </trkpt>
      <trkpt lat="52.488939" lon="13.230216">
        <ele>48.242408</ele>
        <time>2026-08-26T11:56:33.574Z</time>
      </trkpt>
      <trkpt lat="52.489669" lon="13.229624">
        <ele>44.471705</ele>
        <time>2026-08-26T11:56:44.445Z</time>
      </trkpt>
      <trkpt lat="52.490166" lon="13.229208">
        <ele>42.484005</ele>
        <time>2026-08-26T11:56:52.217Z</time>
      </trkpt>
      <trkpt lat="52.490964" lon="13.228520">
        <ele>39.272503</ele>
        <time>2026-08-26T11:57:06.226Z</time>
      </trkpt>
      <trkpt lat="52.491156" lon="13.228424">
        <ele>39.042638</ele>
        <time>2026-08-26T11:57:09.547Z</time>
      </trkpt>
      <trkpt lat="52.491993" lon="13.228139">
        <ele>38.213227</ele>
        <time>2026-08-26T11:57:24.301Z</time>
      </trkpt>
      <trkpt lat="52.492727" lon="13.227881">
        <ele>37.484900</ele>
        <time>2026-08-26T11:57:38.112Z</time>
      </trkpt>
      <trkpt lat="52.492929" lon="13.227887">
        <ele>37.437037</ele>
        <time>2026-08-26T11:57:41.859Z</time>
      </trkpt>
      <trkpt lat="52.493112" lon="13.227949">
        <ele>37.397013</ele>
        <time>2026-08-26T11:57:45.340Z</time>
      </trkpt>
      <trkpt lat="52.493485" lon="13.228224">
        <ele>37.309437</ele>
        <time>2026-08-26T11:57:52.990Z</time>
      </trkpt>
      <trkpt lat="52.494311" lon="13.228837">
        <ele>37.115287</ele>
        <time>2026-08-26T11:58:10.703Z</time>
      </trkpt>
      <trkpt lat="52.494558" lon="13.228957">
        <ele>37.025697</ele>
        <time>2026-08-26T11:58:15.909Z</time>
      </trkpt>
      <trkpt lat="52.494798" lon="13.229006">
        <ele>36.920881</ele>
        <time>2026-08-26T11:58:20.807Z</time>
      </trkpt>
      <trkpt lat="52.494999" lon="13.229012">
        <ele>36.833755</ele>
        <time>2026-08-26T11:58:24.767Z</time>
      </trkpt>
      <trkpt lat="52.495395" lon="13.228940">
        <ele>36.661083</ele>
        <time>2026-08-26T11:58:32.266Z</time>
      </trkpt>
      <trkpt lat="52.495611" lon="13.228839">
        <ele>36.563750</ele>
        <time>2026-08-26T11:58:36.343Z</time>
      </trkpt>
      <trkpt lat="52.495757" lon="13.228717">
        <ele>36.492757</ele>
        <time>2026-08-26T11:58:39.256Z</time>
      </trkpt>
      <trkpt lat="52.495980" lon="13.228390">
        <ele>36.363199</ele>
        <time>2026-08-26T11:58:44.483Z</time>
      </trkpt>
      <trkpt lat="52.496204" lon="13.229270">
        <ele>36.158017</ele>
        <time>2026-08-26T11:59:00.080Z</time>
      </trkpt>
      <trkpt lat="52.496477" lon="13.230194">
        <ele>35.949177</ele>
        <time>2026-08-26T11:59:17.399Z</time>
      </trkpt>
      <trkpt lat="52.496623" lon="13.231080">
        <ele>35.762537</ele>
        <time>2026-08-26T11:59:34.350Z</time>
      </trkpt>
      <trkpt lat="52.496745" lon="13.232081">
        <ele>35.891476</ele>
        <time>2026-08-26T11:59:54.261Z</time>
      </trkpt>
      <trkpt lat="52.496872" lon="13.232613">
        <ele>36.021926</ele>
        <time>2026-08-26T12:00:05.153Z</time>
      </trkpt>
      <trkpt lat="52.497174" lon="13.233056">
        <ele>36.173750</ele>
        <time>2026-08-26T12:00:17.850Z</time>
      </trkpt>
      <trkpt lat="52.497609" lon="13.233490">
        <ele>36.364593</ele>
        <time>2026-08-26T12:00:33.310Z</time>
      </trkpt>
      <trkpt lat="52.497681" lon="13.233562">
        <ele>36.374153</ele>
        <time>2026-08-26T12:00:35.762Z</time>
      </trkpt>
      <trkpt lat="52.498042" lon="13.233820">
        <ele>36.128322</ele>
        <time>2026-08-26T12:00:47.125Z</time>
      </trkpt>
      <trkpt lat="52.498190" lon="13.234041">
        <ele>36.003429</ele>
        <time>2026-08-26T12:00:52.794Z</time>
      </trkpt>
      <trkpt lat="52.498440" lon="13.234531">
        <ele>35.760395</ele>
        <time>2026-08-26T12:01:04.020Z</time>
      </trkpt>
      <trkpt lat="52.498593" lon="13.234678">
        <ele>35.649715</ele>
        <time>2026-08-26T12:01:09.178Z</time>
      </trkpt>
      <trkpt lat="52.499413" lon="13.234994">
        <ele>35.196867</ele>
        <time>2026-08-26T12:01:31.247Z</time>
      </trkpt>
      <trkpt lat="52.499594" lon="13.235002">
        <ele>35.142397</ele>
        <time>2026-08-26T12:01:35.749Z</time>
      </trkpt>
      <trkpt lat="52.499911" lon="13.234930">
        <ele>35.046127</ele>
        <time>2026-08-26T12:01:44.207Z</time>
      </trkpt>
      <trkpt lat="52.500271" lon="13.234700">
        <ele>34.929925</ele>
        <time>2026-08-26T12:01:55.398Z</time>
      </trkpt>
      <trkpt lat="52.500530" lon="13.234534">
        <ele>34.846290</ele>
        <time>2026-08-26T12:02:03.683Z</time>
      </trkpt>
      <trkpt lat="52.500644" lon="13.234565">
        <ele>34.811529</ele>
        <time>2026-08-26T12:02:07.217Z</time>
      </trkpt>
      <trkpt lat="52.500956" lon="13.235068">
        <ele>35.018036</ele>
        <time>2026-08-26T12:02:21.482Z</time>
      </trkpt>
      <trkpt lat="52.501712" lon="13.236457">
        <ele>37.315888</ele>
        <time>2026-08-26T12:03:04.481Z</time>
      </trkpt>
      <trkpt lat="52.501846" lon="13.236747">
        <ele>37.764892</ele>
        <time>2026-08-26T12:03:12.390Z</time>
      </trkpt>
      <trkpt lat="52.502388" lon="13.238164">
        <ele>39.942917</ele>
        <time>2026-08-26T12:03:48.363Z</time>
      </trkpt>
      <trkpt lat="52.502446" lon="13.238849">
        <ele>40.862464</ele>
        <time>2026-08-26T12:04:03.919Z</time>
      </trkpt>
      <trkpt lat="52.502569" lon="13.239297">
        <ele>41.515909</ele>
        <time>2026-08-26T12:04:15.185Z</time>
      </trkpt>
      <trkpt lat="52.502662" lon="13.240024">
        <ele>42.512276</ele>
        <time>2026-08-26T12:04:32.385Z</time>
      </trkpt>
      <trkpt lat="52.502704" lon="13.240635">
        <ele>43.363871</ele>
        <time>2026-08-26T12:04:46.444Z</time>
      </trkpt>
      <trkpt lat="52.502666" lon="13.240600">
        <ele>43.462990</ele>
        <time>2026-08-26T12:04:48.035Z</time>
      </trkpt>
      <trkpt lat="52.502696" lon="13.240997">
        <ele>44.017043</ele>
        <time>2026-08-26T12:04:54.666Z</time>
      </trkpt>
      <trkpt lat="52.502696" lon="13.241350">
        <ele>44.505938</ele>
        <time>2026-08-26T12:05:00.405Z</time>
      </trkpt>
      <trkpt lat="52.502761" lon="13.242499">
        <ele>46.104123</ele>
        <time>2026-08-26T12:05:18.802Z</time>
      </trkpt>
      <trkpt lat="52.502785" lon="13.242874">
        <ele>46.671560</ele>
        <time>2026-08-26T12:05:24.897Z</time>
      </trkpt>
      <trkpt lat="52.502827" lon="13.243125">
        <ele>47.100622</ele>
        <time>2026-08-26T12:05:29.200Z</time>
      </trkpt>
      <trkpt lat="52.503068" lon="13.244126">
        <ele>48.874901</ele>
        <time>2026-08-26T12:05:47.974Z</time>
      </trkpt>
      <trkpt lat="52.503339" lon="13.245113">
        <ele>50.659569</ele>
        <time>2026-08-26T12:06:07.865Z</time>
      </trkpt>
      <trkpt lat="52.503941" lon="13.247136">
        <ele>53.664790</ele>
        <time>2026-08-26T12:06:45.759Z</time>
      </trkpt>
      <trkpt lat="52.504041" lon="13.247530">
        <ele>54.208711</ele>
        <time>2026-08-26T12:06:52.527Z</time>
      </trkpt>
      <trkpt lat="52.504346" lon="13.248879">
        <ele>54.979729</ele>
        <time>2026-08-26T12:07:12.979Z</time>
      </trkpt>
      <trkpt lat="52.504448" lon="13.249475">
        <ele>54.945546</ele>
        <time>2026-08-26T12:07:20.454Z</time>
      </trkpt>
      <trkpt lat="52.504599" lon="13.250653">
        <ele>54.879077</ele>
        <time>2026-08-26T12:07:33.090Z</time>
      </trkpt>
      <trkpt lat="52.504650" lon="13.251025">
        <ele>54.881287</ele>
        <time>2026-08-26T12:07:37.048Z</time>
      </trkpt>
      <trkpt lat="52.504718" lon="13.251514">
        <ele>55.093320</ele>
        <time>2026-08-26T12:07:42.685Z</time>
      </trkpt>
      <trkpt lat="52.504751" lon="13.251898">
        <ele>55.257252</ele>
        <time>2026-08-26T12:07:47.418Z</time>
      </trkpt>
      <trkpt lat="52.504746" lon="13.252135">
        <ele>55.357496</ele>
        <time>2026-08-26T12:07:50.415Z</time>
      </trkpt>
      <trkpt lat="52.504790" lon="13.252587">
        <ele>55.550991</ele>
        <time>2026-08-26T12:07:56.471Z</time>
      </trkpt>
      <trkpt lat="52.504870" lon="13.253089">
        <ele>55.770346</ele>
        <time>2026-08-26T12:08:03.992Z</time>
      </trkpt>
      <trkpt lat="52.504827" lon="13.253156">
        <ele>55.811502</ele>
        <time>2026-08-26T12:08:05.491Z</time>
      </trkpt>
      <trkpt lat="52.504932" lon="13.253338">
        <ele>55.917502</ele>
        <time>2026-08-26T12:08:09.296Z</time>
      </trkpt>
      <trkpt lat="52.504939" lon="13.253524">
        <ele>55.996276</ele>
        <time>2026-08-26T12:08:12.190Z</time>
      </trkpt>
      <trkpt lat="52.504904" lon="13.253599">
        <ele>56.036225</ele>
        <time>2026-08-26T12:08:13.674Z</time>
      </trkpt>
      <trkpt lat="52.505037" lon="13.253774">
        <ele>56.175537</ele>
        <time>2026-08-26T12:08:17.962Z</time>
      </trkpt>
      <trkpt lat="52.505170" lon="13.253949">
        <ele>56.349327</ele>
        <time>2026-08-26T12:08:22.156Z</time>
      </trkpt>
      <trkpt lat="52.505649" lon="13.254580">
        <ele>56.975514</ele>
        <time>2026-08-26T12:08:35.771Z</time>
      </trkpt>
      <trkpt lat="52.505764" lon="13.254732">
        <ele>57.126048</ele>
        <time>2026-08-26T12:08:38.735Z</time>
      </trkpt>
      <trkpt lat="52.505858" lon="13.254855">
        <ele>57.248610</ele>
        <time>2026-08-26T12:08:41.143Z</time>
      </trkpt>
      <trkpt lat="52.506769" lon="13.256051">
        <ele>57.944229</ele>
        <time>2026-08-26T12:09:03.016Z</time>
      </trkpt>
      <trkpt lat="52.507112" lon="13.256502">
        <ele>57.944229</ele>
        <time>2026-08-26T12:09:11.732Z</time>
      </trkpt>
      <trkpt lat="52.507334" lon="13.256794">
        <ele>57.944229</ele>
        <time>2026-08-26T12:09:17.620Z</time>
      </trkpt>
      <trkpt lat="52.507802" lon="13.257426">
        <ele>57.944229</ele>
        <time>2026-08-26T12:09:30.327Z</time>
      </trkpt>
      <trkpt lat="52.507790" lon="13.257536">
        <ele>57.944229</ele>
        <time>2026-08-26T12:09:31.824Z</time>
      </trkpt>
      <trkpt lat="52.508019" lon="13.257868">
        <ele>57.944229</ele>
        <time>2026-08-26T12:09:38.587Z</time>
      </trkpt>
    </trkseg>
  </trk>
</gpx>